<?xml version='1.0' encoding='UTF-8'?><gpx version="1.1" creator="JPX - https://github.com/jenetics/jpx" xmlns="http://www.topografix.com/GPX/1/1"><trk><trkseg><trkpt lat="44.37039249163224" lon="11.289998110686003"><ele>375.0</ele><time>2026-04-06T11:15:29.001Z</time></trkpt><trkpt lat="44.37046292754332" lon="11.290017154728098"><ele>375.0</ele><time>2026-04-06T11:16:03.001Z</time></trkpt><trkpt lat="44.37051549815683" lon="11.289968175357851"><ele>375.0</ele><time>2026-04-06T11:16:13.001Z</time></trkpt><trkpt lat="44.370570671803385" lon="11.289902240630036"><ele>375.0</ele><time>2026-04-06T11:16:19.001Z</time></trkpt><trkpt lat="44.3706140382024" lon="11.28982162062611"><ele>375.0</ele><time>2026-04-06T11:16:27.001Z</time></trkpt><trkpt lat="44.370656955059" lon="11.289750233851343"><ele>375.0</ele><time>2026-04-06T11:16:33.001Z</time></trkpt><trkpt lat="44.370697584613815" lon="11.289662719722568"><ele>375.0</ele><time>2026-04-06T11:16:41.002Z</time></trkpt><trkpt lat="44.370739361272506" lon="11.289595861511025"><ele>374.8571428571429</ele><time>2026-04-06T11:16:46.002Z</time></trkpt><trkpt lat="44.370785606797796" lon="11.289531019265754"><ele>374.71428571428567</ele><time>2026-04-06T11:16:51.002Z</time></trkpt><trkpt lat="44.37083238795011" lon="11.289453506799461"><ele>374.57142857142856</ele><time>2026-04-06T11:16:58.002Z</time></trkpt><trkpt lat="44.370882364746336" lon="11.289382578129365"><ele>374.42857142857144</ele><time>2026-04-06T11:17:03.001Z</time></trkpt><trkpt lat="44.370920362863664" lon="11.289308039869308"><ele>374.28571428571433</ele><time>2026-04-06T11:17:08.001Z</time></trkpt><trkpt lat="44.37097071459685" lon="11.289232316553106"><ele>374.1428571428571</ele><time>2026-04-06T11:17:14.001Z</time></trkpt><trkpt lat="44.371018627262295" lon="11.289168738023944"><ele>374.0</ele><time>2026-04-06T11:17:19.001Z</time></trkpt><trkpt lat="44.37106464517183" lon="11.28909132956819"><ele>374.0</ele><time>2026-04-06T11:17:25.001Z</time></trkpt><trkpt lat="44.37111170456889" lon="11.28902198168977"><ele>374.0</ele><time>2026-04-06T11:17:31.001Z</time></trkpt><trkpt lat="44.3711539833392" lon="11.288936583980576"><ele>374.0</ele><time>2026-04-06T11:17:37.001Z</time></trkpt><trkpt lat="44.3711949904664" lon="11.288868374770765"><ele>374.0</ele><time>2026-04-06T11:17:42.001Z</time></trkpt><trkpt lat="44.3712340463534" lon="11.288797478318815"><ele>374.0</ele><time>2026-04-06T11:17:47.001Z</time></trkpt><trkpt lat="44.371286337991776" lon="11.288726510770179"><ele>374.0</ele><time>2026-04-06T11:17:53.001Z</time></trkpt><trkpt lat="44.371323396573494" lon="11.288643127342983"><ele>374.0</ele><time>2026-04-06T11:17:59.001Z</time></trkpt><trkpt lat="44.371358611122474" lon="11.288560692656214"><ele>373.1428571428571</ele><time>2026-04-06T11:18:05.001Z</time></trkpt><trkpt lat="44.37138858770578" lon="11.288475820401539"><ele>372.28571428571433</ele><time>2026-04-06T11:18:11.001Z</time></trkpt><trkpt lat="44.37141472683338" lon="11.288390925728521"><ele>371.42857142857144</ele><time>2026-04-06T11:18:18.001Z</time></trkpt><trkpt lat="44.37145933452991" lon="11.288323780995114"><ele>370.57142857142856</ele><time>2026-04-06T11:18:22.001Z</time></trkpt><trkpt lat="44.37149208180394" lon="11.288235760013155"><ele>369.71428571428567</ele><time>2026-04-06T11:18:27.001Z</time></trkpt><trkpt lat="44.371501970172396" lon="11.288139853428426"><ele>368.8571428571429</ele><time>2026-04-06T11:18:33.002Z</time></trkpt><trkpt lat="44.37150681273097" lon="11.288044226642105"><ele>368.0</ele><time>2026-04-06T11:18:39.002Z</time></trkpt><trkpt lat="44.37150300745153" lon="11.287952269670376"><ele>368.0</ele><time>2026-04-06T11:19:37.001Z</time></trkpt><trkpt lat="44.37149652153798" lon="11.287864458674713"><ele>368.0</ele><time>2026-04-06T11:19:50.001Z</time></trkpt><trkpt lat="44.37148402815781" lon="11.287772541876329"><ele>368.0</ele><time>2026-04-06T11:20:19.001Z</time></trkpt><trkpt lat="44.37147310453407" lon="11.28767630616285"><ele>368.0</ele><time>2026-04-06T11:20:27.001Z</time></trkpt><trkpt lat="44.37144282027674" lon="11.287590187303763"><ele>368.0</ele><time>2026-04-06T11:20:34.001Z</time></trkpt><trkpt lat="44.37141402400903" lon="11.287494199014237"><ele>368.0</ele><time>2026-04-06T11:20:40.001Z</time></trkpt><trkpt lat="44.37138711870403" lon="11.287397204204398"><ele>368.0</ele><time>2026-04-06T11:20:45.001Z</time></trkpt><trkpt lat="44.37137508572962" lon="11.28730201080375"><ele>369.2857142857143</ele><time>2026-04-06T11:20:51.001Z</time></trkpt><trkpt lat="44.37134640824224" lon="11.287221156038376"><ele>370.57142857142856</ele><time>2026-04-06T11:20:57.001Z</time></trkpt><trkpt lat="44.37130988969876" lon="11.287136557538057"><ele>371.85714285714283</ele><time>2026-04-06T11:21:03.001Z</time></trkpt><trkpt lat="44.37125364472599" lon="11.287070400001086"><ele>373.1428571428571</ele><time>2026-04-06T11:21:09.001Z</time></trkpt><trkpt lat="44.371185890340676" lon="11.287010853879792"><ele>374.42857142857144</ele><time>2026-04-06T11:21:15.001Z</time></trkpt><trkpt lat="44.37112191532061" lon="11.286990792853427"><ele>375.71428571428567</ele><time>2026-04-06T11:21:20.001Z</time></trkpt><trkpt lat="44.371059690032084" lon="11.286955090705645"><ele>377.0</ele><time>2026-04-06T11:21:30.001Z</time></trkpt><trkpt lat="44.37100423066342" lon="11.286899060387027"><ele>376.99999999999994</ele><time>2026-04-06T11:21:39.001Z</time></trkpt><trkpt lat="44.37095808227114" lon="11.286832894233545"><ele>377.0</ele><time>2026-04-06T11:21:49.001Z</time></trkpt><trkpt lat="44.370906551015416" lon="11.286774489176889"><ele>377.0</ele><time>2026-04-06T11:21:56.001Z</time></trkpt><trkpt lat="44.37086611803226" lon="11.286705753739678"><ele>377.0</ele><time>2026-04-06T11:22:02.001Z</time></trkpt><trkpt lat="44.37082347351685" lon="11.28663713829162"><ele>377.0</ele><time>2026-04-06T11:22:11.001Z</time></trkpt><trkpt lat="44.37077973759922" lon="11.286561677821284"><ele>376.99999999999994</ele><time>2026-04-06T11:22:18.001Z</time></trkpt><trkpt lat="44.37073643463329" lon="11.286491035386742"><ele>377.0</ele><time>2026-04-06T11:22:25.001Z</time></trkpt><trkpt lat="44.37069588027635" lon="11.286412690391543"><ele>377.2857142857143</ele><time>2026-04-06T11:22:30.001Z</time></trkpt><trkpt lat="44.37066047530205" lon="11.286331402491609"><ele>377.57142857142856</ele><time>2026-04-06T11:22:36.001Z</time></trkpt><trkpt lat="44.370611728806" lon="11.28625715517363"><ele>377.8571428571429</ele><time>2026-04-06T11:22:41.001Z</time></trkpt><trkpt lat="44.37057422785058" lon="11.28618217924397"><ele>378.1428571428571</ele><time>2026-04-06T11:22:46.001Z</time></trkpt><trkpt lat="44.370548468439964" lon="11.286089579169063"><ele>378.42857142857144</ele><time>2026-04-06T11:22:53.001Z</time></trkpt><trkpt lat="44.37052231466827" lon="11.286004773900002"><ele>378.7142857142857</ele><time>2026-04-06T11:23:00.001Z</time></trkpt><trkpt lat="44.37048695470348" lon="11.285925128642463"><ele>379.0</ele><time>2026-04-06T11:23:06.001Z</time></trkpt><trkpt lat="44.37045960778651" lon="11.28584577164806"><ele>376.00000000000006</ele><time>2026-04-06T11:23:12Z</time></trkpt><trkpt lat="44.3704218491229" lon="11.285764224829192"><ele>373.0</ele><time>2026-04-06T11:23:19Z</time></trkpt><trkpt lat="44.37036880981433" lon="11.285705929137315"><ele>370.0</ele><time>2026-04-06T11:23:29Z</time></trkpt><trkpt lat="44.37032327747061" lon="11.28563944042578"><ele>367.0</ele><time>2026-04-06T11:23:38Z</time></trkpt><trkpt lat="44.37029183156447" lon="11.285553157383726"><ele>364.0</ele><time>2026-04-06T11:23:45Z</time></trkpt><trkpt lat="44.370272099234214" lon="11.285465139385597"><ele>361.00000000000006</ele><time>2026-04-06T11:23:51Z</time></trkpt><trkpt lat="44.37023264746746" lon="11.285378825931328"><ele>358.0</ele><time>2026-04-06T11:23:58Z</time></trkpt><trkpt lat="44.37018984985431" lon="11.285310228869076"><ele>356.42857142857144</ele><time>2026-04-06T11:24:08Z</time></trkpt><trkpt lat="44.370143539936535" lon="11.28523683657266"><ele>354.8571428571429</ele><time>2026-04-06T11:24:17Z</time></trkpt><trkpt lat="44.37009582176996" lon="11.285173267131736"><ele>353.28571428571433</ele><time>2026-04-06T11:24:25Z</time></trkpt><trkpt lat="44.3700870674412" lon="11.2850854272763"><ele>351.7142857142857</ele><time>2026-04-06T11:24:32Z</time></trkpt><trkpt lat="44.370105157829414" lon="11.284991529670801"><ele>350.1428571428571</ele><time>2026-04-06T11:24:42Z</time></trkpt><trkpt lat="44.370136877295955" lon="11.284910734100698"><ele>348.5714285714286</ele><time>2026-04-06T11:24:52Z</time></trkpt><trkpt lat="44.37018038951964" lon="11.284837751423717"><ele>347.0</ele><time>2026-04-06T11:25:00Z</time></trkpt><trkpt lat="44.370228640070266" lon="11.284778200674685"><ele>346.42857142857144</ele><time>2026-04-06T11:25:07.001Z</time></trkpt><trkpt lat="44.37027147875434" lon="11.284686792331401"><ele>345.85714285714283</ele><time>2026-04-06T11:25:13.001Z</time></trkpt><trkpt lat="44.37033106621163" lon="11.284627839461933"><ele>345.2857142857143</ele><time>2026-04-06T11:25:19Z</time></trkpt><trkpt lat="44.370366625065756" lon="11.284547170863886"><ele>344.7142857142857</ele><time>2026-04-06T11:25:25Z</time></trkpt><trkpt lat="44.370403715934884" lon="11.284460970897188"><ele>344.1428571428571</ele><time>2026-04-06T11:25:31Z</time></trkpt><trkpt lat="44.37044559156705" lon="11.284394870591576"><ele>343.57142857142856</ele><time>2026-04-06T11:25:37Z</time></trkpt><trkpt lat="44.37048790242113" lon="11.284321977237754"><ele>343.0</ele><time>2026-04-06T11:25:43Z</time></trkpt><trkpt lat="44.37053144156824" lon="11.2842408783034"><ele>343.0</ele><time>2026-04-06T11:25:51Z</time></trkpt><trkpt lat="44.37058962405532" lon="11.284200142316957"><ele>343.0</ele><time>2026-04-06T11:25:59Z</time></trkpt><trkpt lat="44.37063132437988" lon="11.284126980511468"><ele>343.0</ele><time>2026-04-06T11:26:07Z</time></trkpt><trkpt lat="44.37067371635874" lon="11.28403750559735"><ele>343.0</ele><time>2026-04-06T11:26:15Z</time></trkpt><trkpt lat="44.37071115093603" lon="11.283965078377086"><ele>343.0</ele><time>2026-04-06T11:26:22Z</time></trkpt><trkpt lat="44.37073922185677" lon="11.283883135026121"><ele>343.0</ele><time>2026-04-06T11:26:27Z</time></trkpt><trkpt lat="44.37078011188015" lon="11.283799911296507"><ele>343.0</ele><time>2026-04-06T11:26:33Z</time></trkpt><trkpt lat="44.370831006727784" lon="11.283737136923826"><ele>341.0</ele><time>2026-04-06T11:26:38Z</time></trkpt><trkpt lat="44.37089643175916" lon="11.283691656658323"><ele>339.0</ele><time>2026-04-06T11:26:43Z</time></trkpt><trkpt lat="44.370938630833784" lon="11.28362028332405"><ele>337.0</ele><time>2026-04-06T11:26:48Z</time></trkpt><trkpt lat="44.37099315948916" lon="11.283571924226313"><ele>335.0</ele><time>2026-04-06T11:26:53Z</time></trkpt><trkpt lat="44.37104170143117" lon="11.283497405032698"><ele>333.0</ele><time>2026-04-06T11:26:59.001Z</time></trkpt><trkpt lat="44.37108872724479" lon="11.283437212302838"><ele>331.0</ele><time>2026-04-06T11:27:04.001Z</time></trkpt><trkpt lat="44.37115165992721" lon="11.28337495191805"><ele>329.0</ele><time>2026-04-06T11:27:09.001Z</time></trkpt><trkpt lat="44.37120346436442" lon="11.283310554793166"><ele>329.0</ele><time>2026-04-06T11:27:16.001Z</time></trkpt><trkpt lat="44.371245845863314" lon="11.28323368564481"><ele>329.0</ele><time>2026-04-06T11:27:24.999Z</time></trkpt><trkpt lat="44.37125335761506" lon="11.283142445786169"><ele>329.0</ele><time>2026-04-06T11:27:33Z</time></trkpt><trkpt lat="44.37128170878913" lon="11.283038902045371"><ele>329.0</ele><time>2026-04-06T11:27:40Z</time></trkpt><trkpt lat="44.37131463190466" lon="11.282959639153184"><ele>329.0</ele><time>2026-04-06T11:27:48Z</time></trkpt><trkpt lat="44.37134783398711" lon="11.28286518863179"><ele>329.0</ele><time>2026-04-06T11:27:54Z</time></trkpt><trkpt lat="44.371388971239284" lon="11.282692762861048"><ele>327.0</ele><time>2026-04-06T11:28:20Z</time></trkpt><trkpt lat="44.371420852154564" lon="11.282540881989421"><ele>325.0</ele><time>2026-04-06T11:28:47Z</time></trkpt><trkpt lat="44.371456749687496" lon="11.28246118219983"><ele>323.0</ele><time>2026-04-06T11:29:56Z</time></trkpt><trkpt lat="44.37149868030848" lon="11.282394059248276"><ele>321.0</ele><time>2026-04-06T11:30:05Z</time></trkpt><trkpt lat="44.37150517624777" lon="11.282301094654942"><ele>319.0</ele><time>2026-04-06T11:30:21Z</time></trkpt><trkpt lat="44.37147817731576" lon="11.282218982032699"><ele>317.0</ele><time>2026-04-06T11:30:30Z</time></trkpt><trkpt lat="44.371438812380184" lon="11.282145515665231"><ele>315.0</ele><time>2026-04-06T11:30:47Z</time></trkpt><trkpt lat="44.37146660835845" lon="11.28206147749016"><ele>313.8333333333333</ele><time>2026-04-06T11:31:00Z</time></trkpt><trkpt lat="44.37149393734418" lon="11.281900359474701"><ele>312.6666666666667</ele><time>2026-04-06T11:31:26Z</time></trkpt><trkpt lat="44.371553037428455" lon="11.281863320168997"><ele>311.5</ele><time>2026-04-06T11:34:07Z</time></trkpt><trkpt lat="44.37162453781697" lon="11.281837588770085"><ele>310.33333333333337</ele><time>2026-04-06T11:35:29.001Z</time></trkpt><trkpt lat="44.3716755448398" lon="11.281771199155083"><ele>309.1666666666667</ele><time>2026-04-06T11:35:34.001Z</time></trkpt><trkpt lat="44.37173306273311" lon="11.28169936754839"><ele>308.0</ele><time>2026-04-06T11:35:39.001Z</time></trkpt><trkpt lat="44.37178510219114" lon="11.281637617254617"><ele>308.0</ele><time>2026-04-06T11:35:44.001Z</time></trkpt><trkpt lat="44.37183000286397" lon="11.281551767886363"><ele>308.0</ele><time>2026-04-06T11:35:50Z</time></trkpt><trkpt lat="44.37187337829548" lon="11.281473342141833"><ele>308.0</ele><time>2026-04-06T11:35:55Z</time></trkpt><trkpt lat="44.37192408386663" lon="11.281396025549911"><ele>308.0</ele><time>2026-04-06T11:36:01Z</time></trkpt><trkpt lat="44.37197002364924" lon="11.281316795801102"><ele>308.0</ele><time>2026-04-06T11:36:22Z</time></trkpt><trkpt lat="44.371985328102646" lon="11.281226903578203"><ele>308.0</ele><time>2026-04-06T11:36:27Z</time></trkpt><trkpt lat="44.37195574318108" lon="11.2811148627869"><ele>308.0</ele><time>2026-04-06T11:36:33Z</time></trkpt><trkpt lat="44.37196535411508" lon="11.281020847284921"><ele>307.14285714285717</ele><time>2026-04-06T11:36:57Z</time></trkpt><trkpt lat="44.37200276877568" lon="11.280942237005886"><ele>306.2857142857143</ele><time>2026-04-06T11:37:12Z</time></trkpt><trkpt lat="44.3720570407875" lon="11.28086307674823"><ele>305.42857142857144</ele><time>2026-04-06T11:37:18Z</time></trkpt><trkpt lat="44.372098052993" lon="11.280936151893762"><ele>304.57142857142856</ele><time>2026-04-06T11:37:28.001Z</time></trkpt><trkpt lat="44.37212713857292" lon="11.281021765393467"><ele>303.7142857142857</ele><time>2026-04-06T11:37:33.001Z</time></trkpt><trkpt lat="44.37218132625075" lon="11.281079081634003"><ele>302.8571428571429</ele><time>2026-04-06T11:37:53.999Z</time></trkpt><trkpt lat="44.37221474059671" lon="11.280993368011268"><ele>302.0</ele><time>2026-04-06T11:38:03.999Z</time></trkpt><trkpt lat="44.37222002387653" lon="11.280895440504514"><ele>304.28571428571433</ele><time>2026-04-06T11:38:09.999Z</time></trkpt><trkpt lat="44.37225574832357" lon="11.280811167377795"><ele>306.57142857142856</ele><time>2026-04-06T11:38:15.999Z</time></trkpt><trkpt lat="44.372282865099386" lon="11.280729197468643"><ele>308.8571428571429</ele><time>2026-04-06T11:38:20.999Z</time></trkpt><trkpt lat="44.37234018350116" lon="11.280684011630223"><ele>311.14285714285717</ele><time>2026-04-06T11:38:25.999Z</time></trkpt><trkpt lat="44.372411825002" lon="11.280658909161419"><ele>313.42857142857144</ele><time>2026-04-06T11:38:32.999Z</time></trkpt><trkpt lat="44.372488942136755" lon="11.28063571320521"><ele>315.7142857142857</ele><time>2026-04-06T11:38:37.999Z</time></trkpt><trkpt lat="44.37253767929416" lon="11.280572737320096"><ele>318.0</ele><time>2026-04-06T11:38:44Z</time></trkpt><trkpt lat="44.37258819752377" lon="11.28051822266821"><ele>318.0</ele><time>2026-04-06T11:38:49Z</time></trkpt><trkpt lat="44.372647482244275" lon="11.280466152474178"><ele>318.0</ele><time>2026-04-06T11:38:55Z</time></trkpt><trkpt lat="44.37269949639512" lon="11.280415593056409"><ele>318.0</ele><time>2026-04-06T11:39:00Z</time></trkpt><trkpt lat="44.37275305031824" lon="11.280364706550527"><ele>318.0</ele><time>2026-04-06T11:39:05Z</time></trkpt><trkpt lat="44.37280371621781" lon="11.280290586811915"><ele>318.0</ele><time>2026-04-06T11:39:11Z</time></trkpt><trkpt lat="44.372844695981044" lon="11.280215857500806"><ele>318.0</ele><time>2026-04-06T11:39:16Z</time></trkpt><trkpt lat="44.372870401994184" lon="11.280111900503837"><ele>318.0</ele><time>2026-04-06T11:39:23Z</time></trkpt><trkpt lat="44.37290025575976" lon="11.280016021784034"><ele>318.0</ele><time>2026-04-06T11:39:29Z</time></trkpt><trkpt lat="44.37293252147832" lon="11.279936623950558"><ele>318.0</ele><time>2026-04-06T11:39:34Z</time></trkpt><trkpt lat="44.37295486593477" lon="11.279849375272851"><ele>318.0</ele><time>2026-04-06T11:39:40Z</time></trkpt><trkpt lat="44.37299827847608" lon="11.279768126887102"><ele>318.0</ele><time>2026-04-06T11:39:46Z</time></trkpt><trkpt lat="44.37306160865006" lon="11.279732147173778"><ele>318.0</ele><time>2026-04-06T11:39:52Z</time></trkpt><trkpt lat="44.373099651213955" lon="11.279654796518031"><ele>318.0</ele><time>2026-04-06T11:39:57Z</time></trkpt><trkpt lat="44.37309951991736" lon="11.279564822830467"><ele>318.0</ele><time>2026-04-06T11:39:59.999Z</time></trkpt><trkpt lat="44.37304742043351" lon="11.27950895798928"><ele>319.2857142857143</ele><time>2026-04-06T11:40:05.999Z</time></trkpt><trkpt lat="44.37297466723846" lon="11.279509951820417"><ele>320.5714285714286</ele><time>2026-04-06T11:40:11.999Z</time></trkpt><trkpt lat="44.37291575779458" lon="11.279469105084765"><ele>321.8571428571429</ele><time>2026-04-06T11:40:24.999Z</time></trkpt><trkpt lat="44.37286392551361" lon="11.279391511794113"><ele>323.1428571428571</ele><time>2026-04-06T11:40:30.999Z</time></trkpt><trkpt lat="44.37280323242455" lon="11.279337895203179"><ele>324.42857142857144</ele><time>2026-04-06T11:40:35.999Z</time></trkpt><trkpt lat="44.37273048416667" lon="11.27929807811282"><ele>325.7142857142857</ele><time>2026-04-06T11:40:41.999Z</time></trkpt><trkpt lat="44.372660669808006" lon="11.279283215527023"><ele>327.0</ele><time>2026-04-06T11:40:47.999Z</time></trkpt><trkpt lat="44.37259326598162" lon="11.279238561420973"><ele>327.0</ele><time>2026-04-06T11:40:53.999Z</time></trkpt><trkpt lat="44.3725349322464" lon="11.27919362770932"><ele>327.0</ele><time>2026-04-06T11:40:58.999Z</time></trkpt><trkpt lat="44.37247858847047" lon="11.279130482923716"><ele>327.0</ele><time>2026-04-06T11:41:04.999Z</time></trkpt><trkpt lat="44.372431856559075" lon="11.279068249466942"><ele>327.0</ele><time>2026-04-06T11:41:09.999Z</time></trkpt><trkpt lat="44.372379863222086" lon="11.278992992390025"><ele>327.0</ele><time>2026-04-06T11:41:14.999Z</time></trkpt><trkpt lat="44.37233738578168" lon="11.278921966410858"><ele>327.0</ele><time>2026-04-06T11:41:19.999Z</time></trkpt><trkpt lat="44.37231153888969" lon="11.278821163868729"><ele>327.0</ele><time>2026-04-06T11:41:26Z</time></trkpt><trkpt lat="44.37227581153832" lon="11.278748495882038"><ele>329.2857142857143</ele><time>2026-04-06T11:41:31Z</time></trkpt><trkpt lat="44.37223689503991" lon="11.278678633499972"><ele>331.57142857142856</ele><time>2026-04-06T11:41:36Z</time></trkpt><trkpt lat="44.372201236544946" lon="11.278599249455567"><ele>333.8571428571429</ele><time>2026-04-06T11:41:42Z</time></trkpt><trkpt lat="44.37217012618139" lon="11.278507921407607"><ele>336.1428571428571</ele><time>2026-04-06T11:41:48Z</time></trkpt><trkpt lat="44.372148797710764" lon="11.27841593257895"><ele>338.42857142857144</ele><time>2026-04-06T11:41:53Z</time></trkpt><trkpt lat="44.372130964654914" lon="11.278317179913195"><ele>340.7142857142857</ele><time>2026-04-06T11:41:59Z</time></trkpt><trkpt lat="44.37211057784657" lon="11.278231377267643"><ele>343.0</ele><time>2026-04-06T11:42:04Z</time></trkpt><trkpt lat="44.37207868849705" lon="11.278143275888167"><ele>335.85714285714283</ele><time>2026-04-06T11:42:09.999Z</time></trkpt><trkpt lat="44.372036847202885" lon="11.27806870657674"><ele>328.7142857142857</ele><time>2026-04-06T11:42:15.999Z</time></trkpt><trkpt lat="44.371996768593114" lon="11.277981818270963"><ele>321.57142857142856</ele><time>2026-04-06T11:42:21.999Z</time></trkpt><trkpt lat="44.372000446697214" lon="11.277879225120826"><ele>314.42857142857144</ele><time>2026-04-06T11:42:26.999Z</time></trkpt><trkpt lat="44.37200063744011" lon="11.277783328707788"><ele>307.2857142857143</ele><time>2026-04-06T11:42:31.999Z</time></trkpt><trkpt lat="44.3719988169971" lon="11.277693291998126"><ele>300.1428571428571</ele><time>2026-04-06T11:42:36.999Z</time></trkpt><trkpt lat="44.37200132145204" lon="11.277591628506825"><ele>293.0</ele><time>2026-04-06T11:42:42Z</time></trkpt><trkpt lat="44.372003537231166" lon="11.27749309706394"><ele>292.99999999999994</ele><time>2026-04-06T11:42:47Z</time></trkpt><trkpt lat="44.372024615757034" lon="11.277401203770449"><ele>293.0</ele><time>2026-04-06T11:42:53Z</time></trkpt><trkpt lat="44.372060876184776" lon="11.277311253781535"><ele>293.0</ele><time>2026-04-06T11:42:58Z</time></trkpt><trkpt lat="44.37210607853749" lon="11.277232229629009"><ele>293.0</ele><time>2026-04-06T11:43:03Z</time></trkpt><trkpt lat="44.37215690486882" lon="11.277160191319194"><ele>293.0</ele><time>2026-04-06T11:43:09Z</time></trkpt><trkpt lat="44.372206099331926" lon="11.277093133452873"><ele>292.99999999999994</ele><time>2026-04-06T11:43:14Z</time></trkpt><trkpt lat="44.37227076396514" lon="11.277042511909293"><ele>293.0</ele><time>2026-04-06T11:43:21Z</time></trkpt><trkpt lat="44.372328320692006" lon="11.277002103504167"><ele>295.57142857142856</ele><time>2026-04-06T11:43:26Z</time></trkpt><trkpt lat="44.37237917883808" lon="11.276940705475267"><ele>298.1428571428571</ele><time>2026-04-06T11:43:31Z</time></trkpt><trkpt lat="44.37243231752437" lon="11.276871799295678"><ele>300.71428571428567</ele><time>2026-04-06T11:43:36Z</time></trkpt><trkpt lat="44.372475998397285" lon="11.27678845317184"><ele>303.2857142857143</ele><time>2026-04-06T11:43:41Z</time></trkpt><trkpt lat="44.37251936923523" lon="11.276701942600944"><ele>305.8571428571429</ele><time>2026-04-06T11:43:47Z</time></trkpt><trkpt lat="44.3725387358108" lon="11.276606322323586"><ele>308.4285714285714</ele><time>2026-04-06T11:43:54Z</time></trkpt><trkpt lat="44.37255615785765" lon="11.276508674873465"><ele>311.0</ele><time>2026-04-06T11:44:00Z</time></trkpt><trkpt lat="44.37258215839287" lon="11.27641418034676"><ele>311.0</ele><time>2026-04-06T11:44:06Z</time></trkpt><trkpt lat="44.372615178724836" lon="11.276331717335532"><ele>311.0</ele><time>2026-04-06T11:44:12Z</time></trkpt><trkpt lat="44.37265352055243" lon="11.27625911684703"><ele>311.0</ele><time>2026-04-06T11:44:18Z</time></trkpt><trkpt lat="44.37268930692621" lon="11.276185282191596"><ele>311.0</ele><time>2026-04-06T11:44:24Z</time></trkpt><trkpt lat="44.372637765285894" lon="11.276109841721343"><ele>311.0</ele><time>2026-04-06T11:44:30Z</time></trkpt><trkpt lat="44.37258728226294" lon="11.27604609281288"><ele>311.0</ele><time>2026-04-06T11:44:37Z</time></trkpt><trkpt lat="44.37253764942293" lon="11.275980833709486"><ele>311.0</ele><time>2026-04-06T11:44:42Z</time></trkpt><trkpt lat="44.37248394296739" lon="11.275915438516115"><ele>311.0</ele><time>2026-04-06T11:44:47Z</time></trkpt><trkpt lat="44.372473668457424" lon="11.275818694597886"><ele>311.0</ele><time>2026-04-06T11:44:52Z</time></trkpt><trkpt lat="44.372472173154286" lon="11.275715186620966"><ele>311.0</ele><time>2026-04-06T11:44:57Z</time></trkpt><trkpt lat="44.372473205024725" lon="11.275618863373293"><ele>311.0</ele><time>2026-04-06T11:45:03Z</time></trkpt><trkpt lat="44.37248582258373" lon="11.2755247501767"><ele>311.0</ele><time>2026-04-06T11:45:08Z</time></trkpt><trkpt lat="44.37252838574155" lon="11.275451611483915"><ele>311.0</ele><time>2026-04-06T11:45:14Z</time></trkpt><trkpt lat="44.37257638393771" lon="11.275391860864513"><ele>311.0</ele><time>2026-04-06T11:45:20Z</time></trkpt><trkpt lat="44.372600276024066" lon="11.275303650848915"><ele>309.0</ele><time>2026-04-06T11:45:26Z</time></trkpt><trkpt lat="44.37264086665014" lon="11.275222893678825"><ele>307.0</ele><time>2026-04-06T11:45:33Z</time></trkpt><trkpt lat="44.37269403439172" lon="11.275147354935262"><ele>305.0</ele><time>2026-04-06T11:45:39.001Z</time></trkpt><trkpt lat="44.37273979047135" lon="11.275078095719726"><ele>303.0</ele><time>2026-04-06T11:45:44.001Z</time></trkpt><trkpt lat="44.37278845699532" lon="11.275005789074521"><ele>301.0</ele><time>2026-04-06T11:45:50.001Z</time></trkpt><trkpt lat="44.37282881971799" lon="11.274932940791457"><ele>299.0</ele><time>2026-04-06T11:45:56.001Z</time></trkpt><trkpt lat="44.372880751318895" lon="11.274869627171556"><ele>297.0</ele><time>2026-04-06T11:46:02.001Z</time></trkpt><trkpt lat="44.372935945137854" lon="11.274819380823631"><ele>295.14285714285717</ele><time>2026-04-06T11:46:08.001Z</time></trkpt><trkpt lat="44.372981666738426" lon="11.274753102597705"><ele>293.28571428571433</ele><time>2026-04-06T11:46:14.001Z</time></trkpt><trkpt lat="44.37303684033475" lon="11.274682547183616"><ele>291.42857142857144</ele><time>2026-04-06T11:46:20Z</time></trkpt><trkpt lat="44.37310118221086" lon="11.274616359616676"><ele>289.57142857142856</ele><time>2026-04-06T11:46:26Z</time></trkpt><trkpt lat="44.373159202478476" lon="11.274557268298501"><ele>287.71428571428567</ele><time>2026-04-06T11:46:32Z</time></trkpt><trkpt lat="44.37321643987482" lon="11.274500247729902"><ele>285.85714285714283</ele><time>2026-04-06T11:46:38Z</time></trkpt><trkpt lat="44.37328493291248" lon="11.274451480379335"><ele>284.0</ele><time>2026-04-06T11:46:44Z</time></trkpt><trkpt lat="44.37333545557913" lon="11.274384761581018"><ele>288.7142857142857</ele><time>2026-04-06T11:46:49Z</time></trkpt><trkpt lat="44.37340051409401" lon="11.27435603633978"><ele>293.4285714285714</ele><time>2026-04-06T11:46:54Z</time></trkpt><trkpt lat="44.37344778574177" lon="11.27429705983707"><ele>298.1428571428571</ele><time>2026-04-06T11:46:59Z</time></trkpt><trkpt lat="44.373496994369575" lon="11.27423953580704"><ele>302.85714285714283</ele><time>2026-04-06T11:47:05Z</time></trkpt><trkpt lat="44.37356643042533" lon="11.274201265138911"><ele>307.57142857142856</ele><time>2026-04-06T11:47:11Z</time></trkpt><trkpt lat="44.37363453357843" lon="11.274157923748511"><ele>312.2857142857143</ele><time>2026-04-06T11:47:17Z</time></trkpt><trkpt lat="44.37368136594465" lon="11.274088715807284"><ele>317.0</ele><time>2026-04-06T11:47:22Z</time></trkpt><trkpt lat="44.373727477936356" lon="11.274012812775787"><ele>317.0</ele><time>2026-04-06T11:47:28Z</time></trkpt><trkpt lat="44.373781976045436" lon="11.27396170071714"><ele>317.0</ele><time>2026-04-06T11:47:33Z</time></trkpt><trkpt lat="44.37384553908371" lon="11.273909669020734"><ele>317.0</ele><time>2026-04-06T11:47:39.001Z</time></trkpt><trkpt lat="44.373902406143486" lon="11.27386368210795"><ele>317.0</ele><time>2026-04-06T11:47:44.001Z</time></trkpt><trkpt lat="44.37395610615053" lon="11.273782606275192"><ele>317.0</ele><time>2026-04-06T11:47:50.001Z</time></trkpt><trkpt lat="44.37399286403814" lon="11.273709276264906"><ele>317.0</ele><time>2026-04-06T11:47:56.001Z</time></trkpt><trkpt lat="44.374052548633024" lon="11.273679929235032"><ele>317.0</ele><time>2026-04-06T11:48:01.001Z</time></trkpt><trkpt lat="44.374107910136615" lon="11.273624507946877"><ele>320.0</ele><time>2026-04-06T11:48:06.001Z</time></trkpt><trkpt lat="44.3741530087552" lon="11.27355932625775"><ele>323.0</ele><time>2026-04-06T11:48:12.001Z</time></trkpt><trkpt lat="44.37419111349906" lon="11.273488623736894"><ele>326.0</ele><time>2026-04-06T11:48:18.001Z</time></trkpt><trkpt lat="44.37423089759924" lon="11.27341169447925"><ele>329.0</ele><time>2026-04-06T11:48:22.998Z</time></trkpt><trkpt lat="44.37427723172971" lon="11.27334176641562"><ele>332.0</ele><time>2026-04-06T11:48:38.999Z</time></trkpt><trkpt lat="44.37424743679989" lon="11.273260432861214"><ele>335.0</ele><time>2026-04-06T11:48:45.999Z</time></trkpt><trkpt lat="44.37420291001062" lon="11.273175741292555"><ele>338.0</ele><time>2026-04-06T11:48:51.999Z</time></trkpt><trkpt lat="44.374242793939594" lon="11.273105141287154"><ele>338.0</ele><time>2026-04-06T11:48:57.999Z</time></trkpt><trkpt lat="44.37431305225545" lon="11.273119877491592"><ele>338.0</ele><time>2026-04-06T11:49:03.999Z</time></trkpt><trkpt lat="44.37437704928104" lon="11.27312383980291"><ele>338.0</ele><time>2026-04-06T11:49:09.999Z</time></trkpt><trkpt lat="44.37444607529496" lon="11.273113728514486"><ele>338.0</ele><time>2026-04-06T11:49:15.999Z</time></trkpt><trkpt lat="44.374520540415205" lon="11.273123772664333"><ele>338.0</ele><time>2026-04-06T11:49:22Z</time></trkpt><trkpt lat="44.37458892022438" lon="11.273112017696139"><ele>338.0</ele><time>2026-04-06T11:49:27Z</time></trkpt><trkpt lat="44.374644684102066" lon="11.273065372223943"><ele>338.0</ele><time>2026-04-06T11:49:32Z</time></trkpt><trkpt lat="44.374700785032935" lon="11.27302415018167"><ele>341.2857142857143</ele><time>2026-04-06T11:49:37Z</time></trkpt><trkpt lat="44.374763081507034" lon="11.273041280278658"><ele>344.57142857142856</ele><time>2026-04-06T11:49:42Z</time></trkpt><trkpt lat="44.37482992472055" lon="11.273071745421618"><ele>347.8571428571429</ele><time>2026-04-06T11:49:48Z</time></trkpt><trkpt lat="44.37489326778971" lon="11.273100543478108"><ele>351.1428571428571</ele><time>2026-04-06T11:49:54Z</time></trkpt><trkpt lat="44.37493863353529" lon="11.273162205678418"><ele>354.4285714285714</ele><time>2026-04-06T11:50:00Z</time></trkpt><trkpt lat="44.37496872281489" lon="11.273252648901124"><ele>357.7142857142857</ele><time>2026-04-06T11:50:06Z</time></trkpt><trkpt lat="44.37502320821907" lon="11.273305844035834"><ele>361.0</ele><time>2026-04-06T11:51:24Z</time></trkpt><trkpt lat="44.375088669554216" lon="11.273318092232074"><ele>361.0</ele><time>2026-04-06T11:51:29Z</time></trkpt><trkpt lat="44.37514633553059" lon="11.273379389947157"><ele>361.0</ele><time>2026-04-06T11:51:35Z</time></trkpt><trkpt lat="44.375176277030626" lon="11.273466014863965"><ele>361.0</ele><time>2026-04-06T11:51:41Z</time></trkpt><trkpt lat="44.375176154468555" lon="11.27356246622638"><ele>361.0</ele><time>2026-04-06T11:51:47Z</time></trkpt><trkpt lat="44.37513451025765" lon="11.273648076762223"><ele>361.0</ele><time>2026-04-06T11:51:53Z</time></trkpt><trkpt lat="44.37513794641506" lon="11.273741266328315"><ele>361.0</ele><time>2026-04-06T11:51:59Z</time></trkpt><trkpt lat="44.375143829128326" lon="11.273832748575087"><ele>361.0</ele><time>2026-04-06T11:52:05Z</time></trkpt><trkpt lat="44.3750998813541" lon="11.273915080688573"><ele>361.8571428571429</ele><time>2026-04-06T11:52:11Z</time></trkpt><trkpt lat="44.37505558983583" lon="11.273992105191596"><ele>362.71428571428567</ele><time>2026-04-06T11:52:16Z</time></trkpt><trkpt lat="44.37501387735876" lon="11.274065703653145"><ele>363.57142857142856</ele><time>2026-04-06T11:52:21Z</time></trkpt><trkpt lat="44.37508145198011" lon="11.27409140760001"><ele>364.42857142857144</ele><time>2026-04-06T11:52:30.001Z</time></trkpt><trkpt lat="44.37513780990802" lon="11.274030685407993"><ele>365.28571428571433</ele><time>2026-04-06T11:52:35.999Z</time></trkpt><trkpt lat="44.375205392669564" lon="11.274004306139073"><ele>366.1428571428571</ele><time>2026-04-06T11:52:41.999Z</time></trkpt><trkpt lat="44.37527171312281" lon="11.27401866334074"><ele>367.0</ele><time>2026-04-06T11:52:46.999Z</time></trkpt><trkpt lat="44.37533299520181" lon="11.274049549273458"><ele>367.0</ele><time>2026-04-06T11:52:52.999Z</time></trkpt><trkpt lat="44.37539880684723" lon="11.274061786447044"><ele>367.0</ele><time>2026-04-06T11:52:58.999Z</time></trkpt><trkpt lat="44.375465014369695" lon="11.27401817651222"><ele>367.0</ele><time>2026-04-06T11:53:06Z</time></trkpt><trkpt lat="44.37553090249529" lon="11.274003434740203"><ele>367.0</ele><time>2026-04-06T11:53:13Z</time></trkpt><trkpt lat="44.375585350545975" lon="11.274057294751978"><ele>367.0</ele><time>2026-04-06T11:53:50Z</time></trkpt><trkpt lat="44.37562656724747" lon="11.274125186247854"><ele>367.0</ele><time>2026-04-06T11:53:56Z</time></trkpt><trkpt lat="44.37568678819887" lon="11.274179273964826"><ele>367.0</ele><time>2026-04-06T11:54:03Z</time></trkpt><trkpt lat="44.375758809335565" lon="11.27420806791672"><ele>369.4285714285714</ele><time>2026-04-06T11:54:09Z</time></trkpt><trkpt lat="44.37582245085824" lon="11.274219898357586"><ele>371.8571428571429</ele><time>2026-04-06T11:54:14Z</time></trkpt><trkpt lat="44.375892170620446" lon="11.27421892894605"><ele>374.2857142857143</ele><time>2026-04-06T11:54:19.001Z</time></trkpt><trkpt lat="44.37596857676057" lon="11.274243220190906"><ele>376.71428571428567</ele><time>2026-04-06T11:54:24.001Z</time></trkpt><trkpt lat="44.376011339950225" lon="11.274309799425179"><ele>379.1428571428571</ele><time>2026-04-06T11:54:43.999Z</time></trkpt><trkpt lat="44.376035553575754" lon="11.274400016897127"><ele>381.57142857142856</ele><time>2026-04-06T11:54:49.999Z</time></trkpt><trkpt lat="44.376066014442536" lon="11.274491461366058"><ele>384.0</ele><time>2026-04-06T11:54:55.999Z</time></trkpt><trkpt lat="44.37611208949752" lon="11.274567811295555"><ele>383.99999999999994</ele><time>2026-04-06T11:55:02.999Z</time></trkpt><trkpt lat="44.37616485628715" lon="11.2746347732766"><ele>384.0</ele><time>2026-04-06T11:55:09Z</time></trkpt><trkpt lat="44.37620800990718" lon="11.27470109094986"><ele>384.0</ele><time>2026-04-06T11:55:15Z</time></trkpt><trkpt lat="44.37621326609286" lon="11.274802299786364"><ele>384.0</ele><time>2026-04-06T11:55:20Z</time></trkpt><trkpt lat="44.37622886004479" lon="11.274890114655086"><ele>384.0</ele><time>2026-04-06T11:55:25Z</time></trkpt><trkpt lat="44.37623938510654" lon="11.274991027360535"><ele>383.99999999999994</ele><time>2026-04-06T11:55:30Z</time></trkpt><trkpt lat="44.37623807917496" lon="11.275085413544234"><ele>384.0</ele><time>2026-04-06T11:55:35Z</time></trkpt><trkpt lat="44.37623188328035" lon="11.275194289953072"><ele>386.4285714285714</ele><time>2026-04-06T11:55:40Z</time></trkpt><trkpt lat="44.37621342991302" lon="11.275287934423769"><ele>388.85714285714283</ele><time>2026-04-06T11:55:45Z</time></trkpt><trkpt lat="44.37623921434264" lon="11.27538206065127"><ele>391.2857142857143</ele><time>2026-04-06T11:55:52Z</time></trkpt><trkpt lat="44.37625162153" lon="11.27547754460278"><ele>393.71428571428567</ele><time>2026-04-06T11:55:57Z</time></trkpt><trkpt lat="44.37625338044516" lon="11.275570969874774"><ele>396.14285714285717</ele><time>2026-04-06T11:56:03Z</time></trkpt><trkpt lat="44.37627393968201" lon="11.275659291775836"><ele>398.57142857142856</ele><time>2026-04-06T11:56:08Z</time></trkpt><trkpt lat="44.37630426999023" lon="11.275748602562583"><ele>401.0</ele><time>2026-04-06T11:56:13Z</time></trkpt><trkpt lat="44.37630620809771" lon="11.275845780124204"><ele>402.42857142857144</ele><time>2026-04-06T11:56:18.001Z</time></trkpt><trkpt lat="44.37632079072021" lon="11.275947513442336"><ele>403.8571428571429</ele><time>2026-04-06T11:56:23.001Z</time></trkpt><trkpt lat="44.37634443558562" lon="11.27604260128494"><ele>405.2857142857143</ele><time>2026-04-06T11:56:29.001Z</time></trkpt><trkpt lat="44.37636474185062" lon="11.27612660930487"><ele>406.7142857142857</ele><time>2026-04-06T11:56:34.001Z</time></trkpt><trkpt lat="44.376378818247716" lon="11.27623827898908"><ele>408.1428571428571</ele><time>2026-04-06T11:56:43.001Z</time></trkpt><trkpt lat="44.37639446705824" lon="11.276323712184077"><ele>409.57142857142856</ele><time>2026-04-06T11:56:48Z</time></trkpt><trkpt lat="44.376403712940615" lon="11.276416701935494"><ele>411.0</ele><time>2026-04-06T11:56:53Z</time></trkpt><trkpt lat="44.376416110254624" lon="11.276519958691495"><ele>407.2857142857143</ele><time>2026-04-06T11:56:58Z</time></trkpt><trkpt lat="44.376451576911855" lon="11.276605274084213"><ele>403.57142857142856</ele><time>2026-04-06T11:57:03Z</time></trkpt><trkpt lat="44.37646352268309" lon="11.276698431108265"><ele>399.8571428571429</ele><time>2026-04-06T11:57:08Z</time></trkpt><trkpt lat="44.376482260449244" lon="11.276791857139106"><ele>396.1428571428571</ele><time>2026-04-06T11:57:13Z</time></trkpt><trkpt lat="44.37648518151112" lon="11.276891774600054"><ele>392.42857142857144</ele><time>2026-04-06T11:57:18Z</time></trkpt><trkpt lat="44.376500178805635" lon="11.276984193845266"><ele>388.7142857142857</ele><time>2026-04-06T11:57:23Z</time></trkpt><trkpt lat="44.37649799979852" lon="11.277084108874913"><ele>385.0</ele><time>2026-04-06T11:57:29Z</time></trkpt><trkpt lat="44.3764970904377" lon="11.277177238207011"><ele>386.0</ele><time>2026-04-06T11:57:34Z</time></trkpt><trkpt lat="44.37649614323222" lon="11.277273334992639"><ele>387.0</ele><time>2026-04-06T11:57:39Z</time></trkpt><trkpt lat="44.3764995236213" lon="11.277361783674822"><ele>388.0</ele><time>2026-04-06T11:57:43Z</time></trkpt><trkpt lat="44.376494501317815" lon="11.277456482587295"><ele>389.0</ele><time>2026-04-06T11:57:48Z</time></trkpt><trkpt lat="44.37648225512451" lon="11.277559920754687"><ele>390.0</ele><time>2026-04-06T11:58:33.002Z</time></trkpt><trkpt lat="44.37648993385962" lon="11.27765283233021"><ele>391.0</ele><time>2026-04-06T11:58:39.002Z</time></trkpt><trkpt lat="44.37652067797358" lon="11.277735639486373"><ele>392.0</ele><time>2026-04-06T11:58:44.002Z</time></trkpt><trkpt lat="44.37656023371387" lon="11.277808909671274"><ele>392.0</ele><time>2026-04-06T11:58:49.002Z</time></trkpt><trkpt lat="44.37659612720984" lon="11.277881398225814"><ele>392.0</ele><time>2026-04-06T11:58:54.001Z</time></trkpt><trkpt lat="44.37662911320708" lon="11.277972188738426"><ele>392.0</ele><time>2026-04-06T11:59:00.001Z</time></trkpt><trkpt lat="44.37666509044052" lon="11.278061101741102"><ele>392.0</ele><time>2026-04-06T11:59:06.001Z</time></trkpt><trkpt lat="44.37669331394903" lon="11.2781423960985"><ele>392.0</ele><time>2026-04-06T11:59:11.001Z</time></trkpt><trkpt lat="44.376708647152846" lon="11.278243421809428"><ele>392.0</ele><time>2026-04-06T11:59:17.001Z</time></trkpt><trkpt lat="44.376723573978154" lon="11.278349595750733"><ele>392.0</ele><time>2026-04-06T11:59:23.001Z</time></trkpt><trkpt lat="44.37672257596104" lon="11.27844321447031"><ele>391.42857142857144</ele><time>2026-04-06T11:59:29.001Z</time></trkpt><trkpt lat="44.37671785778763" lon="11.278532973545536"><ele>390.8571428571429</ele><time>2026-04-06T11:59:34.001Z</time></trkpt><trkpt lat="44.37671544988502" lon="11.278622250095001"><ele>390.2857142857143</ele><time>2026-04-06T11:59:39.001Z</time></trkpt><trkpt lat="44.37669618794421" lon="11.27871161780397"><ele>389.7142857142857</ele><time>2026-04-06T11:59:44.001Z</time></trkpt><trkpt lat="44.37666440592281" lon="11.278791319876554"><ele>389.14285714285717</ele><time>2026-04-06T11:59:49.001Z</time></trkpt><trkpt lat="44.376624113900846" lon="11.278859815278512"><ele>388.57142857142856</ele><time>2026-04-06T11:59:54.002Z</time></trkpt><trkpt lat="44.37657535249764" lon="11.278935939305365"><ele>388.0</ele><time>2026-04-06T11:59:59.002Z</time></trkpt><trkpt lat="44.3765300620879" lon="11.279000668792067"><ele>387.2857142857143</ele><time>2026-04-06T12:00:04.002Z</time></trkpt><trkpt lat="44.376471900196805" lon="11.279056636251601"><ele>386.5714285714286</ele><time>2026-04-06T12:00:09.002Z</time></trkpt><trkpt lat="44.3764044988217" lon="11.2791056656997"><ele>385.8571428571429</ele><time>2026-04-06T12:00:15.002Z</time></trkpt><trkpt lat="44.37634734656574" lon="11.279147710392438"><ele>385.1428571428571</ele><time>2026-04-06T12:00:20.002Z</time></trkpt><trkpt lat="44.37628598484181" lon="11.279192137371847"><ele>384.42857142857144</ele><time>2026-04-06T12:00:25.002Z</time></trkpt><trkpt lat="44.37622659982615" lon="11.27923207612808"><ele>383.7142857142857</ele><time>2026-04-06T12:00:30.002Z</time></trkpt><trkpt lat="44.37615801388796" lon="11.27927178266717"><ele>383.0</ele><time>2026-04-06T12:00:36.002Z</time></trkpt><trkpt lat="44.376093566697776" lon="11.279300709405975"><ele>382.2857142857143</ele><time>2026-04-06T12:00:42.002Z</time></trkpt><trkpt lat="44.3760318704077" lon="11.279321797464215"><ele>381.57142857142856</ele><time>2026-04-06T12:00:48.002Z</time></trkpt><trkpt lat="44.3759641784351" lon="11.279339808119483"><ele>380.8571428571429</ele><time>2026-04-06T12:00:54.002Z</time></trkpt><trkpt lat="44.37589883155132" lon="11.27937042230745"><ele>380.1428571428571</ele><time>2026-04-06T12:01:00.001Z</time></trkpt><trkpt lat="44.375846920237386" lon="11.279424822518692"><ele>379.42857142857144</ele><time>2026-04-06T12:01:06.001Z</time></trkpt><trkpt lat="44.375824793632525" lon="11.279512619648592"><ele>378.7142857142857</ele><time>2026-04-06T12:01:12.001Z</time></trkpt><trkpt lat="44.37583678441548" lon="11.27960497441968"><ele>378.0</ele><time>2026-04-06T12:01:18.001Z</time></trkpt><trkpt lat="44.37585722461682" lon="11.279693599743625"><ele>377.85714285714283</ele><time>2026-04-06T12:01:23.001Z</time></trkpt><trkpt lat="44.37587848363599" lon="11.279785033924684"><ele>377.7142857142857</ele><time>2026-04-06T12:01:28.001Z</time></trkpt><trkpt lat="44.37589624672647" lon="11.279882113710663"><ele>377.57142857142856</ele><time>2026-04-06T12:01:34.001Z</time></trkpt><trkpt lat="44.375925469253374" lon="11.279968973406392"><ele>377.42857142857144</ele><time>2026-04-06T12:01:39.001Z</time></trkpt><trkpt lat="44.37594876161702" lon="11.280058839295672"><ele>377.2857142857143</ele><time>2026-04-06T12:01:45.001Z</time></trkpt><trkpt lat="44.37596653265158" lon="11.280157004389894"><ele>377.1428571428571</ele><time>2026-04-06T12:01:51.001Z</time></trkpt><trkpt lat="44.37599707172007" lon="11.280241380604089"><ele>377.0</ele><time>2026-04-06T12:01:57.001Z</time></trkpt><trkpt lat="44.376055619867145" lon="11.280296117816997"><ele>376.99999999999994</ele><time>2026-04-06T12:02:04.002Z</time></trkpt><trkpt lat="44.37611883115969" lon="11.280237958055377"><ele>377.0</ele><time>2026-04-06T12:02:10.002Z</time></trkpt><trkpt lat="44.37618621259413" lon="11.280191225542193"><ele>377.0</ele><time>2026-04-06T12:02:17.002Z</time></trkpt><trkpt lat="44.37625118938612" lon="11.280134376078388"><ele>377.0</ele><time>2026-04-06T12:02:23.002Z</time></trkpt><trkpt lat="44.37631144261061" lon="11.280093011570123"><ele>377.0</ele><time>2026-04-06T12:02:28.002Z</time></trkpt><trkpt lat="44.37636644387464" lon="11.28004818243621"><ele>376.99999999999994</ele><time>2026-04-06T12:02:33.002Z</time></trkpt><trkpt lat="44.37642492857264" lon="11.279982061608516"><ele>377.0</ele><time>2026-04-06T12:02:39.002Z</time></trkpt><trkpt lat="44.37649012049943" lon="11.279940470565109"><ele>376.4285714285714</ele><time>2026-04-06T12:02:44.002Z</time></trkpt><trkpt lat="44.376569110837" lon="11.279939398945965"><ele>375.85714285714283</ele><time>2026-04-06T12:02:57.002Z</time></trkpt><trkpt lat="44.37663131159118" lon="11.279888860809189"><ele>375.2857142857143</ele><time>2026-04-06T12:03:05.001Z</time></trkpt><trkpt lat="44.37668804516985" lon="11.279832012711482"><ele>374.71428571428567</ele><time>2026-04-06T12:03:14.001Z</time></trkpt><trkpt lat="44.376766972047065" lon="11.279795367482064"><ele>374.14285714285717</ele><time>2026-04-06T12:03:32.001Z</time></trkpt><trkpt lat="44.37683405191557" lon="11.27976833172419"><ele>373.57142857142856</ele><time>2026-04-06T12:03:53.001Z</time></trkpt><trkpt lat="44.376902345256795" lon="11.27977017171879"><ele>373.0</ele><time>2026-04-06T12:04:03.001Z</time></trkpt><trkpt lat="44.37697816629768" lon="11.279759159339449"><ele>373.0</ele><time>2026-04-06T12:04:13.001Z</time></trkpt><trkpt lat="44.377037903145826" lon="11.279794071471379"><ele>373.0</ele><time>2026-04-06T12:04:35.002Z</time></trkpt><trkpt lat="44.377096894509435" lon="11.279843584245608"><ele>373.0</ele><time>2026-04-06T12:04:42.002Z</time></trkpt><trkpt lat="44.377160866087834" lon="11.279871662657259"><ele>373.0</ele><time>2026-04-06T12:04:50.002Z</time></trkpt><trkpt lat="44.37722125715828" lon="11.279906546083634"><ele>373.0</ele><time>2026-04-06T12:04:56.002Z</time></trkpt><trkpt lat="44.3772833224893" lon="11.279945649385748"><ele>373.0</ele><time>2026-04-06T12:05:02.002Z</time></trkpt><trkpt lat="44.377336603830386" lon="11.279992929408094"><ele>373.0</ele><time>2026-04-06T12:05:09.002Z</time></trkpt><trkpt lat="44.37739495148136" lon="11.28004098328897"><ele>370.14285714285717</ele><time>2026-04-06T12:05:14.001Z</time></trkpt><trkpt lat="44.37745119529166" lon="11.280095140180565"><ele>367.28571428571433</ele><time>2026-04-06T12:05:21.001Z</time></trkpt><trkpt lat="44.37750724702324" lon="11.280161446635846"><ele>364.42857142857144</ele><time>2026-04-06T12:05:27.001Z</time></trkpt><trkpt lat="44.377562510000615" lon="11.280204001253871"><ele>361.57142857142856</ele><time>2026-04-06T12:05:34.001Z</time></trkpt><trkpt lat="44.37762368908934" lon="11.280243433396704"><ele>358.7142857142857</ele><time>2026-04-06T12:05:43.001Z</time></trkpt><trkpt lat="44.37766104988483" lon="11.280314872092031"><ele>355.85714285714283</ele><time>2026-04-06T12:05:59.001Z</time></trkpt><trkpt lat="44.37770091675867" lon="11.280392073627993"><ele>353.0</ele><time>2026-04-06T12:06:10.001Z</time></trkpt><trkpt lat="44.37773668540513" lon="11.280312320621919"><ele>353.0</ele><time>2026-04-06T12:06:19.001Z</time></trkpt><trkpt lat="44.37772429964964" lon="11.280223077940004"><ele>353.0</ele><time>2026-04-06T12:06:29.001Z</time></trkpt><trkpt lat="44.377697203409824" lon="11.280143230182281"><ele>353.0</ele><time>2026-04-06T12:06:55.001Z</time></trkpt><trkpt lat="44.37772326520187" lon="11.280154229512533"><ele>353.0</ele><time>2026-04-06T12:10:30.001Z</time></trkpt><trkpt lat="44.3777438880153" lon="11.280239877726492"><ele>353.0</ele><time>2026-04-06T12:10:39.001Z</time></trkpt><trkpt lat="44.37774560875756" lon="11.280328514699695"><ele>353.0</ele><time>2026-04-06T12:10:46.001Z</time></trkpt><trkpt lat="44.37767054442492" lon="11.280334393574304"><ele>353.0</ele><time>2026-04-06T12:10:53.001Z</time></trkpt><trkpt lat="44.37761652485948" lon="11.280260121773876"><ele>353.0</ele><time>2026-04-06T12:11:40Z</time></trkpt><trkpt lat="44.37756975344755" lon="11.280193748002025"><ele>353.0</ele><time>2026-04-06T12:11:54Z</time></trkpt><trkpt lat="44.37750089283281" lon="11.280183743279542"><ele>353.0</ele><time>2026-04-06T12:12:18.001Z</time></trkpt><trkpt lat="44.3774456631353" lon="11.280107417550285"><ele>353.0</ele><time>2026-04-06T12:12:23.001Z</time></trkpt><trkpt lat="44.377399889271594" lon="11.280044029610055"><ele>353.0</ele><time>2026-04-06T12:12:28.001Z</time></trkpt><trkpt lat="44.37733439770743" lon="11.2799939831639"><ele>353.0</ele><time>2026-04-06T12:12:34.001Z</time></trkpt><trkpt lat="44.37726923765915" lon="11.279950070671957"><ele>353.0</ele><time>2026-04-06T12:12:40.001Z</time></trkpt><trkpt lat="44.37721534257522" lon="11.2798955645998"><ele>353.0</ele><time>2026-04-06T12:12:44.001Z</time></trkpt><trkpt lat="44.37715935581424" lon="11.279853717294865"><ele>355.85714285714283</ele><time>2026-04-06T12:12:49.001Z</time></trkpt><trkpt lat="44.377093300282404" lon="11.279818618523294"><ele>358.7142857142857</ele><time>2026-04-06T12:12:54.001Z</time></trkpt><trkpt lat="44.377033980853184" lon="11.279778803701157"><ele>361.57142857142856</ele><time>2026-04-06T12:13:00.001Z</time></trkpt><trkpt lat="44.37697050602391" lon="11.279726408947296"><ele>364.42857142857144</ele><time>2026-04-06T12:13:10.001Z</time></trkpt><trkpt lat="44.37689998584222" lon="11.279747424697163"><ele>367.28571428571433</ele><time>2026-04-06T12:13:17.001Z</time></trkpt><trkpt lat="44.376837007565335" lon="11.279753985411492"><ele>370.14285714285717</ele><time>2026-04-06T12:13:24.001Z</time></trkpt><trkpt lat="44.37677268744478" lon="11.279755661408014"><ele>373.0</ele><time>2026-04-06T12:13:29.001Z</time></trkpt><trkpt lat="44.37670887544389" lon="11.279798627339392"><ele>373.0</ele><time>2026-04-06T12:13:35.001Z</time></trkpt><trkpt lat="44.37665239448972" lon="11.279843896234228"><ele>373.0</ele><time>2026-04-06T12:13:40.001Z</time></trkpt><trkpt lat="44.376589906078536" lon="11.279910801432909"><ele>373.0</ele><time>2026-04-06T12:13:45.001Z</time></trkpt><trkpt lat="44.37652088108694" lon="11.279931107187918"><ele>373.0</ele><time>2026-04-06T12:13:50.001Z</time></trkpt><trkpt lat="44.376460380060465" lon="11.279975751356865"><ele>373.0</ele><time>2026-04-06T12:13:55.001Z</time></trkpt><trkpt lat="44.37639524533155" lon="11.280019870326067"><ele>373.0</ele><time>2026-04-06T12:14:00.001Z</time></trkpt><trkpt lat="44.37633423451928" lon="11.280065411081136"><ele>373.0</ele><time>2026-04-06T12:14:05.001Z</time></trkpt><trkpt lat="44.37627520631296" lon="11.280110916492042"><ele>373.57142857142856</ele><time>2026-04-06T12:14:10.001Z</time></trkpt><trkpt lat="44.37621199291494" lon="11.280156105531299"><ele>374.14285714285717</ele><time>2026-04-06T12:14:15.001Z</time></trkpt><trkpt lat="44.37615095507802" lon="11.28020870012227"><ele>374.71428571428567</ele><time>2026-04-06T12:14:20.001Z</time></trkpt><trkpt lat="44.37609317926631" lon="11.280244297128366"><ele>375.2857142857143</ele><time>2026-04-06T12:14:25.001Z</time></trkpt><trkpt lat="44.37604374576014" lon="11.280303870381122"><ele>375.85714285714283</ele><time>2026-04-06T12:14:32.001Z</time></trkpt><trkpt lat="44.37602969070672" lon="11.280390620441027"><ele>376.4285714285714</ele><time>2026-04-06T12:14:38.001Z</time></trkpt><trkpt lat="44.37604131123589" lon="11.280482873485997"><ele>377.0</ele><time>2026-04-06T12:14:44.001Z</time></trkpt><trkpt lat="44.37604852637726" lon="11.28058337077586"><ele>376.4285714285714</ele><time>2026-04-06T12:14:50.001Z</time></trkpt><trkpt lat="44.37604093866954" lon="11.280679498384512"><ele>375.85714285714283</ele><time>2026-04-06T12:14:56.001Z</time></trkpt><trkpt lat="44.376020995356335" lon="11.280764678084546"><ele>375.2857142857143</ele><time>2026-04-06T12:15:01.001Z</time></trkpt><trkpt lat="44.37600163846433" lon="11.28085453428669"><ele>374.71428571428567</ele><time>2026-04-06T12:15:06.001Z</time></trkpt><trkpt lat="44.37597410050994" lon="11.280936205248839"><ele>374.14285714285717</ele><time>2026-04-06T12:15:11.001Z</time></trkpt><trkpt lat="44.37593015963146" lon="11.28102013595779"><ele>373.57142857142856</ele><time>2026-04-06T12:15:17.001Z</time></trkpt><trkpt lat="44.37588082217416" lon="11.281095938959615"><ele>373.0</ele><time>2026-04-06T12:15:23.001Z</time></trkpt><trkpt lat="44.37592336262446" lon="11.281020793385892"><ele>373.0</ele><time>2026-04-06T12:16:30Z</time></trkpt><trkpt lat="44.37596410376077" lon="11.280940286198314"><ele>373.0</ele><time>2026-04-06T12:16:36Z</time></trkpt><trkpt lat="44.37600063269132" lon="11.280850300853155"><ele>373.0</ele><time>2026-04-06T12:16:42Z</time></trkpt><trkpt lat="44.376020499247986" lon="11.280753161107045"><ele>373.0</ele><time>2026-04-06T12:16:48Z</time></trkpt><trkpt lat="44.376033896033455" lon="11.280666120432931"><ele>373.0</ele><time>2026-04-06T12:16:53Z</time></trkpt><trkpt lat="44.37603200927429" lon="11.280576820336377"><ele>373.0</ele><time>2026-04-06T12:16:58Z</time></trkpt><trkpt lat="44.376021700119836" lon="11.280478580953096"><ele>373.0</ele><time>2026-04-06T12:17:04Z</time></trkpt><trkpt lat="44.376002623970905" lon="11.280386166109693"><ele>373.57142857142856</ele><time>2026-04-06T12:17:10Z</time></trkpt><trkpt lat="44.375981536496646" lon="11.280298953075405"><ele>374.14285714285717</ele><time>2026-04-06T12:17:15Z</time></trkpt><trkpt lat="44.375959309733986" lon="11.280211489751386"><ele>374.71428571428567</ele><time>2026-04-06T12:17:20Z</time></trkpt><trkpt lat="44.375941044028714" lon="11.280125158705882"><ele>375.2857142857143</ele><time>2026-04-06T12:17:25Z</time></trkpt><trkpt lat="44.375926717790655" lon="11.280023768445643"><ele>375.85714285714283</ele><time>2026-04-06T12:17:31.001Z</time></trkpt><trkpt lat="44.375912834477774" lon="11.279926236522718"><ele>376.4285714285714</ele><time>2026-04-06T12:17:37.001Z</time></trkpt><trkpt lat="44.37588798645244" lon="11.279840707134937"><ele>377.0</ele><time>2026-04-06T12:17:43.001Z</time></trkpt><trkpt lat="44.3758665919853" lon="11.279744722365644"><ele>377.1428571428571</ele><time>2026-04-06T12:17:47.998Z</time></trkpt><trkpt lat="44.37584700118585" lon="11.279660591054185"><ele>377.2857142857143</ele><time>2026-04-06T12:17:52.998Z</time></trkpt><trkpt lat="44.37582480399719" lon="11.279567195035606"><ele>377.42857142857144</ele><time>2026-04-06T12:17:58.999Z</time></trkpt><trkpt lat="44.37582617056622" lon="11.279472107117064"><ele>377.57142857142856</ele><time>2026-04-06T12:18:04.999Z</time></trkpt><trkpt lat="44.37585600558519" lon="11.279393521124398"><ele>377.7142857142857</ele><time>2026-04-06T12:18:09.999Z</time></trkpt><trkpt lat="44.37592062148541" lon="11.279343131423673"><ele>377.85714285714283</ele><time>2026-04-06T12:18:15.999Z</time></trkpt><trkpt lat="44.37598882925438" lon="11.27930758089135"><ele>378.0</ele><time>2026-04-06T12:18:21.999Z</time></trkpt><trkpt lat="44.37605826064454" lon="11.279301806763021"><ele>378.0</ele><time>2026-04-06T12:18:28Z</time></trkpt><trkpt lat="44.37612204064454" lon="11.279274623223886"><ele>378.0</ele><time>2026-04-06T12:18:34Z</time></trkpt><trkpt lat="44.37618574201165" lon="11.279229191263275"><ele>378.0</ele><time>2026-04-06T12:18:40Z</time></trkpt><trkpt lat="44.376252378654584" lon="11.279195756375596"><ele>378.0</ele><time>2026-04-06T12:18:46Z</time></trkpt><trkpt lat="44.37632041560871" lon="11.279153699743024"><ele>378.0</ele><time>2026-04-06T12:18:52Z</time></trkpt><trkpt lat="44.37638652790352" lon="11.27910473142234"><ele>378.0</ele><time>2026-04-06T12:18:58Z</time></trkpt><trkpt lat="44.37644405748693" lon="11.279057772201702"><ele>378.0</ele><time>2026-04-06T12:19:03Z</time></trkpt><trkpt lat="44.37649642568435" lon="11.279006165597139"><ele>378.7142857142857</ele><time>2026-04-06T12:19:08Z</time></trkpt><trkpt lat="44.376555916832196" lon="11.278944614367129"><ele>379.42857142857144</ele><time>2026-04-06T12:19:14Z</time></trkpt><trkpt lat="44.37660910315127" lon="11.278876073308574"><ele>380.1428571428571</ele><time>2026-04-06T12:19:20Z</time></trkpt><trkpt lat="44.37665376803107" lon="11.278794747637187"><ele>380.8571428571429</ele><time>2026-04-06T12:19:26Z</time></trkpt><trkpt lat="44.37668462758472" lon="11.278705522251494"><ele>381.57142857142856</ele><time>2026-04-06T12:19:32Z</time></trkpt><trkpt lat="44.37670173212298" lon="11.278611508412961"><ele>382.2857142857143</ele><time>2026-04-06T12:19:38Z</time></trkpt><trkpt lat="44.376704660006844" lon="11.278504027426195"><ele>383.0</ele><time>2026-04-06T12:19:44Z</time></trkpt><trkpt lat="44.37670539655425" lon="11.2784157061257"><ele>383.7142857142857</ele><time>2026-04-06T12:19:49Z</time></trkpt><trkpt lat="44.376701976764046" lon="11.278321820293439"><ele>384.42857142857144</ele><time>2026-04-06T12:19:53.999Z</time></trkpt><trkpt lat="44.37669313637656" lon="11.278231041374104"><ele>385.1428571428571</ele><time>2026-04-06T12:19:59.999Z</time></trkpt><trkpt lat="44.376675232191786" lon="11.278145752091616"><ele>385.8571428571429</ele><time>2026-04-06T12:20:04.999Z</time></trkpt><trkpt lat="44.37664095402393" lon="11.27805846264252"><ele>386.5714285714286</ele><time>2026-04-06T12:20:10.999Z</time></trkpt><trkpt lat="44.376614294640746" lon="11.277976773830867"><ele>387.2857142857143</ele><time>2026-04-06T12:20:16Z</time></trkpt><trkpt lat="44.37657865675481" lon="11.277892767418225"><ele>388.0</ele><time>2026-04-06T12:20:22Z</time></trkpt><trkpt lat="44.37654289321939" lon="11.277808552202128"><ele>387.57142857142856</ele><time>2026-04-06T12:20:27Z</time></trkpt><trkpt lat="44.376511907681746" lon="11.277716079232519"><ele>387.14285714285717</ele><time>2026-04-06T12:20:33Z</time></trkpt><trkpt lat="44.37649173802061" lon="11.277620284512347"><ele>386.7142857142857</ele><time>2026-04-06T12:20:39Z</time></trkpt><trkpt lat="44.37647953401208" lon="11.277531236709457"><ele>386.2857142857143</ele><time>2026-04-06T12:20:45Z</time></trkpt><trkpt lat="44.37647944809511" lon="11.277427548110667"><ele>385.8571428571429</ele><time>2026-04-06T12:20:52Z</time></trkpt><trkpt lat="44.376480150236006" lon="11.277335529592506"><ele>385.42857142857144</ele><time>2026-04-06T12:21:00Z</time></trkpt><trkpt lat="44.37647157601626" lon="11.277247218102701"><ele>385.0</ele><time>2026-04-06T12:21:07Z</time></trkpt><trkpt lat="44.37646929532113" lon="11.277147113898977"><ele>385.0</ele><time>2026-04-06T12:21:15.001Z</time></trkpt><trkpt lat="44.376468448445756" lon="11.277054809456239"><ele>385.0</ele><time>2026-04-06T12:21:25.001Z</time></trkpt><trkpt lat="44.37646624675662" lon="11.276962970971994"><ele>385.0</ele><time>2026-04-06T12:21:36.001Z</time></trkpt><trkpt lat="44.376468010099046" lon="11.276865107851888"><ele>385.0</ele><time>2026-04-06T12:21:45.001Z</time></trkpt><trkpt lat="44.37646716249533" lon="11.276771404514777"><ele>385.0</ele><time>2026-04-06T12:21:53.001Z</time></trkpt><trkpt lat="44.37645366836064" lon="11.276670822203947"><ele>385.0</ele><time>2026-04-06T12:22:00Z</time></trkpt><trkpt lat="44.376432531117146" lon="11.276586295324032"><ele>385.0</ele><time>2026-04-06T12:22:06Z</time></trkpt><trkpt lat="44.37640024741866" lon="11.276492905927958"><ele>384.42857142857144</ele><time>2026-04-06T12:22:13Z</time></trkpt><trkpt lat="44.37638108666352" lon="11.276395806553532"><ele>383.8571428571429</ele><time>2026-04-06T12:22:18Z</time></trkpt><trkpt lat="44.376372028445324" lon="11.276292037059955"><ele>383.2857142857143</ele><time>2026-04-06T12:22:25Z</time></trkpt><trkpt lat="44.37635836898364" lon="11.27619966697622"><ele>382.7142857142857</ele><time>2026-04-06T12:22:31Z</time></trkpt><trkpt lat="44.376352281753555" lon="11.276109649296982"><ele>382.14285714285717</ele><time>2026-04-06T12:22:37Z</time></trkpt><trkpt lat="44.37633035884153" lon="11.276020701674767"><ele>381.57142857142856</ele><time>2026-04-06T12:22:42Z</time></trkpt><trkpt lat="44.37631407267513" lon="11.275927403760878"><ele>381.0</ele><time>2026-04-06T12:22:47Z</time></trkpt><trkpt lat="44.37629912539296" lon="11.275830653410813"><ele>383.85714285714283</ele><time>2026-04-06T12:22:52.001Z</time></trkpt><trkpt lat="44.37629195874613" lon="11.275729791840694"><ele>386.7142857142857</ele><time>2026-04-06T12:22:58.001Z</time></trkpt><trkpt lat="44.37625469054485" lon="11.275635790721314"><ele>389.57142857142856</ele><time>2026-04-06T12:23:04.001Z</time></trkpt><trkpt lat="44.376243258737" lon="11.275547853708462"><ele>392.42857142857144</ele><time>2026-04-06T12:23:09.001Z</time></trkpt><trkpt lat="44.37623447954513" lon="11.275450365189387"><ele>395.28571428571433</ele><time>2026-04-06T12:23:15.001Z</time></trkpt><trkpt lat="44.37620895339075" lon="11.275354252389066"><ele>398.14285714285717</ele><time>2026-04-06T12:23:21.001Z</time></trkpt><trkpt lat="44.37620625782865" lon="11.275259123817024"><ele>401.0</ele><time>2026-04-06T12:23:28.001Z</time></trkpt><trkpt lat="44.37622403473302" lon="11.275157575370159"><ele>401.0</ele><time>2026-04-06T12:23:34.001Z</time></trkpt><trkpt lat="44.37622251172562" lon="11.275047662272312"><ele>401.0</ele><time>2026-04-06T12:23:40.001Z</time></trkpt><trkpt lat="44.37622828112672" lon="11.274941488679824"><ele>401.0</ele><time>2026-04-06T12:23:46.001Z</time></trkpt><trkpt lat="44.3762232271535" lon="11.27485231664056"><ele>401.0</ele><time>2026-04-06T12:23:53.001Z</time></trkpt><trkpt lat="44.37628579651828" lon="11.274835158788752"><ele>401.0</ele><time>2026-04-06T12:24:08.001Z</time></trkpt><trkpt lat="44.37634246209803" lon="11.274882303836023"><ele>401.0</ele><time>2026-04-06T12:24:28.001Z</time></trkpt><trkpt lat="44.37640138627395" lon="11.274919376012361"><ele>401.0</ele><time>2026-04-06T12:24:40.001Z</time></trkpt><trkpt lat="44.3764686058833" lon="11.274964608778252"><ele>398.42857142857144</ele><time>2026-04-06T12:24:49.001Z</time></trkpt><trkpt lat="44.37653687372267" lon="11.274979198944717"><ele>395.8571428571429</ele><time>2026-04-06T12:24:58.001Z</time></trkpt><trkpt lat="44.376600886817585" lon="11.274944122132503"><ele>393.2857142857143</ele><time>2026-04-06T12:25:06.001Z</time></trkpt><trkpt lat="44.37665878477083" lon="11.274902205251745"><ele>390.7142857142857</ele><time>2026-04-06T12:25:13.001Z</time></trkpt><trkpt lat="44.3767224354227" lon="11.27488110843467"><ele>388.1428571428571</ele><time>2026-04-06T12:25:21.001Z</time></trkpt><trkpt lat="44.37679237490016" lon="11.2748701542398"><ele>385.57142857142856</ele><time>2026-04-06T12:25:30.001Z</time></trkpt><trkpt lat="44.376862310234465" lon="11.274880828976343"><ele>383.0</ele><time>2026-04-06T12:25:37.001Z</time></trkpt><trkpt lat="44.376920989503716" lon="11.274846870688805"><ele>383.0</ele><time>2026-04-06T12:25:44.001Z</time></trkpt><trkpt lat="44.376984310865836" lon="11.274835948540073"><ele>383.0</ele><time>2026-04-06T12:25:50.002Z</time></trkpt><trkpt lat="44.377051191899234" lon="11.274799501829776"><ele>383.0</ele><time>2026-04-06T12:25:56.002Z</time></trkpt><trkpt lat="44.37711161483536" lon="11.27477111903414"><ele>383.0</ele><time>2026-04-06T12:26:02.002Z</time></trkpt><trkpt lat="44.37717581986006" lon="11.274770781210037"><ele>383.0</ele><time>2026-04-06T12:26:06.002Z</time></trkpt><trkpt lat="44.37724943472034" lon="11.274770240686886"><ele>383.0</ele><time>2026-04-06T12:26:11.001Z</time></trkpt><trkpt lat="44.37739536696708" lon="11.274769548403576"><ele>381.2857142857143</ele><time>2026-04-06T12:26:23.001Z</time></trkpt><trkpt lat="44.377451597174655" lon="11.274823191585895"><ele>379.57142857142856</ele><time>2026-04-06T12:26:30.001Z</time></trkpt><trkpt lat="44.377503192850774" lon="11.274881296009639"><ele>377.8571428571429</ele><time>2026-04-06T12:26:36.001Z</time></trkpt><trkpt lat="44.37755668265068" lon="11.27493431377326"><ele>376.1428571428571</ele><time>2026-04-06T12:26:41.001Z</time></trkpt><trkpt lat="44.37761865294744" lon="11.274989886319238"><ele>374.42857142857144</ele><time>2026-04-06T12:26:47.001Z</time></trkpt><trkpt lat="44.37767394930264" lon="11.275036538158444"><ele>372.7142857142857</ele><time>2026-04-06T12:26:52.001Z</time></trkpt><trkpt lat="44.37773586636678" lon="11.275096458383578"><ele>371.0</ele><time>2026-04-06T12:26:59.001Z</time></trkpt><trkpt lat="44.37780466958688" lon="11.275152738613457"><ele>371.0</ele><time>2026-04-06T12:27:06.001Z</time></trkpt><trkpt lat="44.37786507813304" lon="11.275210815734376"><ele>371.0</ele><time>2026-04-06T12:27:12.001Z</time></trkpt><trkpt lat="44.37792831262607" lon="11.27522889227363"><ele>371.0</ele><time>2026-04-06T12:27:18.001Z</time></trkpt><trkpt lat="44.377994609804134" lon="11.275243496398616"><ele>371.0</ele><time>2026-04-06T12:27:23.001Z</time></trkpt><trkpt lat="44.378068803836825" lon="11.27526853578245"><ele>371.0</ele><time>2026-04-06T12:27:29.001Z</time></trkpt><trkpt lat="44.37814173545381" lon="11.275284023887837"><ele>371.0</ele><time>2026-04-06T12:27:35.001Z</time></trkpt><trkpt lat="44.3782062329195" lon="11.275310588687475"><ele>371.0</ele><time>2026-04-06T12:27:40.001Z</time></trkpt><trkpt lat="44.378269302195875" lon="11.275331887699853"><ele>370.85714285714283</ele><time>2026-04-06T12:27:46.001Z</time></trkpt><trkpt lat="44.37834281362433" lon="11.275371236637595"><ele>370.7142857142857</ele><time>2026-04-06T12:27:52.002Z</time></trkpt><trkpt lat="44.37840919477986" lon="11.275420752745912"><ele>370.57142857142856</ele><time>2026-04-06T12:27:58.002Z</time></trkpt><trkpt lat="44.37847723383508" lon="11.275466699952787"><ele>370.42857142857144</ele><time>2026-04-06T12:28:04.002Z</time></trkpt><trkpt lat="44.37854621562995" lon="11.275508060845361"><ele>370.2857142857143</ele><time>2026-04-06T12:28:09.002Z</time></trkpt><trkpt lat="44.37861081528622" lon="11.275555318834538"><ele>370.1428571428571</ele><time>2026-04-06T12:28:14.002Z</time></trkpt><trkpt lat="44.37867071847966" lon="11.275609906348475"><ele>370.0</ele><time>2026-04-06T12:28:19.001Z</time></trkpt><trkpt lat="44.37872686271243" lon="11.275656619431622"><ele>367.2857142857143</ele><time>2026-04-06T12:28:24.001Z</time></trkpt><trkpt lat="44.3787849210923" lon="11.275708525562635"><ele>364.57142857142856</ele><time>2026-04-06T12:28:29.001Z</time></trkpt><trkpt lat="44.37883745303497" lon="11.275758239700886"><ele>361.8571428571429</ele><time>2026-04-06T12:28:34.001Z</time></trkpt><trkpt lat="44.378900333026735" lon="11.275785509900228"><ele>359.1428571428571</ele><time>2026-04-06T12:28:38.001Z</time></trkpt><trkpt lat="44.37896788644942" lon="11.27580998759401"><ele>356.42857142857144</ele><time>2026-04-06T12:28:44.001Z</time></trkpt><trkpt lat="44.37903358428244" lon="11.275835613151"><ele>353.7142857142857</ele><time>2026-04-06T12:28:51.001Z</time></trkpt><trkpt lat="44.37910130298564" lon="11.275842635008672"><ele>351.0</ele><time>2026-04-06T12:28:56.001Z</time></trkpt><trkpt lat="44.3791745099831" lon="11.275848732193154"><ele>351.00000000000006</ele><time>2026-04-06T12:29:01.001Z</time></trkpt><trkpt lat="44.37924003761887" lon="11.275869982694692"><ele>351.0</ele><time>2026-04-06T12:29:07.001Z</time></trkpt><trkpt lat="44.3793076734232" lon="11.275882471770258"><ele>351.0</ele><time>2026-04-06T12:29:13.001Z</time></trkpt><trkpt lat="44.379375597039676" lon="11.275911271286846"><ele>351.0</ele><time>2026-04-06T12:29:19.001Z</time></trkpt><trkpt lat="44.37943756632843" lon="11.27594106019797"><ele>351.0</ele><time>2026-04-06T12:29:25.001Z</time></trkpt><trkpt lat="44.379503937127744" lon="11.275966477073082"><ele>351.00000000000006</ele><time>2026-04-06T12:29:31.001Z</time></trkpt><trkpt lat="44.37957176346505" lon="11.275993687288189"><ele>351.0</ele><time>2026-04-06T12:29:37.001Z</time></trkpt><trkpt lat="44.3796416615336" lon="11.276004998221195"><ele>349.28571428571433</ele><time>2026-04-06T12:29:44.001Z</time></trkpt><trkpt lat="44.37970835587872" lon="11.276009520880223"><ele>347.57142857142856</ele><time>2026-04-06T12:29:51.001Z</time></trkpt><trkpt lat="44.379780347196586" lon="11.27600996246449"><ele>345.8571428571429</ele><time>2026-04-06T12:29:59.001Z</time></trkpt><trkpt lat="44.379844345015634" lon="11.276012181861143"><ele>344.14285714285717</ele><time>2026-04-06T12:30:05.002Z</time></trkpt><trkpt lat="44.37991296722039" lon="11.276019407803052"><ele>342.42857142857144</ele><time>2026-04-06T12:30:12.002Z</time></trkpt><trkpt lat="44.37998091347665" lon="11.276031788246991"><ele>340.7142857142857</ele><time>2026-04-06T12:30:18.002Z</time></trkpt><trkpt lat="44.38004967682322" lon="11.276050664392331"><ele>339.0</ele><time>2026-04-06T12:30:25.001Z</time></trkpt><trkpt lat="44.3801201018932" lon="11.276079047618621"><ele>339.0</ele><time>2026-04-06T12:30:32.001Z</time></trkpt><trkpt lat="44.38017993942548" lon="11.276135831683268"><ele>339.0</ele><time>2026-04-06T12:30:38.001Z</time></trkpt><trkpt lat="44.380237286708095" lon="11.27619653205633"><ele>339.0</ele><time>2026-04-06T12:30:44.001Z</time></trkpt><trkpt lat="44.380303810255114" lon="11.27623727345454"><ele>339.0</ele><time>2026-04-06T12:30:50.001Z</time></trkpt><trkpt lat="44.38037017133509" lon="11.276242415505834"><ele>339.0</ele><time>2026-04-06T12:30:57.001Z</time></trkpt><trkpt lat="44.380433453103805" lon="11.276218466915312"><ele>339.0</ele><time>2026-04-06T12:31:04.001Z</time></trkpt><trkpt lat="44.38049837716423" lon="11.27617300325301"><ele>339.0</ele><time>2026-04-06T12:31:12.001Z</time></trkpt><trkpt lat="44.380554524875656" lon="11.276131697477753"><ele>336.85714285714283</ele><time>2026-04-06T12:31:19.001Z</time></trkpt><trkpt lat="44.38062071061523" lon="11.2760870989512"><ele>334.7142857142857</ele><time>2026-04-06T12:31:26.001Z</time></trkpt><trkpt lat="44.38068270035448" lon="11.27605051215815"><ele>332.57142857142856</ele><time>2026-04-06T12:31:33.001Z</time></trkpt><trkpt lat="44.38075029074235" lon="11.276046631736145"><ele>330.42857142857144</ele><time>2026-04-06T12:31:38.001Z</time></trkpt><trkpt lat="44.3808246072665" lon="11.276049169867337"><ele>328.2857142857143</ele><time>2026-04-06T12:31:44.001Z</time></trkpt><trkpt lat="44.380885662052734" lon="11.27608409051383"><ele>326.14285714285717</ele><time>2026-04-06T12:31:49.001Z</time></trkpt><trkpt lat="44.380953683250084" lon="11.276108412133533"><ele>324.0</ele><time>2026-04-06T12:31:55.001Z</time></trkpt><trkpt lat="44.381019109670575" lon="11.276129133364694"><ele>324.0</ele><time>2026-04-06T12:32:00.001Z</time></trkpt><trkpt lat="44.38108510909452" lon="11.2761530528508"><ele>324.0</ele><time>2026-04-06T12:32:06.001Z</time></trkpt><trkpt lat="44.38114928764168" lon="11.276172866922655"><ele>324.0</ele><time>2026-04-06T12:32:17.001Z</time></trkpt><trkpt lat="44.38120606467765" lon="11.27612405891808"><ele>324.0</ele><time>2026-04-06T12:32:24.001Z</time></trkpt><trkpt lat="44.38123477553744" lon="11.276043284800592"><ele>324.0</ele><time>2026-04-06T12:32:30.001Z</time></trkpt><trkpt lat="44.38126089065129" lon="11.275952303537034"><ele>324.0</ele><time>2026-04-06T12:32:37.001Z</time></trkpt><trkpt lat="44.381288791803705" lon="11.275866649510972"><ele>324.0</ele><time>2026-04-06T12:32:45.001Z</time></trkpt><trkpt lat="44.381300866962114" lon="11.275776635408617"><ele>324.0</ele><time>2026-04-06T12:32:51.001Z</time></trkpt><trkpt lat="44.38129816384772" lon="11.275684202382163"><ele>324.0</ele><time>2026-04-06T12:32:56.001Z</time></trkpt><trkpt lat="44.38130983497878" lon="11.27557898013713"><ele>324.0</ele><time>2026-04-06T12:33:02.001Z</time></trkpt><trkpt lat="44.381315879877114" lon="11.27547982763716"><ele>324.0</ele><time>2026-04-06T12:33:08.001Z</time></trkpt><trkpt lat="44.381313984935595" lon="11.2753776997824"><ele>324.0</ele><time>2026-04-06T12:33:14.001Z</time></trkpt><trkpt lat="44.38129403180945" lon="11.275286954554797"><ele>324.0</ele><time>2026-04-06T12:33:20.001Z</time></trkpt><trkpt lat="44.381251075584146" lon="11.27520419283448"><ele>324.0</ele><time>2026-04-06T12:33:27.001Z</time></trkpt><trkpt lat="44.381210472013926" lon="11.27513261849093"><ele>323.57142857142856</ele><time>2026-04-06T12:33:34.001Z</time></trkpt><trkpt lat="44.38118336762911" lon="11.275043770349626"><ele>323.1428571428571</ele><time>2026-04-06T12:33:40.001Z</time></trkpt><trkpt lat="44.38113672290851" lon="11.274966715346025"><ele>322.71428571428567</ele><time>2026-04-06T12:33:46.001Z</time></trkpt><trkpt lat="44.38108589701235" lon="11.274903825095928"><ele>322.2857142857143</ele><time>2026-04-06T12:33:52.001Z</time></trkpt><trkpt lat="44.38102895024803" lon="11.274857074777103"><ele>321.85714285714283</ele><time>2026-04-06T12:33:58.001Z</time></trkpt><trkpt lat="44.380975103002065" lon="11.274804429241604"><ele>321.4285714285714</ele><time>2026-04-06T12:34:03.001Z</time></trkpt><trkpt lat="44.38090827287032" lon="11.274764514273272"><ele>321.0</ele><time>2026-04-06T12:34:09.001Z</time></trkpt><trkpt lat="44.38085480139159" lon="11.274704302203862"><ele>321.0</ele><time>2026-04-06T12:34:14.001Z</time></trkpt><trkpt lat="44.38086105143763" lon="11.274596481714728"><ele>321.0</ele><time>2026-04-06T12:34:20.001Z</time></trkpt><trkpt lat="44.380906664032935" lon="11.274531442450888"><ele>321.0</ele><time>2026-04-06T12:34:27.001Z</time></trkpt><trkpt lat="44.380976545547234" lon="11.27448672286542"><ele>321.0</ele><time>2026-04-06T12:34:32Z</time></trkpt><trkpt lat="44.38104530955231" lon="11.274447237837093"><ele>321.0</ele><time>2026-04-06T12:34:38Z</time></trkpt><trkpt lat="44.38113668154987" lon="11.274431860806661"><ele>321.0</ele><time>2026-04-06T12:34:44Z</time></trkpt><trkpt lat="44.381212001169786" lon="11.274409435411094"><ele>320.99999999999994</ele><time>2026-04-06T12:34:49Z</time></trkpt><trkpt lat="44.38128910227895" lon="11.27440452132485"><ele>321.0</ele><time>2026-04-06T12:34:55Z</time></trkpt><trkpt lat="44.38135217658528" lon="11.274415735252221"><ele>321.0</ele><time>2026-04-06T12:35:01Z</time></trkpt><trkpt lat="44.38141215587442" lon="11.274383000181965"><ele>321.0</ele><time>2026-04-06T12:35:23Z</time></trkpt><trkpt lat="44.381483199325075" lon="11.274377296125227"><ele>321.0</ele><time>2026-04-06T12:35:29Z</time></trkpt><trkpt lat="44.38157915730659" lon="11.274388377772762"><ele>320.99999999999994</ele><time>2026-04-06T12:35:36Z</time></trkpt><trkpt lat="44.38165144729225" lon="11.274380923527133"><ele>321.0</ele><time>2026-04-06T12:35:41Z</time></trkpt><trkpt lat="44.38171521793896" lon="11.274391274397585"><ele>319.57142857142856</ele><time>2026-04-06T12:35:45Z</time></trkpt><trkpt lat="44.38178871904903" lon="11.274393192240765"><ele>318.1428571428571</ele><time>2026-04-06T12:35:50Z</time></trkpt><trkpt lat="44.38185807904437" lon="11.274398205259795"><ele>316.71428571428567</ele><time>2026-04-06T12:35:55Z</time></trkpt><trkpt lat="44.38192181288121" lon="11.274395090508865"><ele>315.2857142857143</ele><time>2026-04-06T12:35:59.001Z</time></trkpt><trkpt lat="44.382002706740785" lon="11.27439959511957"><ele>313.8571428571429</ele><time>2026-04-06T12:36:04.001Z</time></trkpt><trkpt lat="44.38207602847059" lon="11.274410896642836"><ele>312.4285714285714</ele><time>2026-04-06T12:36:10.001Z</time></trkpt><trkpt lat="44.38215157529942" lon="11.274428598506798"><ele>311.0</ele><time>2026-04-06T12:36:16.001Z</time></trkpt><trkpt lat="44.38221756438273" lon="11.274436756352358"><ele>311.0</ele><time>2026-04-06T12:36:22.001Z</time></trkpt><trkpt lat="44.382296614766084" lon="11.274459151385315"><ele>311.0</ele><time>2026-04-06T12:36:28.001Z</time></trkpt><trkpt lat="44.38236190113702" lon="11.274469270228435"><ele>311.0</ele><time>2026-04-06T12:36:33.001Z</time></trkpt><trkpt lat="44.38242394989582" lon="11.274454371101363"><ele>311.0</ele><time>2026-04-06T12:36:38Z</time></trkpt><trkpt lat="44.38250132655375" lon="11.274411372296198"><ele>311.0</ele><time>2026-04-06T12:36:44Z</time></trkpt><trkpt lat="44.38257241142708" lon="11.27437075964187"><ele>311.0</ele><time>2026-04-06T12:36:51Z</time></trkpt><trkpt lat="44.38264380123855" lon="11.27434528528757"><ele>311.0</ele><time>2026-04-06T12:36:56Z</time></trkpt><trkpt lat="44.3827111742992" lon="11.274334493347723"><ele>311.0</ele><time>2026-04-06T12:37:01Z</time></trkpt><trkpt lat="44.38278181253694" lon="11.274320056703244"><ele>311.0</ele><time>2026-04-06T12:37:06Z</time></trkpt><trkpt lat="44.382850566971186" lon="11.274307700782742"><ele>311.0</ele><time>2026-04-06T12:37:10Z</time></trkpt><trkpt lat="44.382913104450104" lon="11.274293931966339"><ele>311.0</ele><time>2026-04-06T12:37:15Z</time></trkpt><trkpt lat="44.38298418414665" lon="11.274293782085614"><ele>311.0</ele><time>2026-04-06T12:37:21Z</time></trkpt><trkpt lat="44.38305491539679" lon="11.274296512357857"><ele>311.0</ele><time>2026-04-06T12:37:26Z</time></trkpt><trkpt lat="44.38312147797906" lon="11.274305022818824"><ele>311.0</ele><time>2026-04-06T12:37:32Z</time></trkpt><trkpt lat="44.38318807430841" lon="11.27431880349112"><ele>308.4285714285714</ele><time>2026-04-06T12:37:37Z</time></trkpt><trkpt lat="44.38325191901009" lon="11.274329552889878"><ele>305.8571428571429</ele><time>2026-04-06T12:37:43Z</time></trkpt><trkpt lat="44.38331439240424" lon="11.274356245989429"><ele>303.2857142857143</ele><time>2026-04-06T12:37:48Z</time></trkpt><trkpt lat="44.38337440347149" lon="11.2743937237486"><ele>300.71428571428567</ele><time>2026-04-06T12:37:54Z</time></trkpt><trkpt lat="44.38344051964007" lon="11.274439481586116"><ele>298.1428571428571</ele><time>2026-04-06T12:38:01Z</time></trkpt><trkpt lat="44.383494445727" lon="11.27449584773872"><ele>295.57142857142856</ele><time>2026-04-06T12:38:06Z</time></trkpt><trkpt lat="44.383538438146985" lon="11.274561645565978"><ele>293.0</ele><time>2026-04-06T12:38:12Z</time></trkpt><trkpt lat="44.38356806129142" lon="11.274648889405011"><ele>292.99999999999994</ele><time>2026-04-06T12:38:20Z</time></trkpt><trkpt lat="44.383595866229115" lon="11.274748161011292"><ele>293.0</ele><time>2026-04-06T12:38:29.001Z</time></trkpt><trkpt lat="44.383636076051" lon="11.274822253144269"><ele>293.0</ele><time>2026-04-06T12:38:37.001Z</time></trkpt><trkpt lat="44.383678869238146" lon="11.274894555222339"><ele>293.0</ele><time>2026-04-06T12:38:45Z</time></trkpt><trkpt lat="44.38373260357902" lon="11.27495360759008"><ele>293.0</ele><time>2026-04-06T12:38:54Z</time></trkpt><trkpt lat="44.383791622691625" lon="11.27499553019037"><ele>292.99999999999994</ele><time>2026-04-06T12:39:03Z</time></trkpt><trkpt lat="44.38385070657728" lon="11.2750296896904"><ele>293.0</ele><time>2026-04-06T12:39:10Z</time></trkpt><trkpt lat="44.38391923203451" lon="11.275050300339233"><ele>289.85714285714283</ele><time>2026-04-06T12:39:17Z</time></trkpt><trkpt lat="44.38398942706602" lon="11.275050755180397"><ele>286.7142857142857</ele><time>2026-04-06T12:39:25Z</time></trkpt><trkpt lat="44.38405965486659" lon="11.275042412579255"><ele>283.57142857142856</ele><time>2026-04-06T12:39:32Z</time></trkpt><trkpt lat="44.38412583166814" lon="11.275022561158934"><ele>280.42857142857144</ele><time>2026-04-06T12:39:41Z</time></trkpt><trkpt lat="44.38419343248168" lon="11.274978451780319"><ele>277.2857142857143</ele><time>2026-04-06T12:39:49Z</time></trkpt><trkpt lat="44.38425929828346" lon="11.274992555454746"><ele>274.1428571428571</ele><time>2026-04-06T12:39:58Z</time></trkpt><trkpt lat="44.384245625911014" lon="11.274897537377168"><ele>271.0</ele><time>2026-04-06T12:40:15Z</time></trkpt><trkpt lat="44.38429102293224" lon="11.274828635621718"><ele>271.8333333333333</ele><time>2026-04-06T12:40:22Z</time></trkpt><trkpt lat="44.384315442507024" lon="11.274658770356082"><ele>272.66666666666663</ele><time>2026-04-06T12:40:30Z</time></trkpt><trkpt lat="44.38435969565146" lon="11.274731936309685"><ele>273.5</ele><time>2026-04-06T12:40:32Z</time></trkpt><trkpt lat="44.38441567725273" lon="11.27467984131726"><ele>274.3333333333333</ele><time>2026-04-06T12:40:39Z</time></trkpt><trkpt lat="44.38444969409328" lon="11.274602693692424"><ele>275.1666666666667</ele><time>2026-04-06T12:40:46Z</time></trkpt><trkpt lat="44.38446957300894" lon="11.274516834817815"><ele>276.0</ele><time>2026-04-06T12:40:51.999Z</time></trkpt><trkpt lat="44.384517309519666" lon="11.274446391119117"><ele>276.0</ele><time>2026-04-06T12:40:58Z</time></trkpt><trkpt lat="44.38456024829909" lon="11.274372304329766"><ele>276.0</ele><time>2026-04-06T12:41:04Z</time></trkpt><trkpt lat="44.38461780852106" lon="11.274325141912085"><ele>276.0</ele><time>2026-04-06T12:41:10Z</time></trkpt><trkpt lat="44.38467315732063" lon="11.274271758545794"><ele>276.0</ele><time>2026-04-06T12:41:16Z</time></trkpt><trkpt lat="44.38472546904244" lon="11.274215365967624"><ele>276.0</ele><time>2026-04-06T12:41:21Z</time></trkpt><trkpt lat="44.38478464044764" lon="11.27416619077496"><ele>276.0</ele><time>2026-04-06T12:41:26Z</time></trkpt><trkpt lat="44.38483725691998" lon="11.27411324225414"><ele>276.0</ele><time>2026-04-06T12:41:31Z</time></trkpt><trkpt lat="44.38489742519366" lon="11.27404956077294"><ele>273.8571428571429</ele><time>2026-04-06T12:41:37Z</time></trkpt><trkpt lat="44.384956926243184" lon="11.27400356962888"><ele>271.7142857142857</ele><time>2026-04-06T12:41:42Z</time></trkpt><trkpt lat="44.385017721208285" lon="11.27395785773458"><ele>269.57142857142856</ele><time>2026-04-06T12:41:48Z</time></trkpt><trkpt lat="44.385075642678224" lon="11.273913124194195"><ele>267.42857142857144</ele><time>2026-04-06T12:41:53Z</time></trkpt><trkpt lat="44.38513188794305" lon="11.2738714751142"><ele>265.2857142857143</ele><time>2026-04-06T12:41:58Z</time></trkpt><trkpt lat="44.38519805249013" lon="11.273847435326811"><ele>263.14285714285717</ele><time>2026-04-06T12:42:03Z</time></trkpt><trkpt lat="44.38526581295573" lon="11.273812473389718"><ele>261.0</ele><time>2026-04-06T12:42:09Z</time></trkpt><trkpt lat="44.38533239444686" lon="11.27378316063324"><ele>261.0</ele><time>2026-04-06T12:42:14Z</time></trkpt><trkpt lat="44.38539474943814" lon="11.273766816306196"><ele>261.0</ele><time>2026-04-06T12:42:19Z</time></trkpt><trkpt lat="44.38546092412234" lon="11.273752193160412"><ele>261.0</ele><time>2026-04-06T12:42:24Z</time></trkpt><trkpt lat="44.385527089498744" lon="11.273740701865558"><ele>261.0</ele><time>2026-04-06T12:42:29Z</time></trkpt><trkpt lat="44.38559499865908" lon="11.273748606619016"><ele>261.0</ele><time>2026-04-06T12:42:34Z</time></trkpt><trkpt lat="44.385662539993895" lon="11.27375583562883"><ele>261.0</ele><time>2026-04-06T12:42:39Z</time></trkpt><trkpt lat="44.38573375063505" lon="11.273741599057505"><ele>261.0</ele><time>2026-04-06T12:42:45Z</time></trkpt><trkpt lat="44.38580607595698" lon="11.273740660143813"><ele>259.7142857142857</ele><time>2026-04-06T12:42:51Z</time></trkpt><trkpt lat="44.385869868476746" lon="11.273748866292488"><ele>258.42857142857144</ele><time>2026-04-06T12:42:56Z</time></trkpt><trkpt lat="44.38593303554417" lon="11.27374990061661"><ele>257.1428571428571</ele><time>2026-04-06T12:43:01Z</time></trkpt><trkpt lat="44.38598286042746" lon="11.27369393141344"><ele>255.85714285714286</ele><time>2026-04-06T12:43:06Z</time></trkpt><trkpt lat="44.38603281304885" lon="11.273617102319866"><ele>254.57142857142856</ele><time>2026-04-06T12:43:12Z</time></trkpt><trkpt lat="44.38609369608872" lon="11.27358702054096"><ele>253.28571428571428</ele><time>2026-04-06T12:43:17Z</time></trkpt><trkpt lat="44.38615444268896" lon="11.273546331347662"><ele>252.0</ele><time>2026-04-06T12:43:22Z</time></trkpt><trkpt lat="44.386215563579036" lon="11.27349932602508"><ele>252.0</ele><time>2026-04-06T12:43:27Z</time></trkpt><trkpt lat="44.38627298919451" lon="11.273450809183931"><ele>252.0</ele><time>2026-04-06T12:43:32Z</time></trkpt><trkpt lat="44.38632377722763" lon="11.273396787633365"><ele>252.0</ele><time>2026-04-06T12:43:37Z</time></trkpt><trkpt lat="44.38638457637367" lon="11.273343767838456"><ele>252.0</ele><time>2026-04-06T12:43:43Z</time></trkpt><trkpt lat="44.38643914215717" lon="11.273289341747178"><ele>252.0</ele><time>2026-04-06T12:43:48Z</time></trkpt><trkpt lat="44.38649186059575" lon="11.273233452940882"><ele>252.0</ele><time>2026-04-06T12:43:53Z</time></trkpt><trkpt lat="44.38654206825859" lon="11.273173959326789"><ele>252.0</ele><time>2026-04-06T12:43:58Z</time></trkpt><trkpt lat="44.386600630429655" lon="11.273126344104927"><ele>250.85714285714286</ele><time>2026-04-06T12:44:03Z</time></trkpt><trkpt lat="44.38666092440421" lon="11.273078572447668"><ele>249.71428571428572</ele><time>2026-04-06T12:44:08Z</time></trkpt><trkpt lat="44.38672188857059" lon="11.27302759973845"><ele>248.57142857142856</ele><time>2026-04-06T12:44:13Z</time></trkpt><trkpt lat="44.38679398666699" lon="11.273019719732481"><ele>247.42857142857142</ele><time>2026-04-06T12:44:18Z</time></trkpt><trkpt lat="44.3868634171124" lon="11.273035159132773"><ele>246.28571428571428</ele><time>2026-04-06T12:44:29Z</time></trkpt><trkpt lat="44.38692829325789" lon="11.273075880500969"><ele>245.1428571428571</ele><time>2026-04-06T12:44:37Z</time></trkpt><trkpt lat="44.38698680246083" lon="11.273112217958266"><ele>243.99999999999997</ele><time>2026-04-06T12:44:43Z</time></trkpt><trkpt lat="44.3870526902879" lon="11.273150355860087"><ele>243.99999999999997</ele><time>2026-04-06T12:44:49Z</time></trkpt><trkpt lat="44.387120001726736" lon="11.273185745449856"><ele>244.0</ele><time>2026-04-06T12:44:55Z</time></trkpt><trkpt lat="44.38717467353987" lon="11.273229491244681"><ele>243.99999999999997</ele><time>2026-04-06T12:45:01Z</time></trkpt><trkpt lat="44.38723807825578" lon="11.273250275740818"><ele>243.99999999999997</ele><time>2026-04-06T12:45:05.999Z</time></trkpt><trkpt lat="44.38730303279472" lon="11.27327415999486"><ele>244.0</ele><time>2026-04-06T12:45:10.999Z</time></trkpt><trkpt lat="44.3873650695588" lon="11.273297391279582"><ele>243.99999999999997</ele><time>2026-04-06T12:45:15.999Z</time></trkpt><trkpt lat="44.387430411929195" lon="11.273319977034534"><ele>243.99999999999997</ele><time>2026-04-06T12:45:22Z</time></trkpt><trkpt lat="44.38749451569079" lon="11.273341515580917"><ele>242.1428571428571</ele><time>2026-04-06T12:45:28Z</time></trkpt><trkpt lat="44.38756094608232" lon="11.273357306111155"><ele>240.28571428571428</ele><time>2026-04-06T12:45:37Z</time></trkpt><trkpt lat="44.3876293037298" lon="11.273370473365164"><ele>238.42857142857142</ele><time>2026-04-06T12:45:45Z</time></trkpt><trkpt lat="44.387699730504984" lon="11.273389134397883"><ele>236.57142857142856</ele><time>2026-04-06T12:45:52Z</time></trkpt><trkpt lat="44.387759150958026" lon="11.273439122600804"><ele>234.71428571428572</ele><time>2026-04-06T12:46:01Z</time></trkpt><trkpt lat="44.38782884418856" lon="11.273445542841866"><ele>232.85714285714286</ele><time>2026-04-06T12:46:08Z</time></trkpt><trkpt lat="44.38788630070875" lon="11.273494687554473"><ele>231.0</ele><time>2026-04-06T12:46:15Z</time></trkpt><trkpt lat="44.387947163433566" lon="11.27353797451039"><ele>231.0</ele><time>2026-04-06T12:46:24Z</time></trkpt><trkpt lat="44.388009078410334" lon="11.273576100060161"><ele>231.0</ele><time>2026-04-06T12:46:35Z</time></trkpt><trkpt lat="44.38806854866701" lon="11.273610656727785"><ele>231.0</ele><time>2026-04-06T12:46:43Z</time></trkpt><trkpt lat="44.388137879672335" lon="11.273637824412912"><ele>231.0</ele><time>2026-04-06T12:46:49Z</time></trkpt><trkpt lat="44.388194780396795" lon="11.273676402540595"><ele>231.0</ele><time>2026-04-06T12:46:54Z</time></trkpt><trkpt lat="44.38825994575266" lon="11.27370256558227"><ele>231.0</ele><time>2026-04-06T12:47:02Z</time></trkpt><trkpt lat="44.38833121220195" lon="11.27368423542052"><ele>231.0</ele><time>2026-04-06T12:47:10Z</time></trkpt><trkpt lat="44.388391044572664" lon="11.273735892121653"><ele>229.42857142857142</ele><time>2026-04-06T12:47:16Z</time></trkpt><trkpt lat="44.38842405442529" lon="11.273821220231232"><ele>227.85714285714286</ele><time>2026-04-06T12:47:24Z</time></trkpt><trkpt lat="44.38845545103994" lon="11.273901801069842"><ele>226.28571428571428</ele><time>2026-04-06T12:47:31Z</time></trkpt><trkpt lat="44.38849815686687" lon="11.273970306222976"><ele>224.71428571428572</ele><time>2026-04-06T12:47:38Z</time></trkpt><trkpt lat="44.38853755433038" lon="11.274049264060887"><ele>223.14285714285714</ele><time>2026-04-06T12:47:45Z</time></trkpt><trkpt lat="44.388569475242704" lon="11.274125637441117"><ele>221.57142857142856</ele><time>2026-04-06T12:47:51Z</time></trkpt><trkpt lat="44.38859575996694" lon="11.27421214668873"><ele>220.0</ele><time>2026-04-06T12:48:02Z</time></trkpt><trkpt lat="44.38853471231255" lon="11.274237584810043"><ele>218.42857142857142</ele><time>2026-04-06T12:48:16Z</time></trkpt><trkpt lat="44.38852068629182" lon="11.274326441858744"><ele>216.85714285714286</ele><time>2026-04-06T12:48:24Z</time></trkpt><trkpt lat="44.38846291570705" lon="11.274378497350206"><ele>215.28571428571428</ele><time>2026-04-06T12:48:30Z</time></trkpt><trkpt lat="44.388412461594555" lon="11.27444049814811"><ele>213.71428571428572</ele><time>2026-04-06T12:48:36Z</time></trkpt><trkpt lat="44.388362088894944" lon="11.274515360469978"><ele>212.14285714285714</ele><time>2026-04-06T12:48:43Z</time></trkpt><trkpt lat="44.38832214125746" lon="11.274590904863286"><ele>210.57142857142856</ele><time>2026-04-06T12:48:51Z</time></trkpt><trkpt lat="44.38830461899588" lon="11.274682879605162"><ele>209.0</ele><time>2026-04-06T12:48:57Z</time></trkpt><trkpt lat="44.388320996625474" lon="11.27477313406959"><ele>206.85714285714286</ele><time>2026-04-06T12:49:02Z</time></trkpt><trkpt lat="44.38834797117047" lon="11.274857996331868"><ele>204.71428571428572</ele><time>2026-04-06T12:49:07.001Z</time></trkpt><trkpt lat="44.38838978218268" lon="11.274931466825729"><ele>202.57142857142856</ele><time>2026-04-06T12:49:13.001Z</time></trkpt><trkpt lat="44.38844877949781" lon="11.274973805043748"><ele>200.42857142857144</ele><time>2026-04-06T12:49:18Z</time></trkpt><trkpt lat="44.38850459449898" lon="11.27502641835448"><ele>198.2857142857143</ele><time>2026-04-06T12:49:25Z</time></trkpt><trkpt lat="44.38856647545876" lon="11.275092015564853"><ele>196.14285714285714</ele><time>2026-04-06T12:49:35Z</time></trkpt><trkpt lat="44.388626385072484" lon="11.27514119515367"><ele>194.0</ele><time>2026-04-06T12:49:41Z</time></trkpt><trkpt lat="44.38868690104349" lon="11.275192027611144"><ele>194.0</ele><time>2026-04-06T12:49:47Z</time></trkpt><trkpt lat="44.38874072314686" lon="11.275252859824326"><ele>194.0</ele><time>2026-04-06T12:49:53Z</time></trkpt><trkpt lat="44.388793391611934" lon="11.275306430252051"><ele>194.0</ele><time>2026-04-06T12:49:59Z</time></trkpt><trkpt lat="44.38884878407717" lon="11.275356260808335"><ele>194.0</ele><time>2026-04-06T12:50:05Z</time></trkpt><trkpt lat="44.38890863340577" lon="11.275400741825539"><ele>194.0</ele><time>2026-04-06T12:50:10Z</time></trkpt><trkpt lat="44.38898000853373" lon="11.27537878546322"><ele>194.0</ele><time>2026-04-06T12:50:15Z</time></trkpt><trkpt lat="44.389024149937754" lon="11.27529570800614"><ele>194.0</ele><time>2026-04-06T12:50:20Z</time></trkpt><trkpt lat="44.389064740849534" lon="11.27520147124967"><ele>193.7142857142857</ele><time>2026-04-06T12:50:26Z</time></trkpt><trkpt lat="44.389106000152616" lon="11.275128955829688"><ele>193.42857142857144</ele><time>2026-04-06T12:50:31Z</time></trkpt><trkpt lat="44.38915174535299" lon="11.275060526979853"><ele>193.14285714285714</ele><time>2026-04-06T12:50:36Z</time></trkpt><trkpt lat="44.38921136369308" lon="11.275000680199156"><ele>192.85714285714283</ele><time>2026-04-06T12:50:41Z</time></trkpt><trkpt lat="44.38927758870236" lon="11.27494430094775"><ele>192.57142857142856</ele><time>2026-04-06T12:50:46Z</time></trkpt><trkpt lat="44.38933778131473" lon="11.274879830653834"><ele>192.28571428571428</ele><time>2026-04-06T12:50:51Z</time></trkpt><trkpt lat="44.38939707985614" lon="11.274823417280793"><ele>192.0</ele><time>2026-04-06T12:50:56Z</time></trkpt><trkpt lat="44.38945567609445" lon="11.274770850273713"><ele>191.99999999999997</ele><time>2026-04-06T12:51:01Z</time></trkpt><trkpt lat="44.389516189735524" lon="11.27471779272417"><ele>192.0</ele><time>2026-04-06T12:51:06Z</time></trkpt><trkpt lat="44.389583879108834" lon="11.274674402814295"><ele>192.0</ele><time>2026-04-06T12:51:12.001Z</time></trkpt><trkpt lat="44.38965018375043" lon="11.274652525651938"><ele>192.0</ele><time>2026-04-06T12:51:17.001Z</time></trkpt><trkpt lat="44.389719777218495" lon="11.274659360542827"><ele>192.0</ele><time>2026-04-06T12:51:22Z</time></trkpt><trkpt lat="44.3897872167443" lon="11.274632101098785"><ele>191.99999999999997</ele><time>2026-04-06T12:51:28Z</time></trkpt><trkpt lat="44.389856554048485" lon="11.274614366229342"><ele>192.0</ele><time>2026-04-06T12:51:35Z</time></trkpt><trkpt lat="44.389904591645774" lon="11.2745517983457"><ele>191.99999999999997</ele><time>2026-04-06T12:51:42Z</time></trkpt><trkpt lat="44.38994773396141" lon="11.27448567583112"><ele>192.0</ele><time>2026-04-06T12:51:48Z</time></trkpt><trkpt lat="44.38999225357893" lon="11.274421041463201"><ele>192.0</ele><time>2026-04-06T12:51:54Z</time></trkpt><trkpt lat="44.39003825642328" lon="11.274340562054366"><ele>192.0</ele><time>2026-04-06T12:52:00Z</time></trkpt><trkpt lat="44.390096148172795" lon="11.274284480806832"><ele>192.0</ele><time>2026-04-06T12:52:07Z</time></trkpt><trkpt lat="44.39016251787793" lon="11.274318417892587"><ele>191.99999999999997</ele><time>2026-04-06T12:52:14Z</time></trkpt><trkpt lat="44.39022175570268" lon="11.274352333660456"><ele>192.0</ele><time>2026-04-06T12:52:21Z</time></trkpt><trkpt lat="44.39028692269384" lon="11.274399983088408"><ele>191.99999999999997</ele><time>2026-04-06T12:52:27Z</time></trkpt><trkpt lat="44.39034890430234" lon="11.274430963218428"><ele>192.0</ele><time>2026-04-06T12:52:33Z</time></trkpt><trkpt lat="44.3904145590516" lon="11.274479485919679"><ele>192.0</ele><time>2026-04-06T12:52:39Z</time></trkpt><trkpt lat="44.3904976759526" lon="11.274526463571826"><ele>192.0</ele><time>2026-04-06T12:52:47Z</time></trkpt><trkpt lat="44.3905226986846" lon="11.274611774211522"><ele>192.0</ele><time>2026-04-06T12:52:54Z</time></trkpt><trkpt lat="44.39056859921458" lon="11.27468096489906"><ele>191.99999999999997</ele><time>2026-04-06T12:52:59Z</time></trkpt><trkpt lat="44.39062174154467" lon="11.274730717816533"><ele>192.0</ele><time>2026-04-06T12:53:04Z</time></trkpt><trkpt lat="44.390676614380354" lon="11.274789909786533"><ele>190.14285714285714</ele><time>2026-04-06T12:53:12Z</time></trkpt><trkpt lat="44.39071164724084" lon="11.274865773569527"><ele>188.28571428571428</ele><time>2026-04-06T12:53:47Z</time></trkpt><trkpt lat="44.390766798385386" lon="11.274920328763136"><ele>186.42857142857144</ele><time>2026-04-06T12:54:19Z</time></trkpt><trkpt lat="44.390819795261535" lon="11.274968428985183"><ele>184.57142857142856</ele><time>2026-04-06T12:54:26Z</time></trkpt><trkpt lat="44.39087353890945" lon="11.275049732918898"><ele>182.71428571428572</ele><time>2026-04-06T12:54:32Z</time></trkpt><trkpt lat="44.39090813594446" lon="11.275128416378202"><ele>180.85714285714286</ele><time>2026-04-06T12:54:38Z</time></trkpt><trkpt lat="44.39093363281472" lon="11.275218468824555"><ele>179.0</ele><time>2026-04-06T12:54:44Z</time></trkpt><trkpt lat="44.39096507276772" lon="11.275310856144907"><ele>179.00000000000003</ele><time>2026-04-06T12:54:49.001Z</time></trkpt><trkpt lat="44.390994609221416" lon="11.27539206220628"><ele>179.0</ele><time>2026-04-06T12:54:56.001Z</time></trkpt><trkpt lat="44.3910245824836" lon="11.275478176500803"><ele>179.0</ele><time>2026-04-06T12:55:02.001Z</time></trkpt><trkpt lat="44.3910455169321" lon="11.275562286773335"><ele>179.0</ele><time>2026-04-06T12:55:08.001Z</time></trkpt><trkpt lat="44.39108275497793" lon="11.275643815247514"><ele>179.0</ele><time>2026-04-06T12:55:15.001Z</time></trkpt><trkpt lat="44.391109591812835" lon="11.275740780160827"><ele>179.00000000000003</ele><time>2026-04-06T12:55:21.001Z</time></trkpt><trkpt lat="44.39113025673286" lon="11.275825293346134"><ele>179.0</ele><time>2026-04-06T12:55:27.001Z</time></trkpt><trkpt lat="44.39117989570817" lon="11.275899178091302"><ele>177.85714285714286</ele><time>2026-04-06T12:55:33.001Z</time></trkpt><trkpt lat="44.39121470809903" lon="11.275977681306863"><ele>176.71428571428572</ele><time>2026-04-06T12:55:39.001Z</time></trkpt><trkpt lat="44.39125354354516" lon="11.276048492314025"><ele>175.57142857142856</ele><time>2026-04-06T12:55:45Z</time></trkpt><trkpt lat="44.391293257394835" lon="11.276117014389406"><ele>174.42857142857144</ele><time>2026-04-06T12:55:51Z</time></trkpt><trkpt lat="44.39133046912909" lon="11.276190702439843"><ele>173.28571428571428</ele><time>2026-04-06T12:55:55Z</time></trkpt><trkpt lat="44.39136365817237" lon="11.276268774157344"><ele>172.14285714285714</ele><time>2026-04-06T12:56:00Z</time></trkpt><trkpt lat="44.39140439196871" lon="11.2763493858391"><ele>171.0</ele><time>2026-04-06T12:56:06Z</time></trkpt><trkpt lat="44.39145390606662" lon="11.27642325084465"><ele>169.14285714285714</ele><time>2026-04-06T12:56:12Z</time></trkpt><trkpt lat="44.39149057455627" lon="11.27650120994794"><ele>167.28571428571428</ele><time>2026-04-06T12:56:17Z</time></trkpt><trkpt lat="44.3915349281059" lon="11.276585072238541"><ele>165.42857142857144</ele><time>2026-04-06T12:56:22Z</time></trkpt><trkpt lat="44.39157865945555" lon="11.276674876869684"><ele>163.57142857142856</ele><time>2026-04-06T12:56:28Z</time></trkpt><trkpt lat="44.39162098247408" lon="11.276740989711037"><ele>161.71428571428572</ele><time>2026-04-06T12:56:35Z</time></trkpt><trkpt lat="44.39167375688024" lon="11.27679349707235"><ele>159.85714285714286</ele><time>2026-04-06T12:56:40Z</time></trkpt><trkpt lat="44.39173754928348" lon="11.27684122483263"><ele>158.0</ele><time>2026-04-06T12:56:45.001Z</time></trkpt><trkpt lat="44.39188948704059" lon="11.276881152437863"><ele>158.0</ele><time>2026-04-06T12:57:00.001Z</time></trkpt><trkpt lat="44.39195001591073" lon="11.27692344836534"><ele>158.0</ele><time>2026-04-06T12:57:16.001Z</time></trkpt><trkpt lat="44.39201585121685" lon="11.276953816891114"><ele>158.0</ele><time>2026-04-06T12:57:22.001Z</time></trkpt><trkpt lat="44.392083693823444" lon="11.276958789200382"><ele>158.0</ele><time>2026-04-06T12:57:28.001Z</time></trkpt><trkpt lat="44.392268325436326" lon="11.276963537795357"><ele>158.0</ele><time>2026-04-06T12:57:44Z</time></trkpt><trkpt lat="44.39234493071755" lon="11.277002026145297"><ele>156.20000000000002</ele><time>2026-04-06T12:57:50Z</time></trkpt><trkpt lat="44.39248179692916" lon="11.277026241100929"><ele>154.4</ele><time>2026-04-06T12:58:01Z</time></trkpt><trkpt lat="44.39253805546017" lon="11.276968938012432"><ele>152.60000000000002</ele><time>2026-04-06T12:58:07Z</time></trkpt><trkpt lat="44.39259124189208" lon="11.27691309113002"><ele>150.8</ele><time>2026-04-06T12:58:12Z</time></trkpt><trkpt lat="44.392686803942816" lon="11.276847489278307"><ele>149.0</ele><time>2026-04-06T12:59:31.001Z</time></trkpt><trkpt lat="44.39275642014323" lon="11.276846783013381"><ele>149.0</ele><time>2026-04-06T12:59:39.001Z</time></trkpt><trkpt lat="44.392812980909454" lon="11.276886507091906"><ele>149.0</ele><time>2026-04-06T12:59:46Z</time></trkpt><trkpt lat="44.39287090233736" lon="11.276924945584314"><ele>149.0</ele><time>2026-04-06T12:59:53Z</time></trkpt><trkpt lat="44.39292623189752" lon="11.276973498684864"><ele>149.0</ele><time>2026-04-06T13:00:00Z</time></trkpt><trkpt lat="44.392978126934196" lon="11.27704024216545"><ele>149.0</ele><time>2026-04-06T13:00:06Z</time></trkpt><trkpt lat="44.39303012504443" lon="11.277090755046792"><ele>149.0</ele><time>2026-04-06T13:00:13Z</time></trkpt><trkpt lat="44.39307919865328" lon="11.27715767581802"><ele>149.0</ele><time>2026-04-06T13:00:20Z</time></trkpt><trkpt lat="44.39313905570816" lon="11.277204375746127"><ele>148.85714285714286</ele><time>2026-04-06T13:00:26Z</time></trkpt><trkpt lat="44.393194120825406" lon="11.277257297801683"><ele>148.7142857142857</ele><time>2026-04-06T13:00:30Z</time></trkpt><trkpt lat="44.393237829536766" lon="11.277324752134621"><ele>148.57142857142856</ele><time>2026-04-06T13:00:35Z</time></trkpt><trkpt lat="44.39329332662945" lon="11.277397235714622"><ele>148.42857142857142</ele><time>2026-04-06T13:00:41Z</time></trkpt><trkpt lat="44.393345005375394" lon="11.277458539947157"><ele>148.28571428571428</ele><time>2026-04-06T13:00:46Z</time></trkpt><trkpt lat="44.39339026991286" lon="11.277532348184724"><ele>148.14285714285714</ele><time>2026-04-06T13:00:51Z</time></trkpt><trkpt lat="44.39343446764663" lon="11.277600441180256"><ele>148.0</ele><time>2026-04-06T13:00:56Z</time></trkpt><trkpt lat="44.393472115415406" lon="11.277684079574644"><ele>146.0</ele><time>2026-04-06T13:01:02Z</time></trkpt><trkpt lat="44.39353160193559" lon="11.27773296279584"><ele>144.0</ele><time>2026-04-06T13:01:08Z</time></trkpt><trkpt lat="44.39358977612908" lon="11.277779311014342"><ele>142.0</ele><time>2026-04-06T13:01:13Z</time></trkpt><trkpt lat="44.39365034358149" lon="11.277834412003088"><ele>140.0</ele><time>2026-04-06T13:01:18Z</time></trkpt><trkpt lat="44.39371786811345" lon="11.277897339878942"><ele>138.0</ele><time>2026-04-06T13:01:24Z</time></trkpt><trkpt lat="44.39378397459414" lon="11.277922490658915"><ele>136.0</ele><time>2026-04-06T13:01:29Z</time></trkpt><trkpt lat="44.393848257673206" lon="11.277922028194343"><ele>134.0</ele><time>2026-04-06T13:01:34Z</time></trkpt><trkpt lat="44.39391887408684" lon="11.277945283762163"><ele>134.0</ele><time>2026-04-06T13:01:39Z</time></trkpt><trkpt lat="44.393985932273374" lon="11.277955109749804"><ele>134.0</ele><time>2026-04-06T13:01:44Z</time></trkpt><trkpt lat="44.39405778243404" lon="11.277980570800922"><ele>134.0</ele><time>2026-04-06T13:01:49Z</time></trkpt><trkpt lat="44.39411337900484" lon="11.27803390926191"><ele>134.0</ele><time>2026-04-06T13:01:57Z</time></trkpt><trkpt lat="44.39406412721669" lon="11.278099871156988"><ele>134.0</ele><time>2026-04-06T13:02:02Z</time></trkpt><trkpt lat="44.39402514389225" lon="11.278175567109283"><ele>134.0</ele><time>2026-04-06T13:02:07Z</time></trkpt><trkpt lat="44.39400314740067" lon="11.278267824340585"><ele>134.0</ele><time>2026-04-06T13:02:12Z</time></trkpt><trkpt lat="44.39397434738698" lon="11.278366190288356"><ele>132.0</ele><time>2026-04-06T13:02:18Z</time></trkpt><trkpt lat="44.39398311411879" lon="11.278473283454373"><ele>130.0</ele><time>2026-04-06T13:02:24Z</time></trkpt><trkpt lat="44.394008156450326" lon="11.278560184604801"><ele>128.0</ele><time>2026-04-06T13:02:29Z</time></trkpt><trkpt lat="44.39404123430488" lon="11.278636093131471"><ele>126.0</ele><time>2026-04-06T13:02:34Z</time></trkpt><trkpt lat="44.394082495818665" lon="11.27870607334465"><ele>124.0</ele><time>2026-04-06T13:02:39Z</time></trkpt><trkpt lat="44.39413661982209" lon="11.27878633096885"><ele>122.0</ele><time>2026-04-06T13:02:45Z</time></trkpt><trkpt lat="44.39419072758179" lon="11.278863761832875"><ele>120.0</ele><time>2026-04-06T13:02:51Z</time></trkpt><trkpt lat="44.394240380052146" lon="11.278929970669608"><ele>119.57142857142858</ele><time>2026-04-06T13:02:56Z</time></trkpt><trkpt lat="44.394292067748445" lon="11.278989040196755"><ele>119.14285714285714</ele><time>2026-04-06T13:03:01Z</time></trkpt><trkpt lat="44.39433824541851" lon="11.279051547408248"><ele>118.71428571428572</ele><time>2026-04-06T13:03:06Z</time></trkpt><trkpt lat="44.39439387718426" lon="11.279120491904328"><ele>118.28571428571429</ele><time>2026-04-06T13:03:12Z</time></trkpt><trkpt lat="44.394445823884446" lon="11.279176436869818"><ele>117.85714285714286</ele><time>2026-04-06T13:03:17Z</time></trkpt><trkpt lat="44.394502053324736" lon="11.279226957691288"><ele>117.42857142857143</ele><time>2026-04-06T13:03:22Z</time></trkpt><trkpt lat="44.394556618804415" lon="11.27927994271829"><ele>117.0</ele><time>2026-04-06T13:03:27Z</time></trkpt><trkpt lat="44.39461566997756" lon="11.27932344140362"><ele>117.14285714285715</ele><time>2026-04-06T13:03:32Z</time></trkpt><trkpt lat="44.39467858987302" lon="11.279379370675713"><ele>117.2857142857143</ele><time>2026-04-06T13:03:38Z</time></trkpt><trkpt lat="44.394745838423454" lon="11.27941096972123"><ele>117.42857142857143</ele><time>2026-04-06T13:03:43Z</time></trkpt><trkpt lat="44.39481672242374" lon="11.279444373618308"><ele>117.57142857142858</ele><time>2026-04-06T13:03:49Z</time></trkpt><trkpt lat="44.394884526633966" lon="11.27946716328893"><ele>117.71428571428572</ele><time>2026-04-06T13:03:54.999Z</time></trkpt><trkpt lat="44.394948441036384" lon="11.27949270208949"><ele>117.85714285714286</ele><time>2026-04-06T13:03:59.999Z</time></trkpt><trkpt lat="44.39502633807834" lon="11.27951832174265"><ele>118.0</ele><time>2026-04-06T13:04:05.999Z</time></trkpt><trkpt lat="44.395091353829336" lon="11.279540162332948"><ele>118.0</ele><time>2026-04-06T13:04:10.999Z</time></trkpt><trkpt lat="44.3951634266483" lon="11.279563849228326"><ele>118.0</ele><time>2026-04-06T13:04:15.999Z</time></trkpt><trkpt lat="44.39522925415201" lon="11.279598508998276"><ele>118.0</ele><time>2026-04-06T13:04:20.999Z</time></trkpt><trkpt lat="44.39528554229176" lon="11.279642084501663"><ele>118.0</ele><time>2026-04-06T13:04:26Z</time></trkpt><trkpt lat="44.39533499270693" lon="11.279707596230175"><ele>118.0</ele><time>2026-04-06T13:04:31Z</time></trkpt><trkpt lat="44.39537687067331" lon="11.279781090842542"><ele>118.0</ele><time>2026-04-06T13:04:36Z</time></trkpt><trkpt lat="44.395411566938414" lon="11.279860210294697"><ele>118.0</ele><time>2026-04-06T13:04:41Z</time></trkpt><trkpt lat="44.395438036711205" lon="11.279943565303338"><ele>117.57142857142857</ele><time>2026-04-06T13:04:46Z</time></trkpt><trkpt lat="44.395457142325164" lon="11.280035390398785"><ele>117.14285714285714</ele><time>2026-04-06T13:04:51Z</time></trkpt><trkpt lat="44.39546557177786" lon="11.28012887456845"><ele>116.71428571428571</ele><time>2026-04-06T13:04:56Z</time></trkpt><trkpt lat="44.3954688968863" lon="11.280222683548592"><ele>116.28571428571428</ele><time>2026-04-06T13:05:01Z</time></trkpt><trkpt lat="44.39546996780561" lon="11.280318261530955"><ele>115.85714285714286</ele><time>2026-04-06T13:05:06Z</time></trkpt><trkpt lat="44.3954640496736" lon="11.280411829298416"><ele>115.42857142857142</ele><time>2026-04-06T13:05:11Z</time></trkpt><trkpt lat="44.39545512501437" lon="11.280513872622965"><ele>114.99999999999999</ele><time>2026-04-06T13:05:16Z</time></trkpt><trkpt lat="44.39544873416318" lon="11.2806158995188"><ele>114.99999999999999</ele><time>2026-04-06T13:05:21Z</time></trkpt><trkpt lat="44.395437860871525" lon="11.280713744528487"><ele>115.0</ele><time>2026-04-06T13:05:26Z</time></trkpt><trkpt lat="44.3954287727447" lon="11.280811999015212"><ele>114.99999999999999</ele><time>2026-04-06T13:05:31Z</time></trkpt><trkpt lat="44.39541711760054" lon="11.280904010162955"><ele>114.99999999999999</ele><time>2026-04-06T13:05:36Z</time></trkpt><trkpt lat="44.39540923372525" lon="11.281001503731595"><ele>115.0</ele><time>2026-04-06T13:05:41Z</time></trkpt><trkpt lat="44.39539990997355" lon="11.281101278511027"><ele>114.99999999999999</ele><time>2026-04-06T13:05:46Z</time></trkpt><trkpt lat="44.3953926956799" lon="11.281201185315627"><ele>114.99999999999999</ele><time>2026-04-06T13:05:51Z</time></trkpt><trkpt lat="44.3953920497518" lon="11.281298210705991"><ele>114.99999999999999</ele><time>2026-04-06T13:05:56Z</time></trkpt><trkpt lat="44.39538912873345" lon="11.281392766084897"><ele>115.0</ele><time>2026-04-06T13:06:00.999Z</time></trkpt><trkpt lat="44.39538770525965" lon="11.281502085772514"><ele>114.99999999999999</ele><time>2026-04-06T13:06:06.999Z</time></trkpt><trkpt lat="44.39538958712541" lon="11.2816007323566"><ele>114.99999999999999</ele><time>2026-04-06T13:06:11.999Z</time></trkpt><trkpt lat="44.39539655444197" lon="11.281689138821363"><ele>115.0</ele><time>2026-04-06T13:06:16.999Z</time></trkpt><trkpt lat="44.39540452495781" lon="11.281783249308708"><ele>114.99999999999999</ele><time>2026-04-06T13:06:21.999Z</time></trkpt><trkpt lat="44.39541378898292" lon="11.281887027208578"><ele>114.99999999999999</ele><time>2026-04-06T13:06:26.999Z</time></trkpt><trkpt lat="44.39542648569456" lon="11.281983663612436"><ele>114.99999999999999</ele><time>2026-04-06T13:06:31.999Z</time></trkpt><trkpt lat="44.395440174923124" lon="11.282074933956892"><ele>115.0</ele><time>2026-04-06T13:06:36.999Z</time></trkpt><trkpt lat="44.39545568905563" lon="11.28216896464777"><ele>114.99999999999999</ele><time>2026-04-06T13:06:41.999Z</time></trkpt><trkpt lat="44.39547042168603" lon="11.282264087245057"><ele>114.99999999999999</ele><time>2026-04-06T13:06:47Z</time></trkpt><trkpt lat="44.39548573933842" lon="11.2823613061616"><ele>115.0</ele><time>2026-04-06T13:06:52Z</time></trkpt><trkpt lat="44.395498448344256" lon="11.282460053295228"><ele>114.99999999999999</ele><time>2026-04-06T13:06:57Z</time></trkpt><trkpt lat="44.39551075712209" lon="11.282558072256917"><ele>114.99999999999999</ele><time>2026-04-06T13:07:02Z</time></trkpt><trkpt lat="44.395517567902694" lon="11.282656461332392"><ele>112.99999999999999</ele><time>2026-04-06T13:07:07Z</time></trkpt><trkpt lat="44.39552749827261" lon="11.28275431902771"><ele>111.0</ele><time>2026-04-06T13:07:12Z</time></trkpt><trkpt lat="44.39553813847677" lon="11.28284974208108"><ele>109.0</ele><time>2026-04-06T13:07:17Z</time></trkpt><trkpt lat="44.39553667550782" lon="11.282946209838531"><ele>107.0</ele><time>2026-04-06T13:07:22Z</time></trkpt><trkpt lat="44.395536691422365" lon="11.283047816655234"><ele>105.0</ele><time>2026-04-06T13:07:27Z</time></trkpt><trkpt lat="44.39554711533372" lon="11.283148204182869"><ele>103.0</ele><time>2026-04-06T13:07:32Z</time></trkpt><trkpt lat="44.395559413387886" lon="11.283242783713568"><ele>101.0</ele><time>2026-04-06T13:07:37Z</time></trkpt><trkpt lat="44.39557077793076" lon="11.283336730114032"><ele>101.0</ele><time>2026-04-06T13:07:42Z</time></trkpt><trkpt lat="44.39557809420384" lon="11.283431501400706"><ele>101.0</ele><time>2026-04-06T13:07:47Z</time></trkpt><trkpt lat="44.39559038806794" lon="11.283522464786584"><ele>101.0</ele><time>2026-04-06T13:07:52Z</time></trkpt><trkpt lat="44.39560668797174" lon="11.283614575912454"><ele>101.0</ele><time>2026-04-06T13:07:57Z</time></trkpt><trkpt lat="44.395617760898936" lon="11.283709700582953"><ele>101.0</ele><time>2026-04-06T13:08:02Z</time></trkpt><trkpt lat="44.39563485157641" lon="11.283803370693544"><ele>101.0</ele><time>2026-04-06T13:08:06.999Z</time></trkpt><trkpt lat="44.39564640812257" lon="11.28389620840906"><ele>101.0</ele><time>2026-04-06T13:08:11.999Z</time></trkpt><trkpt lat="44.39565667176848" lon="11.283986686913236"><ele>101.57142857142857</ele><time>2026-04-06T13:08:16.999Z</time></trkpt><trkpt lat="44.39567022787558" lon="11.28408415338248"><ele>102.14285714285714</ele><time>2026-04-06T13:08:21.999Z</time></trkpt><trkpt lat="44.39568545649876" lon="11.284172825527476"><ele>102.71428571428572</ele><time>2026-04-06T13:08:26.999Z</time></trkpt><trkpt lat="44.395683873968544" lon="11.284265519330775"><ele>103.28571428571428</ele><time>2026-04-06T13:08:31.999Z</time></trkpt><trkpt lat="44.395684232636206" lon="11.284363861821623"><ele>103.85714285714286</ele><time>2026-04-06T13:08:36.999Z</time></trkpt><trkpt lat="44.39567714367663" lon="11.28447339336899"><ele>104.42857142857143</ele><time>2026-04-06T13:08:42.999Z</time></trkpt><trkpt lat="44.39566475650925" lon="11.284583328813481"><ele>105.0</ele><time>2026-04-06T13:08:49Z</time></trkpt><trkpt lat="44.395659340652514" lon="11.284685348279524"><ele>106.0</ele><time>2026-04-06T13:08:54.001Z</time></trkpt><trkpt lat="44.395664604664994" lon="11.28479162445012"><ele>107.0</ele><time>2026-04-06T13:08:59.001Z</time></trkpt><trkpt lat="44.39566151821868" lon="11.284880020789853"><ele>108.0</ele><time>2026-04-06T13:09:04.001Z</time></trkpt><trkpt lat="44.395630574735456" lon="11.284967837523434"><ele>109.0</ele><time>2026-04-06T13:09:10.001Z</time></trkpt><trkpt lat="44.395618741569336" lon="11.285060724691945"><ele>110.0</ele><time>2026-04-06T13:09:15.001Z</time></trkpt><trkpt lat="44.395604397320334" lon="11.285164109568894"><ele>111.0</ele><time>2026-04-06T13:09:20.001Z</time></trkpt><trkpt lat="44.39559614913346" lon="11.285263989360947"><ele>112.0</ele><time>2026-04-06T13:09:25.001Z</time></trkpt><trkpt lat="44.39558163598445" lon="11.285361079496589"><ele>112.0</ele><time>2026-04-06T13:09:30.001Z</time></trkpt><trkpt lat="44.395566164808635" lon="11.285458772350738"><ele>112.0</ele><time>2026-04-06T13:09:35.001Z</time></trkpt><trkpt lat="44.39554917361205" lon="11.285550094829576"><ele>112.0</ele><time>2026-04-06T13:09:40.001Z</time></trkpt><trkpt lat="44.395537724720604" lon="11.285651041903243"><ele>112.0</ele><time>2026-04-06T13:09:45.001Z</time></trkpt><trkpt lat="44.39552999464845" lon="11.285748068398041"><ele>112.0</ele><time>2026-04-06T13:09:50.001Z</time></trkpt><trkpt lat="44.395516086878224" lon="11.285841122646861"><ele>112.0</ele><time>2026-04-06T13:09:55.001Z</time></trkpt><trkpt lat="44.39550323575095" lon="11.285935405446395"><ele>112.0</ele><time>2026-04-06T13:10:00.001Z</time></trkpt><trkpt lat="44.39549574654097" lon="11.286030789795065"><ele>111.42857142857143</ele><time>2026-04-06T13:10:05.001Z</time></trkpt><trkpt lat="44.395489663827306" lon="11.286126469930291"><ele>110.85714285714286</ele><time>2026-04-06T13:10:10.001Z</time></trkpt><trkpt lat="44.39547885602776" lon="11.286220754041432"><ele>110.28571428571428</ele><time>2026-04-06T13:10:15Z</time></trkpt><trkpt lat="44.39546339567712" lon="11.286323921092624"><ele>109.71428571428572</ele><time>2026-04-06T13:10:20Z</time></trkpt><trkpt lat="44.395443420349416" lon="11.286424359347222"><ele>109.14285714285714</ele><time>2026-04-06T13:10:25Z</time></trkpt><trkpt lat="44.39542786769067" lon="11.286527203231234"><ele>108.57142857142857</ele><time>2026-04-06T13:10:30Z</time></trkpt><trkpt lat="44.39541144933614" lon="11.28662670101844"><ele>108.0</ele><time>2026-04-06T13:10:35Z</time></trkpt><trkpt lat="44.39539317282256" lon="11.286721280118892"><ele>108.0</ele><time>2026-04-06T13:10:40Z</time></trkpt><trkpt lat="44.39537962835786" lon="11.286816466216171"><ele>108.0</ele><time>2026-04-06T13:10:45Z</time></trkpt><trkpt lat="44.39537582050413" lon="11.286921680909362"><ele>108.0</ele><time>2026-04-06T13:10:50Z</time></trkpt><trkpt lat="44.395379348405385" lon="11.287026840990537"><ele>108.0</ele><time>2026-04-06T13:10:55Z</time></trkpt><trkpt lat="44.39537961551076" lon="11.287125554531352"><ele>108.0</ele><time>2026-04-06T13:11:00Z</time></trkpt><trkpt lat="44.39537794761546" lon="11.28722236532292"><ele>108.0</ele><time>2026-04-06T13:11:05Z</time></trkpt><trkpt lat="44.39539375967236" lon="11.287315266252328"><ele>108.0</ele><time>2026-04-06T13:11:10.001Z</time></trkpt><trkpt lat="44.39542106232626" lon="11.287408017132169"><ele>108.57142857142857</ele><time>2026-04-06T13:11:15.001Z</time></trkpt><trkpt lat="44.39544466862623" lon="11.287501536966712"><ele>109.14285714285714</ele><time>2026-04-06T13:11:20.001Z</time></trkpt><trkpt lat="44.39548386083065" lon="11.287582634073193"><ele>109.71428571428572</ele><time>2026-04-06T13:11:25.001Z</time></trkpt><trkpt lat="44.3955293017857" lon="11.287654865203734"><ele>110.28571428571428</ele><time>2026-04-06T13:11:30.001Z</time></trkpt><trkpt lat="44.39557094956239" lon="11.287737720297722"><ele>110.85714285714286</ele><time>2026-04-06T13:11:35.001Z</time></trkpt><trkpt lat="44.395615192090425" lon="11.287808002211467"><ele>111.42857142857143</ele><time>2026-04-06T13:11:40.001Z</time></trkpt><trkpt lat="44.3956702679195" lon="11.28786807974865"><ele>112.0</ele><time>2026-04-06T13:11:45.001Z</time></trkpt><trkpt lat="44.39572276852578" lon="11.287929877192811"><ele>112.0</ele><time>2026-04-06T13:11:50.001Z</time></trkpt><trkpt lat="44.39577479773633" lon="11.287990665500443"><ele>112.0</ele><time>2026-04-06T13:11:55.001Z</time></trkpt><trkpt lat="44.39582775041336" lon="11.28805576875585"><ele>112.0</ele><time>2026-04-06T13:12:00.001Z</time></trkpt><trkpt lat="44.39588553964936" lon="11.288113648523098"><ele>112.0</ele><time>2026-04-06T13:12:05.001Z</time></trkpt><trkpt lat="44.39594814120767" lon="11.288167606442194"><ele>112.0</ele><time>2026-04-06T13:12:10.001Z</time></trkpt><trkpt lat="44.396009345114486" lon="11.288229939859914"><ele>112.0</ele><time>2026-04-06T13:12:15.001Z</time></trkpt><trkpt lat="44.396057374759856" lon="11.288302606433215"><ele>112.0</ele><time>2026-04-06T13:12:20Z</time></trkpt><trkpt lat="44.39612235791866" lon="11.288354172712083"><ele>112.28571428571428</ele><time>2026-04-06T13:12:25Z</time></trkpt><trkpt lat="44.39618254369428" lon="11.288404852943092"><ele>112.57142857142857</ele><time>2026-04-06T13:12:30Z</time></trkpt><trkpt lat="44.396243478926294" lon="11.288443532460258"><ele>112.85714285714286</ele><time>2026-04-06T13:12:35Z</time></trkpt><trkpt lat="44.39629829202331" lon="11.28849030340894"><ele>113.14285714285714</ele><time>2026-04-06T13:12:40Z</time></trkpt><trkpt lat="44.396358950908194" lon="11.288529551466917"><ele>113.42857142857142</ele><time>2026-04-06T13:12:45Z</time></trkpt><trkpt lat="44.3964195739817" lon="11.288570404404059"><ele>113.71428571428571</ele><time>2026-04-06T13:12:50Z</time></trkpt><trkpt lat="44.3964806523808" lon="11.288614364925897"><ele>114.0</ele><time>2026-04-06T13:12:55Z</time></trkpt><trkpt lat="44.39653384299205" lon="11.288668822326752"><ele>114.0</ele><time>2026-04-06T13:13:00Z</time></trkpt><trkpt lat="44.396564849793535" lon="11.28874821768557"><ele>113.99999999999999</ele><time>2026-04-06T13:13:05.001Z</time></trkpt><trkpt lat="44.396599377906064" lon="11.28882851160686"><ele>114.0</ele><time>2026-04-06T13:13:10.001Z</time></trkpt><trkpt lat="44.39662463882076" lon="11.288909876218698"><ele>114.0</ele><time>2026-04-06T13:13:15.001Z</time></trkpt><trkpt lat="44.39664285849602" lon="11.288996056346637"><ele>113.99999999999999</ele><time>2026-04-06T13:13:20.001Z</time></trkpt><trkpt lat="44.39664972153515" lon="11.289093476765997"><ele>114.0</ele><time>2026-04-06T13:13:26.001Z</time></trkpt><trkpt lat="44.39666141093422" lon="11.289181444634744"><ele>114.0</ele><time>2026-04-06T13:13:31.001Z</time></trkpt><trkpt lat="44.396650678506134" lon="11.289282539914232"><ele>114.57142857142857</ele><time>2026-04-06T13:13:36.001Z</time></trkpt><trkpt lat="44.39662274279014" lon="11.289380677788259"><ele>115.14285714285714</ele><time>2026-04-06T13:13:42.001Z</time></trkpt><trkpt lat="44.3965955374708" lon="11.289460942792541"><ele>115.71428571428571</ele><time>2026-04-06T13:13:47.001Z</time></trkpt><trkpt lat="44.396554542740255" lon="11.289554470606927"><ele>116.28571428571428</ele><time>2026-04-06T13:13:52.001Z</time></trkpt><trkpt lat="44.39655479563159" lon="11.289650794702894"><ele>116.85714285714286</ele><time>2026-04-06T13:13:57.001Z</time></trkpt><trkpt lat="44.39654412128283" lon="11.289742994740818"><ele>117.42857142857142</ele><time>2026-04-06T13:14:02.001Z</time></trkpt><trkpt lat="44.39651437242764" lon="11.289827420721783"><ele>118.0</ele><time>2026-04-06T13:14:07.001Z</time></trkpt><trkpt lat="44.396500778987075" lon="11.289933430994276"><ele>119.14285714285714</ele><time>2026-04-06T13:14:12.001Z</time></trkpt><trkpt lat="44.396473406577854" lon="11.290025557773706"><ele>120.28571428571429</ele><time>2026-04-06T13:14:17.001Z</time></trkpt><trkpt lat="44.39643979469609" lon="11.29012288345706"><ele>121.42857142857143</ele><time>2026-04-06T13:14:23.001Z</time></trkpt><trkpt lat="44.396400081292455" lon="11.290213642136946"><ele>122.57142857142857</ele><time>2026-04-06T13:14:29Z</time></trkpt><trkpt lat="44.39636832229567" lon="11.290293342896916"><ele>123.71428571428572</ele><time>2026-04-06T13:14:34Z</time></trkpt><trkpt lat="44.39633800976465" lon="11.290386505741413"><ele>124.85714285714286</ele><time>2026-04-06T13:14:39Z</time></trkpt><trkpt lat="44.39630521381535" lon="11.29046543498189"><ele>126.0</ele><time>2026-04-06T13:14:44.001Z</time></trkpt><trkpt lat="44.396270223219624" lon="11.290560869989653"><ele>127.57142857142857</ele><time>2026-04-06T13:14:50.001Z</time></trkpt><trkpt lat="44.39623621953214" lon="11.290647288258452"><ele>129.14285714285714</ele><time>2026-04-06T13:14:55.001Z</time></trkpt><trkpt lat="44.396196802693574" lon="11.29074077700046"><ele>130.71428571428572</ele><time>2026-04-06T13:15:01.001Z</time></trkpt><trkpt lat="44.39616197453372" lon="11.290825100870578"><ele>132.28571428571428</ele><time>2026-04-06T13:15:06.001Z</time></trkpt><trkpt lat="44.396138891647254" lon="11.2909096230852"><ele>133.85714285714286</ele><time>2026-04-06T13:15:11.001Z</time></trkpt><trkpt lat="44.39611180579774" lon="11.291003556779552"><ele>135.42857142857144</ele><time>2026-04-06T13:15:16.001Z</time></trkpt><trkpt lat="44.39609023299267" lon="11.29110285060166"><ele>137.0</ele><time>2026-04-06T13:15:22.001Z</time></trkpt><trkpt lat="44.396076148057176" lon="11.291195676618162"><ele>137.00000000000003</ele><time>2026-04-06T13:15:27.001Z</time></trkpt><trkpt lat="44.39605542710071" lon="11.291296789238709"><ele>137.0</ele><time>2026-04-06T13:15:33.001Z</time></trkpt><trkpt lat="44.39604103115118" lon="11.291386105619976"><ele>137.0</ele><time>2026-04-06T13:15:38.001Z</time></trkpt><trkpt lat="44.396040933666576" lon="11.291477041178858"><ele>137.0</ele><time>2026-04-06T13:15:43.001Z</time></trkpt><trkpt lat="44.39604020269976" lon="11.29157869330699"><ele>137.0</ele><time>2026-04-06T13:15:49.001Z</time></trkpt><trkpt lat="44.39605276828115" lon="11.291672333224817"><ele>137.00000000000003</ele><time>2026-04-06T13:15:54.001Z</time></trkpt><trkpt lat="44.39606207610484" lon="11.29176353575566"><ele>137.0</ele><time>2026-04-06T13:15:59.001Z</time></trkpt><trkpt lat="44.396074779417816" lon="11.29185139594649"><ele>137.57142857142858</ele><time>2026-04-06T13:16:04.001Z</time></trkpt><trkpt lat="44.39609323918381" lon="11.291954719730038"><ele>138.14285714285714</ele><time>2026-04-06T13:16:10.001Z</time></trkpt><trkpt lat="44.39612641072849" lon="11.292036092717236"><ele>138.71428571428572</ele><time>2026-04-06T13:16:15.001Z</time></trkpt><trkpt lat="44.39616524611264" lon="11.292106568563776"><ele>139.28571428571428</ele><time>2026-04-06T13:16:20.001Z</time></trkpt><trkpt lat="44.396215168086314" lon="11.292167806680315"><ele>139.85714285714286</ele><time>2026-04-06T13:16:25.001Z</time></trkpt><trkpt lat="44.396265338400724" lon="11.29222336484737"><ele>140.42857142857144</ele><time>2026-04-06T13:16:30.001Z</time></trkpt><trkpt lat="44.3963274152943" lon="11.292284225179069"><ele>141.0</ele><time>2026-04-06T13:16:36.001Z</time></trkpt><trkpt lat="44.39637741936599" lon="11.29234052631229"><ele>142.57142857142858</ele><time>2026-04-06T13:16:41.001Z</time></trkpt><trkpt lat="44.39643022796051" lon="11.2923996238787"><ele>144.14285714285714</ele><time>2026-04-06T13:16:46.001Z</time></trkpt><trkpt lat="44.396492549242026" lon="11.292462623689843"><ele>145.71428571428572</ele><time>2026-04-06T13:16:52.001Z</time></trkpt><trkpt lat="44.396541659382606" lon="11.2925197045842"><ele>147.28571428571428</ele><time>2026-04-06T13:16:57.001Z</time></trkpt><trkpt lat="44.39659223351207" lon="11.29257619000579"><ele>148.85714285714286</ele><time>2026-04-06T13:17:02.001Z</time></trkpt><trkpt lat="44.39664264105513" lon="11.292629113936366"><ele>150.42857142857142</ele><time>2026-04-06T13:17:07.001Z</time></trkpt><trkpt lat="44.39670475871972" lon="11.29268652788512"><ele>152.0</ele><time>2026-04-06T13:17:12.001Z</time></trkpt><trkpt lat="44.39676039931468" lon="11.292744038387427"><ele>152.0</ele><time>2026-04-06T13:17:17.001Z</time></trkpt><trkpt lat="44.396820774167715" lon="11.292798624482904"><ele>152.0</ele><time>2026-04-06T13:17:22.001Z</time></trkpt><trkpt lat="44.39687467152904" lon="11.292852719421925"><ele>152.0</ele><time>2026-04-06T13:17:27.001Z</time></trkpt><trkpt lat="44.396934785788744" lon="11.292917323177662"><ele>152.0</ele><time>2026-04-06T13:17:32.001Z</time></trkpt><trkpt lat="44.396992334215184" lon="11.292972190242939"><ele>152.0</ele><time>2026-04-06T13:17:37.001Z</time></trkpt><trkpt lat="44.39704490685589" lon="11.293028083828911"><ele>152.0</ele><time>2026-04-06T13:17:42.001Z</time></trkpt><trkpt lat="44.39710231118109" lon="11.29309123486244"><ele>152.0</ele><time>2026-04-06T13:17:47.001Z</time></trkpt><trkpt lat="44.39715559609371" lon="11.29314658253971"><ele>154.7142857142857</ele><time>2026-04-06T13:17:52.001Z</time></trkpt><trkpt lat="44.39722055580162" lon="11.293197288452076"><ele>157.42857142857144</ele><time>2026-04-06T13:17:57.001Z</time></trkpt><trkpt lat="44.3972714044868" lon="11.293252905593858"><ele>160.14285714285714</ele><time>2026-04-06T13:18:02.001Z</time></trkpt><trkpt lat="44.39732360482323" lon="11.29331051281797"><ele>162.85714285714283</ele><time>2026-04-06T13:18:06.001Z</time></trkpt><trkpt lat="44.39738189615437" lon="11.29337909842347"><ele>165.57142857142856</ele><time>2026-04-06T13:18:12.001Z</time></trkpt><trkpt lat="44.397436705177924" lon="11.293440805914702"><ele>168.28571428571428</ele><time>2026-04-06T13:18:18.001Z</time></trkpt><trkpt lat="44.397501421964705" lon="11.293503661190886"><ele>171.0</ele><time>2026-04-06T13:18:24.001Z</time></trkpt><trkpt lat="44.3975595258516" lon="11.293564389613996"><ele>170.99999999999997</ele><time>2026-04-06T13:18:30.001Z</time></trkpt><trkpt lat="44.39760982432259" lon="11.293618644869444"><ele>171.0</ele><time>2026-04-06T13:18:35.001Z</time></trkpt><trkpt lat="44.397669918809854" lon="11.29368639810446"><ele>171.0</ele><time>2026-04-06T13:18:41.001Z</time></trkpt><trkpt lat="44.39772453030566" lon="11.293742923265219"><ele>171.0</ele><time>2026-04-06T13:18:47.001Z</time></trkpt><trkpt lat="44.39777614630324" lon="11.293796805906876"><ele>171.0</ele><time>2026-04-06T13:18:52.001Z</time></trkpt><trkpt lat="44.39783179088108" lon="11.29385815040135"><ele>170.99999999999997</ele><time>2026-04-06T13:18:58.001Z</time></trkpt><trkpt lat="44.39788875594849" lon="11.293918289557615"><ele>171.0</ele><time>2026-04-06T13:19:04.001Z</time></trkpt><trkpt lat="44.39794078948529" lon="11.293979117929284"><ele>172.14285714285714</ele><time>2026-04-06T13:19:09.001Z</time></trkpt><trkpt lat="44.39799221605034" lon="11.294030946683074"><ele>173.28571428571428</ele><time>2026-04-06T13:19:14.001Z</time></trkpt><trkpt lat="44.398047595722474" lon="11.294083494840276"><ele>174.42857142857144</ele><time>2026-04-06T13:19:20.001Z</time></trkpt><trkpt lat="44.39810672349316" lon="11.294138061711006"><ele>175.57142857142856</ele><time>2026-04-06T13:19:25.001Z</time></trkpt><trkpt lat="44.39815811406755" lon="11.294194402764946"><ele>176.71428571428572</ele><time>2026-04-06T13:19:30.001Z</time></trkpt><trkpt lat="44.39821302305159" lon="11.294241513222525"><ele>177.85714285714286</ele><time>2026-04-06T13:19:35.001Z</time></trkpt><trkpt lat="44.39827626068959" lon="11.294292395175365"><ele>179.0</ele><time>2026-04-06T13:19:42.001Z</time></trkpt><trkpt lat="44.398322662220586" lon="11.294352792642023"><ele>181.00000000000003</ele><time>2026-04-06T13:19:47.001Z</time></trkpt><trkpt lat="44.39838147493181" lon="11.294417623735617"><ele>183.0</ele><time>2026-04-06T13:19:53.001Z</time></trkpt><trkpt lat="44.39843958186483" lon="11.294479301796615"><ele>185.0</ele><time>2026-04-06T13:19:59.001Z</time></trkpt><trkpt lat="44.39849294304447" lon="11.29453437326115"><ele>187.0</ele><time>2026-04-06T13:20:04.001Z</time></trkpt><trkpt lat="44.39853828630445" lon="11.29461013490273"><ele>189.0</ele><time>2026-04-06T13:20:10.001Z</time></trkpt><trkpt lat="44.398576382278755" lon="11.29469311399304"><ele>191.00000000000003</ele><time>2026-04-06T13:20:16.001Z</time></trkpt><trkpt lat="44.39860482542023" lon="11.294783697502618"><ele>193.0</ele><time>2026-04-06T13:20:22.001Z</time></trkpt><trkpt lat="44.39863867997915" lon="11.294861500091914"><ele>193.71428571428572</ele><time>2026-04-06T13:20:27.001Z</time></trkpt><trkpt lat="44.398666633258046" lon="11.29495925984387"><ele>194.42857142857144</ele><time>2026-04-06T13:20:34.001Z</time></trkpt><trkpt lat="44.39869703318173" lon="11.295043812894743"><ele>195.14285714285717</ele><time>2026-04-06T13:20:40.001Z</time></trkpt><trkpt lat="44.398728980772106" lon="11.295143561957294"><ele>195.85714285714286</ele><time>2026-04-06T13:20:45.001Z</time></trkpt><trkpt lat="44.398751852458005" lon="11.295231372996815"><ele>196.57142857142856</ele><time>2026-04-06T13:20:50.001Z</time></trkpt><trkpt lat="44.39876922439549" lon="11.295316353831625"><ele>197.2857142857143</ele><time>2026-04-06T13:20:55.001Z</time></trkpt><trkpt lat="44.39879629541437" lon="11.295401921333541"><ele>198.0</ele><time>2026-04-06T13:21:00.001Z</time></trkpt><trkpt lat="44.398819467630574" lon="11.295488512493517"><ele>199.42857142857144</ele><time>2026-04-06T13:21:06.001Z</time></trkpt><trkpt lat="44.3988611086339" lon="11.295567483850256"><ele>200.85714285714283</ele><time>2026-04-06T13:21:46.001Z</time></trkpt><trkpt lat="44.39889075725725" lon="11.295653933183743"><ele>202.28571428571428</ele><time>2026-04-06T13:21:52.001Z</time></trkpt><trkpt lat="44.398915603711856" lon="11.295750356075052"><ele>203.71428571428572</ele><time>2026-04-06T13:21:58.001Z</time></trkpt><trkpt lat="44.3989394809013" lon="11.295851283369945"><ele>205.14285714285717</ele><time>2026-04-06T13:22:04.001Z</time></trkpt><trkpt lat="44.398967627025314" lon="11.295939624420594"><ele>206.57142857142856</ele><time>2026-04-06T13:22:10.001Z</time></trkpt><trkpt lat="44.398997844486146" lon="11.296022836691739"><ele>208.0</ele><time>2026-04-06T13:22:15.001Z</time></trkpt><trkpt lat="44.39902171515208" lon="11.296110043897581"><ele>208.85714285714286</ele><time>2026-04-06T13:22:20.001Z</time></trkpt><trkpt lat="44.39906099223397" lon="11.296197342346714"><ele>209.71428571428572</ele><time>2026-04-06T13:22:26.001Z</time></trkpt><trkpt lat="44.39910006847266" lon="11.296277840953694"><ele>210.57142857142858</ele><time>2026-04-06T13:22:32.001Z</time></trkpt><trkpt lat="44.39913292205234" lon="11.296378806755076"><ele>211.42857142857144</ele><time>2026-04-06T13:22:43.001Z</time></trkpt><trkpt lat="44.39915961052094" lon="11.296465702098015"><ele>212.28571428571428</ele><time>2026-04-06T13:22:48.001Z</time></trkpt><trkpt lat="44.399182734920984" lon="11.29655585213933"><ele>213.14285714285717</ele><time>2026-04-06T13:22:53.001Z</time></trkpt><trkpt lat="44.3992065990315" lon="11.296640771412736"><ele>214.0</ele><time>2026-04-06T13:22:58.001Z</time></trkpt><trkpt lat="44.399235447399846" lon="11.296731357426433"><ele>214.2857142857143</ele><time>2026-04-06T13:23:03.001Z</time></trkpt><trkpt lat="44.39925658230689" lon="11.296818690270236"><ele>214.57142857142858</ele><time>2026-04-06T13:23:08.001Z</time></trkpt><trkpt lat="44.39927806177576" lon="11.29691110251863"><ele>214.85714285714286</ele><time>2026-04-06T13:23:13.001Z</time></trkpt><trkpt lat="44.39930483546458" lon="11.2970042298446"><ele>215.14285714285717</ele><time>2026-04-06T13:23:19.001Z</time></trkpt><trkpt lat="44.399312571783895" lon="11.297097982751147"><ele>215.42857142857142</ele><time>2026-04-06T13:23:24.001Z</time></trkpt><trkpt lat="44.39932739520601" lon="11.297200896561767"><ele>215.71428571428572</ele><time>2026-04-06T13:23:30.001Z</time></trkpt><trkpt lat="44.39934080443919" lon="11.29729940125638"><ele>216.0</ele><time>2026-04-06T13:23:58.001Z</time></trkpt><trkpt lat="44.39934693666259" lon="11.297391851365566"><ele>217.14285714285714</ele><time>2026-04-06T13:24:03.001Z</time></trkpt><trkpt lat="44.39935256987649" lon="11.297485846280276"><ele>218.28571428571428</ele><time>2026-04-06T13:24:08.001Z</time></trkpt><trkpt lat="44.39935753318967" lon="11.297581089483481"><ele>219.42857142857144</ele><time>2026-04-06T13:24:13.001Z</time></trkpt><trkpt lat="44.39935679233537" lon="11.297673981592094"><ele>220.57142857142856</ele><time>2026-04-06T13:24:18.001Z</time></trkpt><trkpt lat="44.39935527260211" lon="11.297765316856767"><ele>221.71428571428572</ele><time>2026-04-06T13:24:23.001Z</time></trkpt><trkpt lat="44.3993574389563" lon="11.297867542045934"><ele>222.85714285714286</ele><time>2026-04-06T13:24:29.001Z</time></trkpt><trkpt lat="44.39935472177403" lon="11.29797799006502"><ele>224.0</ele><time>2026-04-06T13:24:35.001Z</time></trkpt><trkpt lat="44.3993501407092" lon="11.298071090993066"><ele>225.0</ele><time>2026-04-06T13:24:40.001Z</time></trkpt><trkpt lat="44.399337447377256" lon="11.298164528395073"><ele>226.0</ele><time>2026-04-06T13:24:45.001Z</time></trkpt><trkpt lat="44.39933785971721" lon="11.298257903269295"><ele>227.0</ele><time>2026-04-06T13:24:50.001Z</time></trkpt><trkpt lat="44.39935485316509" lon="11.298352335637597"><ele>228.0</ele><time>2026-04-06T13:24:57.001Z</time></trkpt><trkpt lat="44.39937506878426" lon="11.298455632332645"><ele>229.0</ele><time>2026-04-06T13:25:03.001Z</time></trkpt><trkpt lat="44.39939835552681" lon="11.29854118774721"><ele>230.0</ele><time>2026-04-06T13:25:08.001Z</time></trkpt><trkpt lat="44.3994349022187" lon="11.298620869494815"><ele>231.0</ele><time>2026-04-06T13:25:15.001Z</time></trkpt><trkpt lat="44.399479297242486" lon="11.298710729492468"><ele>231.0</ele><time>2026-04-06T13:25:20.001Z</time></trkpt><trkpt lat="44.39952446927036" lon="11.298777499648436"><ele>231.0</ele><time>2026-04-06T13:25:25.001Z</time></trkpt><trkpt lat="44.39957428450487" lon="11.298849688546786"><ele>231.0</ele><time>2026-04-06T13:25:31.001Z</time></trkpt><trkpt lat="44.399625716584495" lon="11.298912221411246"><ele>231.0</ele><time>2026-04-06T13:25:36.001Z</time></trkpt><trkpt lat="44.39967828731667" lon="11.298971767648323"><ele>231.0</ele><time>2026-04-06T13:25:41.001Z</time></trkpt><trkpt lat="44.39973287071935" lon="11.299019420388037"><ele>231.0</ele><time>2026-04-06T13:25:46.001Z</time></trkpt><trkpt lat="44.399789787993114" lon="11.299064035275022"><ele>231.0</ele><time>2026-04-06T13:25:51.001Z</time></trkpt><trkpt lat="44.399861032652915" lon="11.299101368916688"><ele>233.85714285714286</ele><time>2026-04-06T13:25:57.001Z</time></trkpt><trkpt lat="44.3999334952556" lon="11.299131481120623"><ele>236.71428571428572</ele><time>2026-04-06T13:26:03.001Z</time></trkpt><trkpt lat="44.400009813789396" lon="11.299145592235758"><ele>239.57142857142856</ele><time>2026-04-06T13:26:09.001Z</time></trkpt><trkpt lat="44.40008098140768" lon="11.29913622536204"><ele>242.42857142857142</ele><time>2026-04-06T13:26:15.001Z</time></trkpt><trkpt lat="44.40014509343146" lon="11.299133798976365"><ele>245.28571428571428</ele><time>2026-04-06T13:26:20.001Z</time></trkpt><trkpt lat="44.40020830894177" lon="11.299130576489816"><ele>248.1428571428571</ele><time>2026-04-06T13:26:25.001Z</time></trkpt><trkpt lat="44.40027337929515" lon="11.299148421734902"><ele>250.99999999999997</ele><time>2026-04-06T13:26:30.001Z</time></trkpt><trkpt lat="44.40033572687548" lon="11.299178953594511"><ele>250.99999999999997</ele><time>2026-04-06T13:26:35.001Z</time></trkpt><trkpt lat="44.40040134142062" lon="11.299185421167042"><ele>251.0</ele><time>2026-04-06T13:26:40.001Z</time></trkpt><trkpt lat="44.40046142299176" lon="11.299216838933265"><ele>250.99999999999997</ele><time>2026-04-06T13:26:45.001Z</time></trkpt><trkpt lat="44.40052923039812" lon="11.299244523530621"><ele>250.99999999999997</ele><time>2026-04-06T13:26:51.001Z</time></trkpt><trkpt lat="44.4005956325981" lon="11.29927184140303"><ele>251.0</ele><time>2026-04-06T13:26:57.001Z</time></trkpt><trkpt lat="44.40065185000539" lon="11.299323083674288"><ele>250.99999999999997</ele><time>2026-04-06T13:31:49Z</time></trkpt><trkpt lat="44.40071543233921" lon="11.29936533283121"><ele>250.99999999999997</ele><time>2026-04-06T13:31:59Z</time></trkpt><trkpt lat="44.400785424842695" lon="11.299392551341986"><ele>253.71428571428567</ele><time>2026-04-06T13:32:07Z</time></trkpt><trkpt lat="44.40084940682587" lon="11.299416993622296"><ele>256.42857142857144</ele><time>2026-04-06T13:32:15Z</time></trkpt><trkpt lat="44.40090830752924" lon="11.299449588042327"><ele>259.1428571428571</ele><time>2026-04-06T13:32:22Z</time></trkpt><trkpt lat="44.4009709186568" lon="11.29949295408799"><ele>261.85714285714283</ele><time>2026-04-06T13:32:28Z</time></trkpt><trkpt lat="44.40102410392885" lon="11.29954583833396"><ele>264.57142857142856</ele><time>2026-04-06T13:32:34Z</time></trkpt><trkpt lat="44.401073219877" lon="11.299603103759562"><ele>267.2857142857143</ele><time>2026-04-06T13:32:40Z</time></trkpt><trkpt lat="44.401132371511295" lon="11.299656739977689"><ele>270.0</ele><time>2026-04-06T13:32:46Z</time></trkpt><trkpt lat="44.40118963561498" lon="11.299708699421695"><ele>269.57142857142856</ele><time>2026-04-06T13:32:54Z</time></trkpt><trkpt lat="44.401238556784094" lon="11.299778015079411"><ele>269.1428571428571</ele><time>2026-04-06T13:33:01Z</time></trkpt><trkpt lat="44.40128647674565" lon="11.299846247196022"><ele>268.7142857142857</ele><time>2026-04-06T13:33:07Z</time></trkpt><trkpt lat="44.401334058809745" lon="11.299922101971637"><ele>268.2857142857143</ele><time>2026-04-06T13:33:15Z</time></trkpt><trkpt lat="44.401360644604644" lon="11.300010190784757"><ele>267.8571428571429</ele><time>2026-04-06T13:33:22Z</time></trkpt><trkpt lat="44.40137424521491" lon="11.300107975719897"><ele>267.42857142857144</ele><time>2026-04-06T13:33:29Z</time></trkpt><trkpt lat="44.40138812534781" lon="11.300200015194486"><ele>267.0</ele><time>2026-04-06T13:33:35Z</time></trkpt><trkpt lat="44.40140247794483" lon="11.30029306996821"><ele>270.14285714285717</ele><time>2026-04-06T13:33:42Z</time></trkpt><trkpt lat="44.40141533931775" lon="11.300383634660967"><ele>273.2857142857143</ele><time>2026-04-06T13:33:49Z</time></trkpt><trkpt lat="44.401406189058065" lon="11.300490537678556"><ele>276.42857142857144</ele><time>2026-04-06T13:33:56Z</time></trkpt><trkpt lat="44.40140273834986" lon="11.30059748194875"><ele>279.57142857142856</ele><time>2026-04-06T13:34:03Z</time></trkpt><trkpt lat="44.40138889498877" lon="11.30068574265389"><ele>282.7142857142857</ele><time>2026-04-06T13:34:09Z</time></trkpt><trkpt lat="44.401378024757825" lon="11.300785279378452"><ele>285.8571428571429</ele><time>2026-04-06T13:34:15Z</time></trkpt><trkpt lat="44.40137655589863" lon="11.300877777028948"><ele>289.0</ele><time>2026-04-06T13:34:21Z</time></trkpt><trkpt lat="44.401368645418906" lon="11.300971634931885"><ele>289.14285714285717</ele><time>2026-04-06T13:34:27Z</time></trkpt><trkpt lat="44.401377417548154" lon="11.301068320756105"><ele>289.2857142857143</ele><time>2026-04-06T13:34:33Z</time></trkpt><trkpt lat="44.40141330769799" lon="11.301156521883165"><ele>289.42857142857144</ele><time>2026-04-06T13:34:40Z</time></trkpt><trkpt lat="44.401463744312345" lon="11.301209779278343"><ele>289.57142857142856</ele><time>2026-04-06T13:34:46Z</time></trkpt><trkpt lat="44.40153284405033" lon="11.301206980010464"><ele>289.7142857142857</ele><time>2026-04-06T13:34:53Z</time></trkpt><trkpt lat="44.401598172763485" lon="11.301194685073515"><ele>289.8571428571429</ele><time>2026-04-06T13:35:05Z</time></trkpt><trkpt lat="44.40165459092763" lon="11.301147995173263"><ele>290.0</ele><time>2026-04-06T13:35:11Z</time></trkpt><trkpt lat="44.401706141950314" lon="11.301096500979106"><ele>290.0</ele><time>2026-04-06T13:35:18Z</time></trkpt><trkpt lat="44.401759328682864" lon="11.301035652429139"><ele>290.0</ele><time>2026-04-06T13:37:44Z</time></trkpt><trkpt lat="44.40182054307848" lon="11.30098394077252"><ele>290.0</ele><time>2026-04-06T13:37:52Z</time></trkpt><trkpt lat="44.401879483587216" lon="11.300938531397545"><ele>290.0</ele><time>2026-04-06T13:37:58Z</time></trkpt><trkpt lat="44.40193530208826" lon="11.300889384473873"><ele>290.0</ele><time>2026-04-06T13:38:04Z</time></trkpt><trkpt lat="44.40199660159672" lon="11.300847754369824"><ele>290.0</ele><time>2026-04-06T13:38:10Z</time></trkpt><trkpt lat="44.40205022407343" lon="11.300801481678993"><ele>290.0</ele><time>2026-04-06T13:38:16Z</time></trkpt><trkpt lat="44.40210930400377" lon="11.30076095328296"><ele>290.8571428571429</ele><time>2026-04-06T13:38:21Z</time></trkpt><trkpt lat="44.40216962358723" lon="11.300710962852765"><ele>291.7142857142857</ele><time>2026-04-06T13:38:27Z</time></trkpt><trkpt lat="44.402235607933605" lon="11.300669123299562"><ele>292.57142857142856</ele><time>2026-04-06T13:38:34Z</time></trkpt><trkpt lat="44.40230505636063" lon="11.300627667602807"><ele>293.42857142857144</ele><time>2026-04-06T13:38:41Z</time></trkpt><trkpt lat="44.40237392955052" lon="11.300584491622347"><ele>294.2857142857143</ele><time>2026-04-06T13:38:47Z</time></trkpt><trkpt lat="44.402435617989994" lon="11.300554402878571"><ele>295.14285714285717</ele><time>2026-04-06T13:38:52Z</time></trkpt><trkpt lat="44.40249977312331" lon="11.300511709831968"><ele>296.0</ele><time>2026-04-06T13:38:57Z</time></trkpt><trkpt lat="44.40256514065304" lon="11.300477667093872"><ele>298.0</ele><time>2026-04-06T13:39:03Z</time></trkpt><trkpt lat="44.40263021793495" lon="11.300451262629393"><ele>300.0</ele><time>2026-04-06T13:39:08Z</time></trkpt><trkpt lat="44.40269825160714" lon="11.300411869759243"><ele>302.0</ele><time>2026-04-06T13:39:15Z</time></trkpt><trkpt lat="44.40276203295163" lon="11.300387980014538"><ele>304.0</ele><time>2026-04-06T13:39:20Z</time></trkpt><trkpt lat="44.40282939411934" lon="11.300351100256359"><ele>306.0</ele><time>2026-04-06T13:39:26Z</time></trkpt><trkpt lat="44.40289185199268" lon="11.30029610882058"><ele>308.0</ele><time>2026-04-06T13:39:32Z</time></trkpt><trkpt lat="44.402956310123045" lon="11.300264736658404"><ele>310.0</ele><time>2026-04-06T13:39:37Z</time></trkpt><trkpt lat="44.40302102157062" lon="11.30023002257464"><ele>310.42857142857144</ele><time>2026-04-06T13:39:43Z</time></trkpt><trkpt lat="44.40308546508977" lon="11.30019992587781"><ele>310.85714285714283</ele><time>2026-04-06T13:39:49Z</time></trkpt><trkpt lat="44.40315520255388" lon="11.300181954392647"><ele>311.2857142857143</ele><time>2026-04-06T13:39:55Z</time></trkpt><trkpt lat="44.40322406715161" lon="11.300187558560367"><ele>311.7142857142857</ele><time>2026-04-06T13:40:00Z</time></trkpt><trkpt lat="44.40329834938785" lon="11.30019922978843"><ele>312.14285714285717</ele><time>2026-04-06T13:40:06Z</time></trkpt><trkpt lat="44.40336879066128" lon="11.300227847568674"><ele>312.57142857142856</ele><time>2026-04-06T13:40:12Z</time></trkpt><trkpt lat="44.403437014074186" lon="11.30025467325746"><ele>313.0</ele><time>2026-04-06T13:40:18Z</time></trkpt><trkpt lat="44.40349532986863" lon="11.300288393136157"><ele>313.0</ele><time>2026-04-06T13:40:23Z</time></trkpt><trkpt lat="44.40355710452816" lon="11.300327834393324"><ele>313.0</ele><time>2026-04-06T13:40:28Z</time></trkpt><trkpt lat="44.40361141978965" lon="11.300379996393593"><ele>313.0</ele><time>2026-04-06T13:40:33Z</time></trkpt><trkpt lat="44.40366448966272" lon="11.300452713764503"><ele>313.0</ele><time>2026-04-06T13:40:39Z</time></trkpt><trkpt lat="44.403719319078725" lon="11.300513654211237"><ele>313.0</ele><time>2026-04-06T13:40:45Z</time></trkpt><trkpt lat="44.403771696592784" lon="11.300581674489587"><ele>313.0</ele><time>2026-04-06T13:40:51Z</time></trkpt><trkpt lat="44.40382520893457" lon="11.300648714317727"><ele>313.0</ele><time>2026-04-06T13:40:57Z</time></trkpt><trkpt lat="44.40387338188149" lon="11.300715969350088"><ele>314.85714285714283</ele><time>2026-04-06T13:41:03Z</time></trkpt><trkpt lat="44.40391799609319" lon="11.300778807269074"><ele>316.7142857142857</ele><time>2026-04-06T13:41:08Z</time></trkpt><trkpt lat="44.403970846338716" lon="11.300853636581918"><ele>318.57142857142856</ele><time>2026-04-06T13:41:14Z</time></trkpt><trkpt lat="44.404023966645845" lon="11.300924274906501"><ele>320.42857142857144</ele><time>2026-04-06T13:41:20Z</time></trkpt><trkpt lat="44.40407701193456" lon="11.300991566080398"><ele>322.2857142857143</ele><time>2026-04-06T13:41:26Z</time></trkpt><trkpt lat="44.404130479329005" lon="11.301056192480468"><ele>324.14285714285717</ele><time>2026-04-06T13:41:32Z</time></trkpt><trkpt lat="44.404182040463844" lon="11.301116290020502"><ele>326.0</ele><time>2026-04-06T13:41:38Z</time></trkpt><trkpt lat="44.404231235107744" lon="11.301189107579686"><ele>326.0</ele><time>2026-04-06T13:41:44Z</time></trkpt><trkpt lat="44.4042863554716" lon="11.301249432343031"><ele>326.0</ele><time>2026-04-06T13:41:50Z</time></trkpt><trkpt lat="44.40434014890856" lon="11.30132536005263"><ele>326.0</ele><time>2026-04-06T13:41:56Z</time></trkpt><trkpt lat="44.40439054729013" lon="11.30137967717121"><ele>326.0</ele><time>2026-04-06T13:42:02Z</time></trkpt><trkpt lat="44.40444089034127" lon="11.301449961213889"><ele>326.0</ele><time>2026-04-06T13:42:08Z</time></trkpt><trkpt lat="44.40448867228922" lon="11.301514836098827"><ele>326.0</ele><time>2026-04-06T13:42:14Z</time></trkpt><trkpt lat="44.40453328186879" lon="11.301577141079395"><ele>326.0</ele><time>2026-04-06T13:42:20Z</time></trkpt><trkpt lat="44.40456768647817" lon="11.301651015408003"><ele>326.0</ele><time>2026-04-06T13:42:26Z</time></trkpt><trkpt lat="44.4045977842897" lon="11.301737611461386"><ele>326.0</ele><time>2026-04-06T13:42:32Z</time></trkpt><trkpt lat="44.40462892890918" lon="11.301815455660751"><ele>326.0</ele><time>2026-04-06T13:42:37Z</time></trkpt><trkpt lat="44.40466251484643" lon="11.301902912039901"><ele>326.0</ele><time>2026-04-06T13:42:43Z</time></trkpt><trkpt lat="44.40469781905622" lon="11.30199018849003"><ele>326.0</ele><time>2026-04-06T13:42:49Z</time></trkpt><trkpt lat="44.40473569590054" lon="11.302079447290016"><ele>326.0</ele><time>2026-04-06T13:42:55Z</time></trkpt><trkpt lat="44.40476881766311" lon="11.302159122241525"><ele>326.0</ele><time>2026-04-06T13:43:00Z</time></trkpt><trkpt lat="44.40479871872753" lon="11.302239049022921"><ele>324.8571428571429</ele><time>2026-04-06T13:43:05Z</time></trkpt><trkpt lat="44.404827457605116" lon="11.302318631883484"><ele>323.71428571428567</ele><time>2026-04-06T13:43:10Z</time></trkpt><trkpt lat="44.40485009479144" lon="11.302406861828896"><ele>322.57142857142856</ele><time>2026-04-06T13:43:15Z</time></trkpt><trkpt lat="44.40486661917823" lon="11.302496900336847"><ele>321.42857142857144</ele><time>2026-04-06T13:43:20Z</time></trkpt><trkpt lat="44.404893956772845" lon="11.3025949136865"><ele>320.28571428571433</ele><time>2026-04-06T13:43:26Z</time></trkpt><trkpt lat="44.40492867741305" lon="11.302686801313701"><ele>319.1428571428571</ele><time>2026-04-06T13:43:32Z</time></trkpt><trkpt lat="44.40496596450229" lon="11.302779343825733"><ele>318.0</ele><time>2026-04-06T13:43:38Z</time></trkpt><trkpt lat="44.40500608862613" lon="11.302848417106159"><ele>318.0</ele><time>2026-04-06T13:43:43Z</time></trkpt><trkpt lat="44.40505745949836" lon="11.30292134572102"><ele>318.0</ele><time>2026-04-06T13:43:49Z</time></trkpt><trkpt lat="44.40511062075508" lon="11.302998222581271"><ele>318.0</ele><time>2026-04-06T13:43:55Z</time></trkpt><trkpt lat="44.40516713107725" lon="11.30305857117972"><ele>318.0</ele><time>2026-04-06T13:44:01Z</time></trkpt><trkpt lat="44.405216237148984" lon="11.3031258543754"><ele>318.0</ele><time>2026-04-06T13:44:07Z</time></trkpt><trkpt lat="44.40527200966426" lon="11.30317799323675"><ele>318.0</ele><time>2026-04-06T13:44:12Z</time></trkpt><trkpt lat="44.40532146039954" lon="11.30325280951773"><ele>318.0</ele><time>2026-04-06T13:44:18Z</time></trkpt><trkpt lat="44.40535556619391" lon="11.303329477468822"><ele>318.57142857142856</ele><time>2026-04-06T13:44:24Z</time></trkpt><trkpt lat="44.405386186500756" lon="11.303416223088387"><ele>319.14285714285717</ele><time>2026-04-06T13:44:30Z</time></trkpt><trkpt lat="44.405422903996616" lon="11.3035038972892"><ele>319.7142857142857</ele><time>2026-04-06T13:44:36Z</time></trkpt><trkpt lat="44.40545776581569" lon="11.303599012236681"><ele>320.2857142857143</ele><time>2026-04-06T13:44:42Z</time></trkpt><trkpt lat="44.405499568354784" lon="11.303665911083081"><ele>320.8571428571429</ele><time>2026-04-06T13:44:47Z</time></trkpt><trkpt lat="44.40554316667103" lon="11.303757329507873"><ele>321.42857142857144</ele><time>2026-04-06T13:44:52Z</time></trkpt><trkpt lat="44.4055817840641" lon="11.303840465811158"><ele>322.0</ele><time>2026-04-06T13:44:58Z</time></trkpt><trkpt lat="44.4056242601637" lon="11.30392526435781"><ele>322.0</ele><time>2026-04-06T13:45:03Z</time></trkpt><trkpt lat="44.40566974563647" lon="11.304008248450122"><ele>322.0</ele><time>2026-04-06T13:45:09Z</time></trkpt><trkpt lat="44.40570620565539" lon="11.30408471081603"><ele>322.0</ele><time>2026-04-06T13:45:15Z</time></trkpt><trkpt lat="44.40575144272971" lon="11.304164400262254"><ele>322.0</ele><time>2026-04-06T13:45:21Z</time></trkpt><trkpt lat="44.40578814804347" lon="11.304258429786907"><ele>322.0</ele><time>2026-04-06T13:45:27Z</time></trkpt><trkpt lat="44.405832025586754" lon="11.304334468743765"><ele>322.0</ele><time>2026-04-06T13:45:32Z</time></trkpt><trkpt lat="44.405878108831864" lon="11.304407125471819"><ele>322.0</ele><time>2026-04-06T13:45:38Z</time></trkpt><trkpt lat="44.405907113924336" lon="11.304488363052565"><ele>322.0</ele><time>2026-04-06T13:45:43Z</time></trkpt><trkpt lat="44.405933766130524" lon="11.304570998025783"><ele>322.0</ele><time>2026-04-06T13:45:49Z</time></trkpt><trkpt lat="44.40597395634495" lon="11.3046502131967"><ele>322.0</ele><time>2026-04-06T13:45:55Z</time></trkpt><trkpt lat="44.406018849494494" lon="11.30473085312981"><ele>322.0</ele><time>2026-04-06T13:46:01Z</time></trkpt><trkpt lat="44.40606152747815" lon="11.304802132122228"><ele>322.0</ele><time>2026-04-06T13:46:06Z</time></trkpt><trkpt lat="44.40609935710633" lon="11.304892141081213"><ele>322.0</ele><time>2026-04-06T13:46:12Z</time></trkpt><trkpt lat="44.40612793132209" lon="11.304989955399744"><ele>322.0</ele><time>2026-04-06T13:46:18Z</time></trkpt><trkpt lat="44.40615537879862" lon="11.30507707769046"><ele>321.7142857142857</ele><time>2026-04-06T13:46:24Z</time></trkpt><trkpt lat="44.40618700972842" lon="11.30516952616392"><ele>321.42857142857144</ele><time>2026-04-06T13:46:30Z</time></trkpt><trkpt lat="44.40621596281525" lon="11.305265101957184"><ele>321.1428571428571</ele><time>2026-04-06T13:46:36Z</time></trkpt><trkpt lat="44.40624861046922" lon="11.305355178077892"><ele>320.8571428571429</ele><time>2026-04-06T13:46:42Z</time></trkpt><trkpt lat="44.40627726332884" lon="11.30544136703758"><ele>320.57142857142856</ele><time>2026-04-06T13:46:48Z</time></trkpt><trkpt lat="44.406305776145736" lon="11.305530987212872"><ele>320.2857142857143</ele><time>2026-04-06T13:46:54Z</time></trkpt><trkpt lat="44.40633820027648" lon="11.305627092325077"><ele>320.0</ele><time>2026-04-06T13:47:00Z</time></trkpt><trkpt lat="44.40636402525176" lon="11.305725644049298"><ele>323.42857142857144</ele><time>2026-04-06T13:47:06Z</time></trkpt><trkpt lat="44.40637420018857" lon="11.305832814609651"><ele>326.8571428571429</ele><time>2026-04-06T13:47:12Z</time></trkpt><trkpt lat="44.406385100151304" lon="11.305937968215249"><ele>330.28571428571433</ele><time>2026-04-06T13:47:18Z</time></trkpt><trkpt lat="44.406391921380425" lon="11.306031739464913"><ele>333.7142857142857</ele><time>2026-04-06T13:47:24Z</time></trkpt><trkpt lat="44.40638701739311" lon="11.306132273775694"><ele>337.14285714285717</ele><time>2026-04-06T13:47:31Z</time></trkpt><trkpt lat="44.40637931590803" lon="11.306223093785666"><ele>340.5714285714286</ele><time>2026-04-06T13:47:37Z</time></trkpt><trkpt lat="44.40635850191075" lon="11.306317503605108"><ele>344.0</ele><time>2026-04-06T13:47:43Z</time></trkpt><trkpt lat="44.40633165220365" lon="11.306402770902796"><ele>341.7142857142857</ele><time>2026-04-06T13:47:48Z</time></trkpt><trkpt lat="44.40629797703124" lon="11.306482491822877"><ele>339.42857142857144</ele><time>2026-04-06T13:47:54Z</time></trkpt><trkpt lat="44.406253291130604" lon="11.306562921335752"><ele>337.1428571428571</ele><time>2026-04-06T13:48:00Z</time></trkpt><trkpt lat="44.40620981860456" lon="11.306650927066023"><ele>334.8571428571429</ele><time>2026-04-06T13:48:06Z</time></trkpt><trkpt lat="44.406155227372516" lon="11.306711083066578"><ele>332.57142857142856</ele><time>2026-04-06T13:48:12Z</time></trkpt><trkpt lat="44.40610338433392" lon="11.306766677065177"><ele>330.2857142857143</ele><time>2026-04-06T13:48:17Z</time></trkpt><trkpt lat="44.40604499727103" lon="11.306812192194002"><ele>328.0</ele><time>2026-04-06T13:48:23Z</time></trkpt><trkpt lat="44.40598575583544" lon="11.306851986913328"><ele>327.99999999999994</ele><time>2026-04-06T13:48:29Z</time></trkpt><trkpt lat="44.40592149634881" lon="11.306889620417854"><ele>328.0</ele><time>2026-04-06T13:48:34Z</time></trkpt><trkpt lat="44.40586660236765" lon="11.306937628142908"><ele>328.0</ele><time>2026-04-06T13:48:39Z</time></trkpt><trkpt lat="44.40580148262822" lon="11.306962731620374"><ele>328.0</ele><time>2026-04-06T13:48:44Z</time></trkpt><trkpt lat="44.40573333070409" lon="11.306976929379436"><ele>328.0</ele><time>2026-04-06T13:48:50Z</time></trkpt><trkpt lat="44.40565640036489" lon="11.306985986448066"><ele>327.99999999999994</ele><time>2026-04-06T13:48:56Z</time></trkpt><trkpt lat="44.405580369945476" lon="11.306986864922974"><ele>328.0</ele><time>2026-04-06T13:49:02Z</time></trkpt><trkpt lat="44.40551653695646" lon="11.307004328780538"><ele>326.1428571428571</ele><time>2026-04-06T13:49:07Z</time></trkpt><trkpt lat="44.40545336746509" lon="11.307028097112777"><ele>324.2857142857143</ele><time>2026-04-06T13:49:12Z</time></trkpt><trkpt lat="44.40538719263761" lon="11.307048370497517"><ele>322.42857142857144</ele><time>2026-04-06T13:49:18Z</time></trkpt><trkpt lat="44.405322104757545" lon="11.307050695827119"><ele>320.57142857142856</ele><time>2026-04-06T13:49:23Z</time></trkpt><trkpt lat="44.405253555316015" lon="11.307065025508273"><ele>318.7142857142857</ele><time>2026-04-06T13:49:29Z</time></trkpt><trkpt lat="44.40516879812083" lon="11.307091162102939"><ele>316.85714285714283</ele><time>2026-04-06T13:51:54Z</time></trkpt><trkpt lat="44.40510252704039" lon="11.307146962157644"><ele>315.0</ele><time>2026-04-06T13:52:00Z</time></trkpt><trkpt lat="44.405042434318446" lon="11.307188060471681"><ele>315.0</ele><time>2026-04-06T13:52:06Z</time></trkpt><trkpt lat="44.40497739223225" lon="11.307205363455477"><ele>315.0</ele><time>2026-04-06T13:52:13Z</time></trkpt><trkpt lat="44.404924699533524" lon="11.307257873673024"><ele>315.0</ele><time>2026-04-06T13:52:19Z</time></trkpt><trkpt lat="44.404869145880966" lon="11.307309248656686"><ele>315.0</ele><time>2026-04-06T13:52:25Z</time></trkpt><trkpt lat="44.40481685845089" lon="11.307366649231774"><ele>315.0</ele><time>2026-04-06T13:52:31Z</time></trkpt><trkpt lat="44.4047705250529" lon="11.307426835048268"><ele>315.0</ele><time>2026-04-06T13:52:37Z</time></trkpt><trkpt lat="44.40472495332294" lon="11.307503948521695"><ele>315.0</ele><time>2026-04-06T13:52:43Z</time></trkpt><trkpt lat="44.40468145633086" lon="11.307574149034398"><ele>315.2857142857143</ele><time>2026-04-06T13:52:50Z</time></trkpt><trkpt lat="44.40463904085013" lon="11.307658247711629"><ele>315.57142857142856</ele><time>2026-04-06T13:52:57Z</time></trkpt><trkpt lat="44.40460314852169" lon="11.30774246002448"><ele>315.8571428571429</ele><time>2026-04-06T13:53:04Z</time></trkpt><trkpt lat="44.4045716731785" lon="11.307831820417672"><ele>316.1428571428571</ele><time>2026-04-06T13:53:11Z</time></trkpt><trkpt lat="44.4045345969018" lon="11.307916994894814"><ele>316.42857142857144</ele><time>2026-04-06T13:53:18Z</time></trkpt><trkpt lat="44.40449342352992" lon="11.30799445951655"><ele>316.7142857142857</ele><time>2026-04-06T13:53:24Z</time></trkpt><trkpt lat="44.40445351980446" lon="11.308079195935607"><ele>317.0</ele><time>2026-04-06T13:53:30Z</time></trkpt><trkpt lat="44.40441978104406" lon="11.30816500544542"><ele>317.8571428571429</ele><time>2026-04-06T13:53:37Z</time></trkpt><trkpt lat="44.40438283278447" lon="11.308250817924067"><ele>318.7142857142857</ele><time>2026-04-06T13:53:45Z</time></trkpt><trkpt lat="44.404364892991275" lon="11.308349533058554"><ele>319.57142857142856</ele><time>2026-04-06T13:53:53Z</time></trkpt><trkpt lat="44.40436141200242" lon="11.308456604560684"><ele>320.42857142857144</ele><time>2026-04-06T13:53:59Z</time></trkpt><trkpt lat="44.40435675137277" lon="11.308547991859982"><ele>321.2857142857143</ele><time>2026-04-06T13:54:04Z</time></trkpt><trkpt lat="44.40434730268091" lon="11.30865135936998"><ele>322.14285714285717</ele><time>2026-04-06T13:54:10Z</time></trkpt><trkpt lat="44.40434135567976" lon="11.308743441460726"><ele>323.0</ele><time>2026-04-06T13:54:15Z</time></trkpt><trkpt lat="44.40432563902207" lon="11.308843051727472"><ele>323.00000000000006</ele><time>2026-04-06T13:54:21Z</time></trkpt><trkpt lat="44.40432313406425" lon="11.308944065778704"><ele>323.0</ele><time>2026-04-06T13:54:27Z</time></trkpt><trkpt lat="44.404328809041196" lon="11.30903756602453"><ele>323.0</ele><time>2026-04-06T13:54:33Z</time></trkpt><trkpt lat="44.4043291838484" lon="11.309139686541084"><ele>323.0</ele><time>2026-04-06T13:54:39Z</time></trkpt><trkpt lat="44.404319410842305" lon="11.309239576552281"><ele>323.0</ele><time>2026-04-06T13:54:44Z</time></trkpt><trkpt lat="44.404314021733924" lon="11.309327815721822"><ele>323.00000000000006</ele><time>2026-04-06T13:54:48Z</time></trkpt><trkpt lat="44.40430234343998" lon="11.309418110084076"><ele>323.0</ele><time>2026-04-06T13:54:53Z</time></trkpt><trkpt lat="44.40429511742785" lon="11.309507397206534"><ele>323.00000000000006</ele><time>2026-04-06T13:54:58Z</time></trkpt><trkpt lat="44.40427756139556" lon="11.30959781260884"><ele>323.0</ele><time>2026-04-06T13:55:03Z</time></trkpt><trkpt lat="44.404254395858395" lon="11.309689654398687"><ele>323.0</ele><time>2026-04-06T13:55:08Z</time></trkpt><trkpt lat="44.404234100099856" lon="11.309775253236651"><ele>323.0</ele><time>2026-04-06T13:55:13Z</time></trkpt><trkpt lat="44.404207291527534" lon="11.309875009585202"><ele>323.0</ele><time>2026-04-06T13:55:19Z</time></trkpt><trkpt lat="44.404176515397594" lon="11.30997498552524"><ele>323.00000000000006</ele><time>2026-04-06T13:55:25Z</time></trkpt><trkpt lat="44.40413978619895" lon="11.310062957851233"><ele>323.0</ele><time>2026-04-06T13:55:32Z</time></trkpt><trkpt lat="44.40410008774306" lon="11.310132405382145"><ele>323.14285714285717</ele><time>2026-04-06T13:55:37Z</time></trkpt><trkpt lat="44.404052223784966" lon="11.310194325146604"><ele>323.2857142857143</ele><time>2026-04-06T13:55:42Z</time></trkpt><trkpt lat="44.40399574181876" lon="11.310239048745494"><ele>323.42857142857144</ele><time>2026-04-06T13:55:47Z</time></trkpt><trkpt lat="44.403923318543214" lon="11.31026848945171"><ele>323.57142857142856</ele><time>2026-04-06T13:55:53Z</time></trkpt><trkpt lat="44.40385925470292" lon="11.310303571441068"><ele>323.7142857142857</ele><time>2026-04-06T13:55:58Z</time></trkpt><trkpt lat="44.4038033994067" lon="11.310349394817843"><ele>323.8571428571429</ele><time>2026-04-06T13:56:03Z</time></trkpt><trkpt lat="44.40374441955585" lon="11.310393490720891"><ele>324.0</ele><time>2026-04-06T13:56:09Z</time></trkpt><trkpt lat="44.40369357587944" lon="11.310456788912647"><ele>324.0</ele><time>2026-04-06T13:56:14Z</time></trkpt><trkpt lat="44.40364190365032" lon="11.310517605834209"><ele>324.0</ele><time>2026-04-06T13:56:19Z</time></trkpt><trkpt lat="44.403591028953706" lon="11.310580936150558"><ele>324.0</ele><time>2026-04-06T13:56:25Z</time></trkpt><trkpt lat="44.40354544410892" lon="11.310652936676298"><ele>324.0</ele><time>2026-04-06T13:56:32Z</time></trkpt><trkpt lat="44.40350284789006" lon="11.31072633668884"><ele>324.0</ele><time>2026-04-06T13:56:39Z</time></trkpt><trkpt lat="44.40345823918615" lon="11.310801456528367"><ele>324.0</ele><time>2026-04-06T13:56:47Z</time></trkpt><trkpt lat="44.403423705291296" lon="11.310877531774052"><ele>324.0</ele><time>2026-04-06T13:56:59Z</time></trkpt><trkpt lat="44.4034039258444" lon="11.310961501663822"><ele>325.7142857142857</ele><time>2026-04-06T13:57:10Z</time></trkpt><trkpt lat="44.403394767064675" lon="11.311054033828997"><ele>327.42857142857144</ele><time>2026-04-06T13:57:19Z</time></trkpt><trkpt lat="44.403408462175015" lon="11.3111403807788"><ele>329.1428571428571</ele><time>2026-04-06T13:57:28Z</time></trkpt><trkpt lat="44.403413880060654" lon="11.3112356528834"><ele>330.8571428571429</ele><time>2026-04-06T13:57:38Z</time></trkpt><trkpt lat="44.403431798955815" lon="11.311339182092263"><ele>332.57142857142856</ele><time>2026-04-06T13:57:46Z</time></trkpt><trkpt lat="44.403434703182086" lon="11.311437213623622"><ele>334.2857142857143</ele><time>2026-04-06T13:57:53Z</time></trkpt><trkpt lat="44.403427715343824" lon="11.311542085787783"><ele>336.0</ele><time>2026-04-06T13:58:00Z</time></trkpt><trkpt lat="44.40340623491949" lon="11.311626373882515"><ele>336.0</ele><time>2026-04-06T13:58:06Z</time></trkpt><trkpt lat="44.4033743485065" lon="11.311703261213754"><ele>336.0</ele><time>2026-04-06T13:58:11Z</time></trkpt><trkpt lat="44.403339105852815" lon="11.31177920169554"><ele>336.0</ele><time>2026-04-06T13:58:16Z</time></trkpt><trkpt lat="44.40330932148204" lon="11.311862760750852"><ele>336.0</ele><time>2026-04-06T13:58:22Z</time></trkpt><trkpt lat="44.40327172031327" lon="11.311948931807004"><ele>336.0</ele><time>2026-04-06T13:58:28Z</time></trkpt><trkpt lat="44.403230031160135" lon="11.312027474398185"><ele>336.0</ele><time>2026-04-06T13:58:34Z</time></trkpt><trkpt lat="44.40319008985338" lon="11.312111679296398"><ele>336.0</ele><time>2026-04-06T13:58:40Z</time></trkpt><trkpt lat="44.40315164824572" lon="11.312185124572405"><ele>336.85714285714283</ele><time>2026-04-06T13:58:46Z</time></trkpt><trkpt lat="44.40311709638368" lon="11.312269585264685"><ele>337.7142857142857</ele><time>2026-04-06T13:58:51Z</time></trkpt><trkpt lat="44.4030745674389" lon="11.312346902535388"><ele>338.57142857142856</ele><time>2026-04-06T13:58:56Z</time></trkpt><trkpt lat="44.40304302880025" lon="11.312436667073582"><ele>339.42857142857144</ele><time>2026-04-06T13:59:02Z</time></trkpt><trkpt lat="44.403002734551684" lon="11.312521091343786"><ele>340.2857142857143</ele><time>2026-04-06T13:59:08Z</time></trkpt><trkpt lat="44.40296172411008" lon="11.31259476806886"><ele>341.1428571428571</ele><time>2026-04-06T13:59:14Z</time></trkpt><trkpt lat="44.402926884395185" lon="11.312678868633986"><ele>342.0</ele><time>2026-04-06T13:59:19Z</time></trkpt><trkpt lat="44.40289038511961" lon="11.31276696042785"><ele>339.4285714285714</ele><time>2026-04-06T13:59:24Z</time></trkpt><trkpt lat="44.40285735878166" lon="11.312842330492828"><ele>336.85714285714283</ele><time>2026-04-06T13:59:29Z</time></trkpt><trkpt lat="44.40283108298748" lon="11.312923914200374"><ele>334.2857142857143</ele><time>2026-04-06T13:59:34Z</time></trkpt><trkpt lat="44.40280233609296" lon="11.313003098829249"><ele>331.71428571428567</ele><time>2026-04-06T13:59:39Z</time></trkpt><trkpt lat="44.40277718498687" lon="11.313094296575864"><ele>329.1428571428571</ele><time>2026-04-06T13:59:44Z</time></trkpt><trkpt lat="44.402742552960014" lon="11.313190089414876"><ele>326.57142857142856</ele><time>2026-04-06T13:59:50Z</time></trkpt><trkpt lat="44.40271367103426" lon="11.313277726927534"><ele>324.0</ele><time>2026-04-06T13:59:55Z</time></trkpt><trkpt lat="44.4026886820671" lon="11.313373299484766"><ele>324.0</ele><time>2026-04-06T14:00:01Z</time></trkpt><trkpt lat="44.40267044217019" lon="11.313468549447567"><ele>324.0</ele><time>2026-04-06T14:00:07Z</time></trkpt><trkpt lat="44.402660200688615" lon="11.313569991049611"><ele>324.0</ele><time>2026-04-06T14:00:14Z</time></trkpt><trkpt lat="44.402635644106965" lon="11.313671263597282"><ele>324.0</ele><time>2026-04-06T14:00:21Z</time></trkpt><trkpt lat="44.40265946530541" lon="11.313767538954503"><ele>324.0</ele><time>2026-04-06T14:00:37Z</time></trkpt><trkpt lat="44.40268825624924" lon="11.313857002293357"><ele>324.0</ele><time>2026-04-06T14:00:44Z</time></trkpt><trkpt lat="44.40272498155451" lon="11.313945436887996"><ele>324.0</ele><time>2026-04-06T14:00:50Z</time></trkpt><trkpt lat="44.402766314157155" lon="11.314024606066631"><ele>323.57142857142856</ele><time>2026-04-06T14:00:56Z</time></trkpt><trkpt lat="44.402810947152425" lon="11.314097287191402"><ele>323.1428571428571</ele><time>2026-04-06T14:01:02Z</time></trkpt><trkpt lat="44.40286115149615" lon="11.314151629609333"><ele>322.71428571428567</ele><time>2026-04-06T14:01:07Z</time></trkpt><trkpt lat="44.40292899270999" lon="11.314213303367904"><ele>322.2857142857143</ele><time>2026-04-06T14:01:14Z</time></trkpt><trkpt lat="44.40299143026037" lon="11.314268067717624"><ele>321.85714285714283</ele><time>2026-04-06T14:01:20Z</time></trkpt><trkpt lat="44.403052228010246" lon="11.31431652919429"><ele>321.4285714285714</ele><time>2026-04-06T14:01:25Z</time></trkpt><trkpt lat="44.403106542110265" lon="11.314365324316114"><ele>321.0</ele><time>2026-04-06T14:01:30Z</time></trkpt><trkpt lat="44.40315858807114" lon="11.314437853615816"><ele>322.57142857142856</ele><time>2026-04-06T14:01:36Z</time></trkpt><trkpt lat="44.40319678654944" lon="11.314517237630152"><ele>324.1428571428571</ele><time>2026-04-06T14:01:41Z</time></trkpt><trkpt lat="44.40322814896527" lon="11.314595135807611"><ele>325.71428571428567</ele><time>2026-04-06T14:01:47Z</time></trkpt><trkpt lat="44.40326348284182" lon="11.314676642066225"><ele>327.2857142857143</ele><time>2026-04-06T14:01:53Z</time></trkpt><trkpt lat="44.403279594627406" lon="11.314781726432544"><ele>328.8571428571429</ele><time>2026-04-06T14:01:59Z</time></trkpt><trkpt lat="44.40329822870611" lon="11.314869644980817"><ele>330.4285714285714</ele><time>2026-04-06T14:02:04Z</time></trkpt><trkpt lat="44.40330239710272" lon="11.314967897986342"><ele>332.0</ele><time>2026-04-06T14:02:10Z</time></trkpt><trkpt lat="44.40332544175481" lon="11.315065563479779"><ele>332.0</ele><time>2026-04-06T14:02:16Z</time></trkpt><trkpt lat="44.403348625619536" lon="11.315152459688065"><ele>332.0</ele><time>2026-04-06T14:02:22Z</time></trkpt><trkpt lat="44.40338390092787" lon="11.315233292504123"><ele>332.0</ele><time>2026-04-06T14:02:28Z</time></trkpt><trkpt lat="44.40343069845424" lon="11.315294833071954"><ele>332.0</ele><time>2026-04-06T14:02:34Z</time></trkpt><trkpt lat="44.403480394179745" lon="11.315364708663298"><ele>332.0</ele><time>2026-04-06T14:02:41Z</time></trkpt><trkpt lat="44.40353849645348" lon="11.315423687743994"><ele>332.0</ele><time>2026-04-06T14:02:47Z</time></trkpt><trkpt lat="44.40359982528313" lon="11.315475536526977"><ele>332.0</ele><time>2026-04-06T14:02:53Z</time></trkpt><trkpt lat="44.40365554474558" lon="11.315536888271076"><ele>331.4285714285714</ele><time>2026-04-06T14:02:59Z</time></trkpt><trkpt lat="44.403709519304236" lon="11.315599621603305"><ele>330.8571428571429</ele><time>2026-04-06T14:03:05Z</time></trkpt><trkpt lat="44.403756870335" lon="11.315659301749513"><ele>330.2857142857143</ele><time>2026-04-06T14:03:11Z</time></trkpt><trkpt lat="44.40381937848999" lon="11.315712804511904"><ele>329.71428571428567</ele><time>2026-04-06T14:03:17Z</time></trkpt><trkpt lat="44.40387847629791" lon="11.315752968948345"><ele>329.1428571428571</ele><time>2026-04-06T14:03:23Z</time></trkpt><trkpt lat="44.40393829025564" lon="11.315782838890724"><ele>328.57142857142856</ele><time>2026-04-06T14:03:28Z</time></trkpt><trkpt lat="44.40400707474038" lon="11.315809148176053"><ele>328.0</ele><time>2026-04-06T14:03:32Z</time></trkpt><trkpt lat="44.40407127694933" lon="11.315832638411644"><ele>327.99999999999994</ele><time>2026-04-06T14:03:38Z</time></trkpt><trkpt lat="44.40414049687569" lon="11.315845548892863"><ele>328.0</ele><time>2026-04-06T14:03:44Z</time></trkpt><trkpt lat="44.40420719510678" lon="11.315871848812359"><ele>328.0</ele><time>2026-04-06T14:03:50Z</time></trkpt><trkpt lat="44.40427611427501" lon="11.315882838096178"><ele>328.0</ele><time>2026-04-06T14:03:56Z</time></trkpt><trkpt lat="44.40434269755987" lon="11.315917438051045"><ele>328.0</ele><time>2026-04-06T14:04:01Z</time></trkpt><trkpt lat="44.404414997737064" lon="11.315935718141091"><ele>327.99999999999994</ele><time>2026-04-06T14:04:06Z</time></trkpt><trkpt lat="44.404490904434745" lon="11.315940272742443"><ele>328.0</ele><time>2026-04-06T14:04:12Z</time></trkpt><trkpt lat="44.40456592721177" lon="11.315954008541674"><ele>327.99999999999994</ele><time>2026-04-06T14:04:18Z</time></trkpt><trkpt lat="44.40463701140271" lon="11.31595310742367"><ele>328.0</ele><time>2026-04-06T14:04:24Z</time></trkpt><trkpt lat="44.40470167269112" lon="11.315949061513331"><ele>328.0</ele><time>2026-04-06T14:04:29Z</time></trkpt><trkpt lat="44.40477496116353" lon="11.315951185360332"><ele>328.0</ele><time>2026-04-06T14:04:35Z</time></trkpt><trkpt lat="44.404847237184434" lon="11.315951670130266"><ele>328.0</ele><time>2026-04-06T14:04:41Z</time></trkpt><trkpt lat="44.404915450623406" lon="11.315966678925378"><ele>327.99999999999994</ele><time>2026-04-06T14:04:47Z</time></trkpt><trkpt lat="44.404970609933905" lon="11.316027279938101"><ele>328.0</ele><time>2026-04-06T14:04:52Z</time></trkpt><trkpt lat="44.404979238099685" lon="11.316121080736412"><ele>327.85714285714283</ele><time>2026-04-06T14:04:58Z</time></trkpt><trkpt lat="44.40493916914302" lon="11.316196646742288"><ele>327.7142857142857</ele><time>2026-04-06T14:05:06Z</time></trkpt><trkpt lat="44.40490013222748" lon="11.31627217224119"><ele>327.57142857142856</ele><time>2026-04-06T14:05:14Z</time></trkpt><trkpt lat="44.40484636809838" lon="11.316326668654147"><ele>327.42857142857144</ele><time>2026-04-06T14:05:22Z</time></trkpt><trkpt lat="44.40478652526328" lon="11.316358096341796"><ele>327.2857142857143</ele><time>2026-04-06T14:05:33Z</time></trkpt><trkpt lat="44.404726483091295" lon="11.31639861847912"><ele>327.1428571428571</ele><time>2026-04-06T14:05:42Z</time></trkpt><trkpt lat="44.4046683356881" lon="11.31643273318441"><ele>327.0</ele><time>2026-04-06T14:05:52Z</time></trkpt><trkpt lat="44.4046077584418" lon="11.316462488742316"><ele>324.2857142857143</ele><time>2026-04-06T14:06:02Z</time></trkpt><trkpt lat="44.40454393589225" lon="11.316504633462195"><ele>321.57142857142856</ele><time>2026-04-06T14:06:11Z</time></trkpt><trkpt lat="44.40448456940139" lon="11.31654737987563"><ele>318.8571428571429</ele><time>2026-04-06T14:06:19Z</time></trkpt><trkpt lat="44.40442037881915" lon="11.316583240758334"><ele>316.1428571428571</ele><time>2026-04-06T14:06:28Z</time></trkpt><trkpt lat="44.404357722926186" lon="11.316608614722611"><ele>313.42857142857144</ele><time>2026-04-06T14:06:34Z</time></trkpt><trkpt lat="44.40428732595262" lon="11.316579413207236"><ele>310.7142857142857</ele><time>2026-04-06T14:06:41Z</time></trkpt><trkpt lat="44.40422679802866" lon="11.31654503561995"><ele>308.0</ele><time>2026-04-06T14:06:46Z</time></trkpt><trkpt lat="44.404157839945206" lon="11.316525054945675"><ele>308.0</ele><time>2026-04-06T14:06:52Z</time></trkpt><trkpt lat="44.404111052925344" lon="11.316592018142584"><ele>308.0</ele><time>2026-04-06T14:07:04Z</time></trkpt><trkpt lat="44.40410198445182" lon="11.316689220298478"><ele>308.0</ele><time>2026-04-06T14:07:15Z</time></trkpt><trkpt lat="44.40409495346475" lon="11.316792874048744"><ele>308.0</ele><time>2026-04-06T14:07:22Z</time></trkpt><trkpt lat="44.40408090883235" lon="11.316885205780176"><ele>308.0</ele><time>2026-04-06T14:07:28Z</time></trkpt><trkpt lat="44.40405946518716" lon="11.316984089357156"><ele>308.0</ele><time>2026-04-06T14:07:34Z</time></trkpt><trkpt lat="44.404039969156514" lon="11.317080612708502"><ele>308.0</ele><time>2026-04-06T14:07:40Z</time></trkpt><trkpt lat="44.404029847062354" lon="11.317184017192153"><ele>306.7142857142857</ele><time>2026-04-06T14:07:46Z</time></trkpt><trkpt lat="44.40401618241907" lon="11.317279843722288"><ele>305.42857142857144</ele><time>2026-04-06T14:07:51Z</time></trkpt><trkpt lat="44.40400034252986" lon="11.317368783520637"><ele>304.1428571428571</ele><time>2026-04-06T14:07:55Z</time></trkpt><trkpt lat="44.40399074188233" lon="11.317461778434346"><ele>302.8571428571429</ele><time>2026-04-06T14:08:00Z</time></trkpt><trkpt lat="44.40397847166234" lon="11.31754905231608"><ele>301.57142857142856</ele><time>2026-04-06T14:08:04Z</time></trkpt><trkpt lat="44.403962524000804" lon="11.31764610653264"><ele>300.2857142857143</ele><time>2026-04-06T14:08:08.999Z</time></trkpt><trkpt lat="44.403955635706005" lon="11.317745856652035"><ele>299.0</ele><time>2026-04-06T14:08:13.999Z</time></trkpt><trkpt lat="44.40394049605408" lon="11.317851384326907"><ele>299.0</ele><time>2026-04-06T14:08:18.999Z</time></trkpt><trkpt lat="44.403935117940875" lon="11.317948178691747"><ele>299.0</ele><time>2026-04-06T14:08:23.999Z</time></trkpt><trkpt lat="44.40392859777012" lon="11.318045715624299"><ele>299.0</ele><time>2026-04-06T14:08:28.999Z</time></trkpt><trkpt lat="44.40392497687337" lon="11.318146693629837"><ele>299.0</ele><time>2026-04-06T14:08:33.999Z</time></trkpt><trkpt lat="44.403923251941805" lon="11.318251895723067"><ele>299.0</ele><time>2026-04-06T14:08:38.999Z</time></trkpt><trkpt lat="44.40391906291273" lon="11.318356272395885"><ele>299.0</ele><time>2026-04-06T14:08:44.999Z</time></trkpt><trkpt lat="44.403914841384825" lon="11.318452406661063"><ele>299.0</ele><time>2026-04-06T14:08:49.999Z</time></trkpt><trkpt lat="44.40388614329401" lon="11.31854133849285"><ele>298.57142857142856</ele><time>2026-04-06T14:08:55.999Z</time></trkpt><trkpt lat="44.403836643186345" lon="11.318598795477445"><ele>298.14285714285717</ele><time>2026-04-06T14:09:02Z</time></trkpt><trkpt lat="44.40376827005735" lon="11.318638268174174"><ele>297.7142857142857</ele><time>2026-04-06T14:09:10Z</time></trkpt><trkpt lat="44.403701622743064" lon="11.318689631386233"><ele>297.2857142857143</ele><time>2026-04-06T14:09:18Z</time></trkpt><trkpt lat="44.40365889673844" lon="11.31877773440719"><ele>296.85714285714283</ele><time>2026-04-06T14:09:25.001Z</time></trkpt><trkpt lat="44.40361738028839" lon="11.318858179100703"><ele>296.42857142857144</ele><time>2026-04-06T14:09:32.001Z</time></trkpt><trkpt lat="44.40357381196602" lon="11.318936202918225"><ele>296.0</ele><time>2026-04-06T14:09:39.001Z</time></trkpt><trkpt lat="44.4035316788891" lon="11.319008928851195"><ele>292.57142857142856</ele><time>2026-04-06T14:09:45.001Z</time></trkpt><trkpt lat="44.403488123660274" lon="11.319083559477"><ele>289.1428571428571</ele><time>2026-04-06T14:09:52Z</time></trkpt><trkpt lat="44.40344067138892" lon="11.319150460191464"><ele>285.71428571428567</ele><time>2026-04-06T14:09:58Z</time></trkpt><trkpt lat="44.403392394637365" lon="11.319223034262853"><ele>282.2857142857143</ele><time>2026-04-06T14:10:05Z</time></trkpt><trkpt lat="44.40335551537017" lon="11.319295831099192"><ele>278.85714285714283</ele><time>2026-04-06T14:10:11Z</time></trkpt><trkpt lat="44.403315815684934" lon="11.319377770818232"><ele>275.4285714285714</ele><time>2026-04-06T14:10:16Z</time></trkpt><trkpt lat="44.40326398739788" lon="11.31944774511657"><ele>272.0</ele><time>2026-04-06T14:10:21Z</time></trkpt><trkpt lat="44.403211024149726" lon="11.31951485878305"><ele>271.99999999999994</ele><time>2026-04-06T14:10:25Z</time></trkpt><trkpt lat="44.40316004817474" lon="11.319591657341816"><ele>272.0</ele><time>2026-04-06T14:10:30Z</time></trkpt><trkpt lat="44.40311401333418" lon="11.319654295781392"><ele>272.0</ele><time>2026-04-06T14:10:35Z</time></trkpt><trkpt lat="44.40305761253421" lon="11.31972896816356"><ele>272.0</ele><time>2026-04-06T14:10:40Z</time></trkpt><trkpt lat="44.40301001623992" lon="11.319807914036451"><ele>272.0</ele><time>2026-04-06T14:10:45Z</time></trkpt><trkpt lat="44.402973510784385" lon="11.31988177802665"><ele>271.99999999999994</ele><time>2026-04-06T14:10:50Z</time></trkpt><trkpt lat="44.40294737279187" lon="11.319965370053062"><ele>272.0</ele><time>2026-04-06T14:10:56Z</time></trkpt><trkpt lat="44.402915009805724" lon="11.320051084545883"><ele>268.85714285714283</ele><time>2026-04-06T14:11:03Z</time></trkpt><trkpt lat="44.40289058893487" lon="11.32013745760989"><ele>265.7142857142857</ele><time>2026-04-06T14:11:10.001Z</time></trkpt><trkpt lat="44.402861954015385" lon="11.320224466500354"><ele>262.57142857142856</ele><time>2026-04-06T14:11:17.001Z</time></trkpt><trkpt lat="44.402830591661115" lon="11.32030555897063"><ele>259.42857142857144</ele><time>2026-04-06T14:11:24.001Z</time></trkpt><trkpt lat="44.40279176212865" lon="11.320376479826097"><ele>256.2857142857143</ele><time>2026-04-06T14:11:30.001Z</time></trkpt><trkpt lat="44.40274635499726" lon="11.320453704783839"><ele>253.14285714285714</ele><time>2026-04-06T14:11:36Z</time></trkpt><trkpt lat="44.40268564448583" lon="11.32050204497303"><ele>250.0</ele><time>2026-04-06T14:11:43Z</time></trkpt><trkpt lat="44.40262331849487" lon="11.32052258226498"><ele>250.0</ele><time>2026-04-06T14:11:49Z</time></trkpt><trkpt lat="44.40256000605725" lon="11.320508626199834"><ele>250.0</ele><time>2026-04-06T14:11:56Z</time></trkpt><trkpt lat="44.40249286706398" lon="11.320516067978408"><ele>250.0</ele><time>2026-04-06T14:12:03Z</time></trkpt><trkpt lat="44.40242704920402" lon="11.320543230358485"><ele>250.0</ele><time>2026-04-06T14:12:09Z</time></trkpt><trkpt lat="44.402361996619476" lon="11.320561308017027"><ele>250.0</ele><time>2026-04-06T14:12:15Z</time></trkpt><trkpt lat="44.40229589889608" lon="11.320579795881606"><ele>250.0</ele><time>2026-04-06T14:12:21Z</time></trkpt><trkpt lat="44.402222474261464" lon="11.32059403616808"><ele>250.0</ele><time>2026-04-06T14:12:27Z</time></trkpt><trkpt lat="44.402146772058344" lon="11.320606707564933"><ele>246.85714285714283</ele><time>2026-04-06T14:12:33Z</time></trkpt><trkpt lat="44.40207202417867" lon="11.320618504861418"><ele>243.71428571428572</ele><time>2026-04-06T14:12:39Z</time></trkpt><trkpt lat="44.40199934421483" lon="11.320641321914547"><ele>240.57142857142856</ele><time>2026-04-06T14:12:46Z</time></trkpt><trkpt lat="44.40192912149531" lon="11.320666312499817"><ele>237.42857142857142</ele><time>2026-04-06T14:12:53Z</time></trkpt><trkpt lat="44.40186793482654" lon="11.320691225414265"><ele>234.28571428571428</ele><time>2026-04-06T14:12:59Z</time></trkpt><trkpt lat="44.40180567689343" lon="11.320721385515583"><ele>231.14285714285714</ele><time>2026-04-06T14:13:05Z</time></trkpt><trkpt lat="44.40174113449299" lon="11.320742059955073"><ele>228.0</ele><time>2026-04-06T14:13:11.001Z</time></trkpt><trkpt lat="44.40166994172239" lon="11.320752442884412"><ele>228.0</ele><time>2026-04-06T14:13:19Z</time></trkpt><trkpt lat="44.401602934857394" lon="11.320789639942376"><ele>227.99999999999997</ele><time>2026-04-06T14:13:25Z</time></trkpt><trkpt lat="44.40153792968194" lon="11.320818994929965"><ele>228.0</ele><time>2026-04-06T14:13:31Z</time></trkpt><trkpt lat="44.40146872213209" lon="11.320835719587858"><ele>228.0</ele><time>2026-04-06T14:13:38Z</time></trkpt><trkpt lat="44.401391409530504" lon="11.320850852148322"><ele>227.99999999999997</ele><time>2026-04-06T14:13:44Z</time></trkpt><trkpt lat="44.401319197150514" lon="11.320844358804727"><ele>228.0</ele><time>2026-04-06T14:13:50Z</time></trkpt><trkpt lat="44.401255046335" lon="11.320845126814293"><ele>228.0</ele><time>2026-04-06T14:13:56Z</time></trkpt><trkpt lat="44.40119142297662" lon="11.320902358619694"><ele>224.85714285714283</ele><time>2026-04-06T14:14:03Z</time></trkpt><trkpt lat="44.40115049292078" lon="11.320973644156028"><ele>221.7142857142857</ele><time>2026-04-06T14:14:08Z</time></trkpt><trkpt lat="44.401101139222895" lon="11.321038200955208"><ele>218.57142857142856</ele><time>2026-04-06T14:14:13Z</time></trkpt><trkpt lat="44.40105770701926" lon="11.321116844624747"><ele>215.42857142857142</ele><time>2026-04-06T14:14:18Z</time></trkpt><trkpt lat="44.40101472607048" lon="11.321200679310675"><ele>212.28571428571428</ele><time>2026-04-06T14:14:24Z</time></trkpt><trkpt lat="44.40098169380291" lon="11.321288508518819"><ele>209.1428571428571</ele><time>2026-04-06T14:14:30Z</time></trkpt><trkpt lat="44.400949404529555" lon="11.321370262196853"><ele>206.0</ele><time>2026-04-06T14:14:36Z</time></trkpt><trkpt lat="44.40090762410894" lon="11.321441684946171"><ele>205.57142857142856</ele><time>2026-04-06T14:14:43Z</time></trkpt><trkpt lat="44.400858217830574" lon="11.321510481445355"><ele>205.14285714285714</ele><time>2026-04-06T14:14:51Z</time></trkpt><trkpt lat="44.40079680120622" lon="11.32154321674033"><ele>204.71428571428572</ele><time>2026-04-06T14:14:58Z</time></trkpt><trkpt lat="44.40072817364799" lon="11.321573449532083"><ele>204.28571428571428</ele><time>2026-04-06T14:15:07Z</time></trkpt><trkpt lat="44.40066436141245" lon="11.321564158273697"><ele>203.85714285714286</ele><time>2026-04-06T14:15:13Z</time></trkpt><trkpt lat="44.40059679442778" lon="11.321538920304318"><ele>203.42857142857142</ele><time>2026-04-06T14:15:20Z</time></trkpt><trkpt lat="44.40052959204614" lon="11.321492976688418"><ele>203.0</ele><time>2026-04-06T14:15:27Z</time></trkpt><trkpt lat="44.40047809047905" lon="11.321437929578083"><ele>199.57142857142858</ele><time>2026-04-06T14:15:34Z</time></trkpt><trkpt lat="44.400429713539104" lon="11.321381045746344"><ele>196.14285714285714</ele><time>2026-04-06T14:15:40Z</time></trkpt><trkpt lat="44.40037753196536" lon="11.321325323332339"><ele>192.71428571428572</ele><time>2026-04-06T14:15:48Z</time></trkpt><trkpt lat="44.40032654998026" lon="11.321264717440027"><ele>189.28571428571428</ele><time>2026-04-06T14:15:54Z</time></trkpt><trkpt lat="44.400283966223675" lon="11.321193115645054"><ele>185.85714285714286</ele><time>2026-04-06T14:16:00Z</time></trkpt><trkpt lat="44.40024741234822" lon="11.321103288652758"><ele>182.42857142857144</ele><time>2026-04-06T14:16:06Z</time></trkpt><trkpt lat="44.4002125724174" lon="11.321010084775489"><ele>179.0</ele><time>2026-04-06T14:16:12Z</time></trkpt><trkpt lat="44.40018264898855" lon="11.320926710574533"><ele>179.00000000000003</ele><time>2026-04-06T14:16:17Z</time></trkpt><trkpt lat="44.40014143829399" lon="11.320853301809391"><ele>179.0</ele><time>2026-04-06T14:16:22Z</time></trkpt><trkpt lat="44.40009060156527" lon="11.320776003989735"><ele>179.0</ele><time>2026-04-06T14:16:28Z</time></trkpt><trkpt lat="44.400041362037335" lon="11.320710943337161"><ele>179.0</ele><time>2026-04-06T14:16:34Z</time></trkpt><trkpt lat="44.39997555430408" lon="11.32065488586128"><ele>179.0</ele><time>2026-04-06T14:16:40Z</time></trkpt><trkpt lat="44.39991267211357" lon="11.320620857148668"><ele>179.00000000000003</ele><time>2026-04-06T14:16:46Z</time></trkpt><trkpt lat="44.39985253862709" lon="11.320681369865174"><ele>179.0</ele><time>2026-04-06T14:16:55Z</time></trkpt><trkpt lat="44.399822429937494" lon="11.320768355754815"><ele>179.00000000000003</ele><time>2026-04-06T14:17:05Z</time></trkpt><trkpt lat="44.3997961276731" lon="11.320857131842532"><ele>179.0</ele><time>2026-04-06T14:17:14Z</time></trkpt><trkpt lat="44.39976147482022" lon="11.32093723629605"><ele>179.0</ele><time>2026-04-06T14:17:21Z</time></trkpt><trkpt lat="44.39971582974342" lon="11.321002814687173"><ele>179.0</ele><time>2026-04-06T14:17:27Z</time></trkpt><trkpt lat="44.399672559376896" lon="11.32106762658652"><ele>179.0</ele><time>2026-04-06T14:17:32Z</time></trkpt><trkpt lat="44.39965149518621" lon="11.321171428243137"><ele>179.00000000000003</ele><time>2026-04-06T14:17:38Z</time></trkpt><trkpt lat="44.399643980344166" lon="11.32128045988741"><ele>179.0</ele><time>2026-04-06T14:17:43Z</time></trkpt><trkpt lat="44.39963505018115" lon="11.321371312986976"><ele>178.57142857142858</ele><time>2026-04-06T14:17:47Z</time></trkpt><trkpt lat="44.39963986889197" lon="11.321489377389005"><ele>178.14285714285714</ele><time>2026-04-06T14:17:52Z</time></trkpt><trkpt lat="44.399660060532504" lon="11.32158251755573"><ele>177.71428571428572</ele><time>2026-04-06T14:17:57Z</time></trkpt><trkpt lat="44.39967596906977" lon="11.321672404993178"><ele>177.28571428571428</ele><time>2026-04-06T14:18:02Z</time></trkpt><trkpt lat="44.39969195946347" lon="11.321765978012433"><ele>176.85714285714286</ele><time>2026-04-06T14:18:06Z</time></trkpt><trkpt lat="44.39973072043668" lon="11.321857515282504"><ele>176.42857142857144</ele><time>2026-04-06T14:18:11Z</time></trkpt><trkpt lat="44.399774623561036" lon="11.321944640530027"><ele>176.0</ele><time>2026-04-06T14:18:16Z</time></trkpt><trkpt lat="44.39982294268" lon="11.322026003373216"><ele>176.0</ele><time>2026-04-06T14:18:22Z</time></trkpt><trkpt lat="44.3998686899732" lon="11.322099866125457"><ele>176.0</ele><time>2026-04-06T14:18:27Z</time></trkpt><trkpt lat="44.39990929662541" lon="11.322171398170854"><ele>176.0</ele><time>2026-04-06T14:18:32Z</time></trkpt><trkpt lat="44.39994983198143" lon="11.322270691768683"><ele>176.0</ele><time>2026-04-06T14:18:38Z</time></trkpt><trkpt lat="44.39998349240286" lon="11.322362535312205"><ele>176.0</ele><time>2026-04-06T14:18:43Z</time></trkpt><trkpt lat="44.4000120035219" lon="11.322448308712467"><ele>176.0</ele><time>2026-04-06T14:18:48Z</time></trkpt><trkpt lat="44.40005008317151" lon="11.322544599624042"><ele>176.0</ele><time>2026-04-06T14:18:53Z</time></trkpt><trkpt lat="44.4000946634119" lon="11.322633048721297"><ele>175.42857142857144</ele><time>2026-04-06T14:18:59Z</time></trkpt><trkpt lat="44.40013489800644" lon="11.322716709073354"><ele>174.85714285714286</ele><time>2026-04-06T14:19:04Z</time></trkpt><trkpt lat="44.40017975074972" lon="11.322782989111023"><ele>174.28571428571428</ele><time>2026-04-06T14:19:09Z</time></trkpt><trkpt lat="44.40022771051053" lon="11.32285396593806"><ele>173.71428571428572</ele><time>2026-04-06T14:19:14Z</time></trkpt><trkpt lat="44.40025591920148" lon="11.322948456123846"><ele>173.14285714285714</ele><time>2026-04-06T14:19:19Z</time></trkpt><trkpt lat="44.40027536193223" lon="11.323049896326498"><ele>172.57142857142858</ele><time>2026-04-06T14:19:24Z</time></trkpt><trkpt lat="44.40028243773673" lon="11.323149839128797"><ele>172.0</ele><time>2026-04-06T14:19:30Z</time></trkpt><trkpt lat="44.400281869774176" lon="11.323242606262157"><ele>172.00000000000003</ele><time>2026-04-06T14:19:35Z</time></trkpt><trkpt lat="44.40028994029727" lon="11.323331860985089"><ele>172.0</ele><time>2026-04-06T14:19:40Z</time></trkpt><trkpt lat="44.4002979052553" lon="11.323426764156547"><ele>172.0</ele><time>2026-04-06T14:19:45Z</time></trkpt><trkpt lat="44.40031004991905" lon="11.323528274794427"><ele>172.0</ele><time>2026-04-06T14:19:51Z</time></trkpt><trkpt lat="44.400317634093135" lon="11.323618087352083"><ele>172.0</ele><time>2026-04-06T14:19:55Z</time></trkpt><trkpt lat="44.40033147376382" lon="11.323715796366935"><ele>172.00000000000003</ele><time>2026-04-06T14:20:00Z</time></trkpt><trkpt lat="44.40034402411365" lon="11.323811853625783"><ele>172.0</ele><time>2026-04-06T14:20:05Z</time></trkpt><trkpt lat="44.400366451910706" lon="11.32390685429014"><ele>171.71428571428572</ele><time>2026-04-06T14:20:10Z</time></trkpt><trkpt lat="44.400386627908325" lon="11.324009162366101"><ele>171.42857142857144</ele><time>2026-04-06T14:20:16Z</time></trkpt><trkpt lat="44.40039658246557" lon="11.324105147335489"><ele>171.14285714285717</ele><time>2026-04-06T14:20:21Z</time></trkpt><trkpt lat="44.40042685948504" lon="11.324187040046088"><ele>170.85714285714286</ele><time>2026-04-06T14:20:49Z</time></trkpt><trkpt lat="44.400428259787" lon="11.324277684615453"><ele>170.57142857142856</ele><time>2026-04-06T14:20:56Z</time></trkpt><trkpt lat="44.4003984599984" lon="11.32437075517951"><ele>170.2857142857143</ele><time>2026-04-06T14:21:02Z</time></trkpt><trkpt lat="44.40036305251794" lon="11.32445242756384"><ele>170.0</ele><time>2026-04-06T14:21:07Z</time></trkpt><trkpt lat="44.40036805424072" lon="11.324541662174111"><ele>170.0</ele><time>2026-04-06T14:21:12Z</time></trkpt><trkpt lat="44.400359503040214" lon="11.324641542090038"><ele>170.0</ele><time>2026-04-06T14:21:18Z</time></trkpt><trkpt lat="44.400354429869445" lon="11.324742199311158"><ele>170.0</ele><time>2026-04-06T14:21:24Z</time></trkpt><trkpt lat="44.40033960212887" lon="11.324833562586539"><ele>170.0</ele><time>2026-04-06T14:21:29Z</time></trkpt><trkpt lat="44.40035268716669" lon="11.324926831749352"><ele>170.0</ele><time>2026-04-06T14:21:35Z</time></trkpt><trkpt lat="44.4003663026915" lon="11.325024776288808"><ele>170.0</ele><time>2026-04-06T14:21:40Z</time></trkpt><trkpt lat="44.4003873797092" lon="11.325111423628913"><ele>170.0</ele><time>2026-04-06T14:21:45Z</time></trkpt><trkpt lat="44.40041516292169" lon="11.325218119205166"><ele>170.0</ele><time>2026-04-06T14:21:51Z</time></trkpt><trkpt lat="44.40043701730669" lon="11.325309883986893"><ele>170.0</ele><time>2026-04-06T14:21:56Z</time></trkpt><trkpt lat="44.400457247331104" lon="11.325401632175067"><ele>170.0</ele><time>2026-04-06T14:22:01Z</time></trkpt><trkpt lat="44.4004748502477" lon="11.325488077393235"><ele>170.0</ele><time>2026-04-06T14:22:06Z</time></trkpt><trkpt lat="44.400474592398915" lon="11.325588713353245"><ele>170.0</ele><time>2026-04-06T14:22:11Z</time></trkpt><trkpt lat="44.40046741512509" lon="11.32568752561012"><ele>170.0</ele><time>2026-04-06T14:22:16Z</time></trkpt><trkpt lat="44.40045552508167" lon="11.325794699698218"><ele>170.0</ele><time>2026-04-06T14:22:21Z</time></trkpt><trkpt lat="44.40043586182586" lon="11.325890264372655"><ele>169.14285714285714</ele><time>2026-04-06T14:22:27Z</time></trkpt><trkpt lat="44.40040678747466" lon="11.325983653337842"><ele>168.28571428571428</ele><time>2026-04-06T14:22:33Z</time></trkpt><trkpt lat="44.40037973614851" lon="11.326068056860734"><ele>167.42857142857142</ele><time>2026-04-06T14:22:38Z</time></trkpt><trkpt lat="44.40034509378958" lon="11.326159504893504"><ele>166.57142857142856</ele><time>2026-04-06T14:22:43Z</time></trkpt><trkpt lat="44.400314315317246" lon="11.32624676006341"><ele>165.71428571428572</ele><time>2026-04-06T14:22:49Z</time></trkpt><trkpt lat="44.40028221970212" lon="11.32632965230678"><ele>164.85714285714283</ele><time>2026-04-06T14:22:54Z</time></trkpt><trkpt lat="44.40027959581076" lon="11.3264205759121"><ele>164.0</ele><time>2026-04-06T14:22:59Z</time></trkpt><trkpt lat="44.400289745399824" lon="11.32651702257658"><ele>163.42857142857142</ele><time>2026-04-06T14:23:04Z</time></trkpt><trkpt lat="44.40028513722136" lon="11.326609510564738"><ele>162.85714285714286</ele><time>2026-04-06T14:23:09Z</time></trkpt><trkpt lat="44.4002747630836" lon="11.326699754743776"><ele>162.28571428571428</ele><time>2026-04-06T14:23:13Z</time></trkpt><trkpt lat="44.40024816635338" lon="11.326790912350125"><ele>161.71428571428572</ele><time>2026-04-06T14:23:18Z</time></trkpt><trkpt lat="44.400200299876836" lon="11.326862657288954"><ele>161.14285714285714</ele><time>2026-04-06T14:23:23Z</time></trkpt><trkpt lat="44.400148348277305" lon="11.326938915921446"><ele>160.57142857142856</ele><time>2026-04-06T14:23:28Z</time></trkpt><trkpt lat="44.400114435294746" lon="11.327017478691277"><ele>160.0</ele><time>2026-04-06T14:23:33Z</time></trkpt><trkpt lat="44.40008205057281" lon="11.327108039332826"><ele>160.0</ele><time>2026-04-06T14:23:38Z</time></trkpt><trkpt lat="44.400072639312235" lon="11.327200119370817"><ele>160.0</ele><time>2026-04-06T14:23:43Z</time></trkpt><trkpt lat="44.40005965424067" lon="11.327291045898804"><ele>160.0</ele><time>2026-04-06T14:23:48Z</time></trkpt><trkpt lat="44.400050965524294" lon="11.327392950285466"><ele>160.0</ele><time>2026-04-06T14:23:54Z</time></trkpt><trkpt lat="44.40004478169252" lon="11.327497610277199"><ele>160.0</ele><time>2026-04-06T14:23:59Z</time></trkpt><trkpt lat="44.400055496226074" lon="11.327597978803555"><ele>160.0</ele><time>2026-04-06T14:24:04Z</time></trkpt><trkpt lat="44.400063883044695" lon="11.327711983389097"><ele>160.0</ele><time>2026-04-06T14:24:09Z</time></trkpt><trkpt lat="44.40006765867799" lon="11.327815402117666"><ele>160.0</ele><time>2026-04-06T14:24:14Z</time></trkpt><trkpt lat="44.400081615181804" lon="11.327901612128379"><ele>160.0</ele><time>2026-04-06T14:24:18Z</time></trkpt><trkpt lat="44.40009081431093" lon="11.328004575571784"><ele>160.0</ele><time>2026-04-06T14:24:23Z</time></trkpt><trkpt lat="44.40009168530859" lon="11.328109343754596"><ele>160.0</ele><time>2026-04-06T14:24:28Z</time></trkpt><trkpt lat="44.40009696349124" lon="11.328201744080982"><ele>160.0</ele><time>2026-04-06T14:24:33Z</time></trkpt><trkpt lat="44.40010144962593" lon="11.328297816339184"><ele>160.0</ele><time>2026-04-06T14:24:38Z</time></trkpt><trkpt lat="44.40011320327066" lon="11.328387473295804"><ele>160.0</ele><time>2026-04-06T14:24:43Z</time></trkpt><trkpt lat="44.400113058302594" lon="11.3284892509118"><ele>160.0</ele><time>2026-04-06T14:24:48Z</time></trkpt><trkpt lat="44.40012159902367" lon="11.328576803071046"><ele>160.0</ele><time>2026-04-06T14:24:53Z</time></trkpt><trkpt lat="44.40012229966833" lon="11.328669319694862"><ele>160.0</ele><time>2026-04-06T14:24:58Z</time></trkpt><trkpt lat="44.40013930065884" lon="11.328755185666264"><ele>160.0</ele><time>2026-04-06T14:25:02Z</time></trkpt><trkpt lat="44.40014767472936" lon="11.32885514670405"><ele>160.0</ele><time>2026-04-06T14:25:07Z</time></trkpt><trkpt lat="44.40015305362921" lon="11.328960393677223"><ele>160.0</ele><time>2026-04-06T14:25:12Z</time></trkpt><trkpt lat="44.40015816000125" lon="11.32905964488605"><ele>160.0</ele><time>2026-04-06T14:25:17Z</time></trkpt><trkpt lat="44.40017016585821" lon="11.329152641111447"><ele>159.85714285714286</ele><time>2026-04-06T14:25:22Z</time></trkpt><trkpt lat="44.400184654522995" lon="11.32925936780839"><ele>159.71428571428572</ele><time>2026-04-06T14:25:28Z</time></trkpt><trkpt lat="44.4002033803784" lon="11.329345721306906"><ele>159.57142857142856</ele><time>2026-04-06T14:25:33Z</time></trkpt><trkpt lat="44.40021442220422" lon="11.329436822162037"><ele>159.42857142857144</ele><time>2026-04-06T14:25:38Z</time></trkpt><trkpt lat="44.40023599001436" lon="11.32953614714668"><ele>159.2857142857143</ele><time>2026-04-06T14:25:43Z</time></trkpt><trkpt lat="44.40026543939565" lon="11.329624216946527"><ele>159.14285714285714</ele><time>2026-04-06T14:25:49Z</time></trkpt><trkpt lat="44.40028579604237" lon="11.329710378483947"><ele>159.0</ele><time>2026-04-06T14:25:54Z</time></trkpt><trkpt lat="44.400301767426285" lon="11.32980481100053"><ele>159.33333333333334</ele><time>2026-04-06T14:25:59Z</time></trkpt><trkpt lat="44.40032811176683" lon="11.329903273491992"><ele>159.66666666666666</ele><time>2026-04-06T14:26:04Z</time></trkpt><trkpt lat="44.400356621867296" lon="11.330001576918479"><ele>160.0</ele><time>2026-04-06T14:26:09Z</time></trkpt><trkpt lat="44.400375740998754" lon="11.330090202229364"><ele>160.33333333333331</ele><time>2026-04-06T14:26:14Z</time></trkpt><trkpt lat="44.400419319641934" lon="11.330172971008933"><ele>160.66666666666666</ele><time>2026-04-06T14:27:23Z</time></trkpt><trkpt lat="44.40048089152257" lon="11.330329472687074"><ele>161.0</ele><time>2026-04-06T14:27:55Z</time></trkpt><trkpt lat="44.400508755198" lon="11.330410460096328"><ele>161.14285714285714</ele><time>2026-04-06T14:28:01Z</time></trkpt><trkpt lat="44.40054563620175" lon="11.330484745601753"><ele>161.28571428571428</ele><time>2026-04-06T14:28:06Z</time></trkpt><trkpt lat="44.40056181716714" lon="11.330572654217422"><ele>161.42857142857144</ele><time>2026-04-06T14:28:10Z</time></trkpt><trkpt lat="44.40055915101702" lon="11.330675969784629"><ele>161.57142857142856</ele><time>2026-04-06T14:28:15Z</time></trkpt><trkpt lat="44.40058110361234" lon="11.3307591648239"><ele>161.71428571428572</ele><time>2026-04-06T14:28:20Z</time></trkpt><trkpt lat="44.40060290834844" lon="11.330843747572814"><ele>161.85714285714286</ele><time>2026-04-06T14:28:25Z</time></trkpt><trkpt lat="44.40067263993989" lon="11.330893447610748"><ele>162.0</ele><time>2026-04-06T14:28:32Z</time></trkpt><trkpt lat="44.400744101290115" lon="11.330881535324663"><ele>161.57142857142858</ele><time>2026-04-06T14:28:37Z</time></trkpt><trkpt lat="44.40081021390522" lon="11.330873210945732"><ele>161.14285714285714</ele><time>2026-04-06T14:28:42Z</time></trkpt><trkpt lat="44.40086927550281" lon="11.330912886649365"><ele>160.71428571428572</ele><time>2026-04-06T14:28:46Z</time></trkpt><trkpt lat="44.40089361747202" lon="11.33099747935969"><ele>160.28571428571428</ele><time>2026-04-06T14:28:50Z</time></trkpt><trkpt lat="44.40091127577162" lon="11.331090444735677"><ele>159.85714285714286</ele><time>2026-04-06T14:28:55Z</time></trkpt><trkpt lat="44.40093757811504" lon="11.331178874146307"><ele>159.42857142857142</ele><time>2026-04-06T14:29:00Z</time></trkpt><trkpt lat="44.40096089402177" lon="11.331274773797963"><ele>159.0</ele><time>2026-04-06T14:29:05Z</time></trkpt><trkpt lat="44.40097710997206" lon="11.331373658300375"><ele>158.28571428571428</ele><time>2026-04-06T14:29:11Z</time></trkpt><trkpt lat="44.40100245684924" lon="11.331466146654074"><ele>157.57142857142858</ele><time>2026-04-06T14:29:16Z</time></trkpt><trkpt lat="44.40103667596539" lon="11.331555372803631"><ele>156.85714285714286</ele><time>2026-04-06T14:29:23Z</time></trkpt><trkpt lat="44.40106994879143" lon="11.331651354173525"><ele>156.14285714285714</ele><time>2026-04-06T14:29:30Z</time></trkpt><trkpt lat="44.40110574260884" lon="11.331741143367543"><ele>155.42857142857144</ele><time>2026-04-06T14:29:36Z</time></trkpt><trkpt lat="44.40113058701258" lon="11.33183086453261"><ele>154.71428571428572</ele><time>2026-04-06T14:29:41Z</time></trkpt><trkpt lat="44.40115904964314" lon="11.331915665746674"><ele>154.0</ele><time>2026-04-06T14:29:46Z</time></trkpt><trkpt lat="44.4011823768543" lon="11.33200810414402"><ele>154.0</ele><time>2026-04-06T14:29:52Z</time></trkpt><trkpt lat="44.40120141129838" lon="11.33209782526344"><ele>154.0</ele><time>2026-04-06T14:29:57Z</time></trkpt><trkpt lat="44.40122638865763" lon="11.332190915352417"><ele>154.0</ele><time>2026-04-06T14:30:02Z</time></trkpt><trkpt lat="44.40124265124699" lon="11.332286850967566"><ele>154.0</ele><time>2026-04-06T14:30:08Z</time></trkpt><trkpt lat="44.40123954656767" lon="11.3323757528374"><ele>154.0</ele><time>2026-04-06T14:30:17Z</time></trkpt><trkpt lat="44.40118646464316" lon="11.332446304306904"><ele>154.0</ele><time>2026-04-06T14:30:35Z</time></trkpt><trkpt lat="44.40124973240088" lon="11.332415678333094"><ele>154.0</ele><time>2026-04-06T14:30:41Z</time></trkpt><trkpt lat="44.4012833080377" lon="11.332491105905"><ele>154.14285714285714</ele><time>2026-04-06T14:30:46Z</time></trkpt><trkpt lat="44.401309579771336" lon="11.33258245004145"><ele>154.28571428571428</ele><time>2026-04-06T14:31:02Z</time></trkpt><trkpt lat="44.40133529222057" lon="11.332666857567775"><ele>154.42857142857144</ele><time>2026-04-06T14:31:08Z</time></trkpt><trkpt lat="44.40135709040144" lon="11.332754333869477"><ele>154.57142857142856</ele><time>2026-04-06T14:31:13Z</time></trkpt><trkpt lat="44.40138506691257" lon="11.332842045626643"><ele>154.71428571428572</ele><time>2026-04-06T14:31:18Z</time></trkpt><trkpt lat="44.40141207839714" lon="11.33292580658314"><ele>154.85714285714286</ele><time>2026-04-06T14:31:23Z</time></trkpt><trkpt lat="44.40143937766995" lon="11.333013901619942"><ele>155.0</ele><time>2026-04-06T14:31:28Z</time></trkpt><trkpt lat="44.40146483327411" lon="11.333104454544038"><ele>155.0</ele><time>2026-04-06T14:31:33Z</time></trkpt><trkpt lat="44.4014917485347" lon="11.333209035470736"><ele>155.0</ele><time>2026-04-06T14:31:39Z</time></trkpt><trkpt lat="44.401533073133685" lon="11.333301569363444"><ele>155.0</ele><time>2026-04-06T14:31:45Z</time></trkpt><trkpt lat="44.40155767814893" lon="11.333388474261534"><ele>155.0</ele><time>2026-04-06T14:31:50Z</time></trkpt><trkpt lat="44.40158543082416" lon="11.333475297176284"><ele>155.0</ele><time>2026-04-06T14:31:55Z</time></trkpt><trkpt lat="44.40160114582178" lon="11.333566486925045"><ele>155.0</ele><time>2026-04-06T14:32:00Z</time></trkpt><trkpt lat="44.401626831033745" lon="11.333653821487438"><ele>155.0</ele><time>2026-04-06T14:32:05Z</time></trkpt><trkpt lat="44.40166155041411" lon="11.333748890927176"><ele>155.0</ele><time>2026-04-06T14:32:11Z</time></trkpt><trkpt lat="44.401687548251005" lon="11.333831263270547"><ele>155.0</ele><time>2026-04-06T14:32:16Z</time></trkpt><trkpt lat="44.401716820812496" lon="11.333912795483545"><ele>155.0</ele><time>2026-04-06T14:32:21Z</time></trkpt><trkpt lat="44.40174778707897" lon="11.333996143838052"><ele>155.0</ele><time>2026-04-06T14:32:26Z</time></trkpt><trkpt lat="44.40178381314007" lon="11.334077832896691"><ele>155.0</ele><time>2026-04-06T14:32:31Z</time></trkpt><trkpt lat="44.401817263745336" lon="11.334153919414945"><ele>155.0</ele><time>2026-04-06T14:32:36Z</time></trkpt><trkpt lat="44.40184335282196" lon="11.334240259178193"><ele>155.0</ele><time>2026-04-06T14:32:41Z</time></trkpt><trkpt lat="44.40186110577527" lon="11.334327401383288"><ele>154.71428571428572</ele><time>2026-04-06T14:32:46Z</time></trkpt><trkpt lat="44.40187034926897" lon="11.334420262992042"><ele>154.42857142857142</ele><time>2026-04-06T14:32:51Z</time></trkpt><trkpt lat="44.40187098384833" lon="11.334511509501416"><ele>154.14285714285714</ele><time>2026-04-06T14:32:56Z</time></trkpt><trkpt lat="44.40187079874582" lon="11.334615959584374"><ele>153.85714285714286</ele><time>2026-04-06T14:33:02Z</time></trkpt><trkpt lat="44.40186877305691" lon="11.33470929196128"><ele>153.57142857142858</ele><time>2026-04-06T14:33:07Z</time></trkpt><trkpt lat="44.40186058779805" lon="11.334801860954215"><ele>153.28571428571428</ele><time>2026-04-06T14:33:12Z</time></trkpt><trkpt lat="44.40184684545159" lon="11.334894306021887"><ele>153.0</ele><time>2026-04-06T14:33:17Z</time></trkpt><trkpt lat="44.40183068875627" lon="11.334980812564124"><ele>153.0</ele><time>2026-04-06T14:33:22Z</time></trkpt><trkpt lat="44.40181897278214" lon="11.335075688882599"><ele>153.0</ele><time>2026-04-06T14:33:27Z</time></trkpt><trkpt lat="44.40179546771077" lon="11.335169628019978"><ele>153.0</ele><time>2026-04-06T14:33:32Z</time></trkpt><trkpt lat="44.401769471919536" lon="11.335257986722553"><ele>153.0</ele><time>2026-04-06T14:33:37Z</time></trkpt><trkpt lat="44.40173729696557" lon="11.335357009828762"><ele>153.0</ele><time>2026-04-06T14:33:43Z</time></trkpt><trkpt lat="44.40168657975136" lon="11.335443051645498"><ele>153.0</ele><time>2026-04-06T14:33:49Z</time></trkpt><trkpt lat="44.40164583411672" lon="11.335531806413112"><ele>153.0</ele><time>2026-04-06T14:33:54Z</time></trkpt><trkpt lat="44.401602957729736" lon="11.335612038428495"><ele>152.85714285714286</ele><time>2026-04-06T14:33:59Z</time></trkpt><trkpt lat="44.40155227459775" lon="11.335679232181953"><ele>152.71428571428572</ele><time>2026-04-06T14:34:04Z</time></trkpt><trkpt lat="44.40149345125387" lon="11.33573427515509"><ele>152.57142857142856</ele><time>2026-04-06T14:34:10Z</time></trkpt><trkpt lat="44.40143351999289" lon="11.335801714141178"><ele>152.42857142857144</ele><time>2026-04-06T14:34:16Z</time></trkpt><trkpt lat="44.401378391205974" lon="11.335866880883517"><ele>152.2857142857143</ele><time>2026-04-06T14:34:21Z</time></trkpt><trkpt lat="44.40132852146458" lon="11.335921877320095"><ele>152.14285714285714</ele><time>2026-04-06T14:34:25Z</time></trkpt><trkpt lat="44.40128398585937" lon="11.336000044413819"><ele>152.0</ele><time>2026-04-06T14:34:30Z</time></trkpt><trkpt lat="44.40124642872834" lon="11.33607615895666"><ele>152.0</ele><time>2026-04-06T14:34:35Z</time></trkpt><trkpt lat="44.401203033364645" lon="11.33614777480018"><ele>152.0</ele><time>2026-04-06T14:34:40Z</time></trkpt><trkpt lat="44.40115858636095" lon="11.336236713430747"><ele>152.0</ele><time>2026-04-06T14:34:46Z</time></trkpt><trkpt lat="44.4011328391957" lon="11.336328631792735"><ele>152.0</ele><time>2026-04-06T14:34:51Z</time></trkpt><trkpt lat="44.401086635908015" lon="11.336396405737496"><ele>152.0</ele><time>2026-04-06T14:34:56Z</time></trkpt><trkpt lat="44.401018741658795" lon="11.33640207250082"><ele>152.0</ele><time>2026-04-06T14:35:01Z</time></trkpt><trkpt lat="44.40094739561274" lon="11.336391176624808"><ele>152.0</ele><time>2026-04-06T14:35:06Z</time></trkpt><trkpt lat="44.400876409795345" lon="11.336380175960928"><ele>152.0</ele><time>2026-04-06T14:35:11Z</time></trkpt><trkpt lat="44.40079798989119" lon="11.33637267809776"><ele>152.0</ele><time>2026-04-06T14:35:17Z</time></trkpt><trkpt lat="44.400732635364335" lon="11.336361856643729"><ele>152.0</ele><time>2026-04-06T14:35:21Z</time></trkpt><trkpt lat="44.400665906586454" lon="11.336360056046933"><ele>152.0</ele><time>2026-04-06T14:35:26Z</time></trkpt><trkpt lat="44.40059583978624" lon="11.3363537411661"><ele>152.0</ele><time>2026-04-06T14:35:31Z</time></trkpt><trkpt lat="44.40052822563713" lon="11.336348578781354"><ele>152.0</ele><time>2026-04-06T14:35:38Z</time></trkpt><trkpt lat="44.400459893195176" lon="11.336358819231695"><ele>152.0</ele><time>2026-04-06T14:35:46Z</time></trkpt><trkpt lat="44.400398782102414" lon="11.336325244150315"><ele>152.42857142857142</ele><time>2026-04-06T14:35:58Z</time></trkpt><trkpt lat="44.40032754489477" lon="11.33631443343002"><ele>152.85714285714286</ele><time>2026-04-06T14:36:03Z</time></trkpt><trkpt lat="44.400258824244524" lon="11.336296282683778"><ele>153.28571428571428</ele><time>2026-04-06T14:36:09Z</time></trkpt><trkpt lat="44.40019195931772" lon="11.336268687663358"><ele>153.71428571428572</ele><time>2026-04-06T14:36:15Z</time></trkpt><trkpt lat="44.4001188973566" lon="11.336278212686782"><ele>154.14285714285714</ele><time>2026-04-06T14:36:24Z</time></trkpt><trkpt lat="44.40004945554279" lon="11.336281474927683"><ele>154.57142857142858</ele><time>2026-04-06T14:36:30Z</time></trkpt><trkpt lat="44.39997743812697" lon="11.336281855342841"><ele>155.0</ele><time>2026-04-06T14:36:46Z</time></trkpt><trkpt lat="44.399911664945066" lon="11.336272791285495"><ele>155.0</ele><time>2026-04-06T14:36:51Z</time></trkpt><trkpt lat="44.39984669570562" lon="11.336250002495584"><ele>155.0</ele><time>2026-04-06T14:36:56Z</time></trkpt><trkpt lat="44.3997542667805" lon="11.336249195931977"><ele>155.0</ele><time>2026-04-06T14:38:26Z</time></trkpt><trkpt lat="44.39968816670594" lon="11.336229832574464"><ele>155.0</ele><time>2026-04-06T14:38:32Z</time></trkpt><trkpt lat="44.399625329912375" lon="11.33620718366024"><ele>155.0</ele><time>2026-04-06T14:38:38Z</time></trkpt><trkpt lat="44.3995533017101" lon="11.336205388571205"><ele>155.0</ele><time>2026-04-06T14:38:44Z</time></trkpt><trkpt lat="44.39948504474701" lon="11.336197269698852"><ele>155.0</ele><time>2026-04-06T14:38:50Z</time></trkpt><trkpt lat="44.39941259363436" lon="11.33618485648087"><ele>154.57142857142858</ele><time>2026-04-06T14:38:57Z</time></trkpt><trkpt lat="44.399345759024484" lon="11.336175995082353"><ele>154.14285714285714</ele><time>2026-04-06T14:39:03Z</time></trkpt><trkpt lat="44.39927773796107" lon="11.33617024481161"><ele>153.71428571428572</ele><time>2026-04-06T14:39:09Z</time></trkpt><trkpt lat="44.39921191266105" lon="11.33616364727497"><ele>153.28571428571428</ele><time>2026-04-06T14:39:15Z</time></trkpt><trkpt lat="44.39914602020709" lon="11.336150209542284"><ele>152.85714285714286</ele><time>2026-04-06T14:39:21Z</time></trkpt><trkpt lat="44.399081473340566" lon="11.336146588479613"><ele>152.42857142857142</ele><time>2026-04-06T14:39:45Z</time></trkpt><trkpt lat="44.39901175746467" lon="11.336119623909292"><ele>152.0</ele><time>2026-04-06T14:39:51Z</time></trkpt><trkpt lat="44.39894145839998" lon="11.336105654910547"><ele>152.0</ele><time>2026-04-06T14:39:58Z</time></trkpt><trkpt lat="44.39887100028533" lon="11.336088763771487"><ele>152.0</ele><time>2026-04-06T14:40:04Z</time></trkpt><trkpt lat="44.398811769752754" lon="11.33603621966917"><ele>152.0</ele><time>2026-04-06T14:40:17Z</time></trkpt><trkpt lat="44.3988263991137" lon="11.33594729502707"><ele>152.0</ele><time>2026-04-06T14:40:23Z</time></trkpt><trkpt lat="44.39883789921726" lon="11.335851373833146"><ele>152.0</ele><time>2026-04-06T14:40:29Z</time></trkpt><trkpt lat="44.39884818126814" lon="11.335755079399465"><ele>152.0</ele><time>2026-04-06T14:40:35Z</time></trkpt><trkpt lat="44.398858690700436" lon="11.335665791687536"><ele>152.0</ele><time>2026-04-06T14:40:40Z</time></trkpt><trkpt lat="44.39886447406009" lon="11.33556200042674"><ele>152.57142857142856</ele><time>2026-04-06T14:40:46Z</time></trkpt><trkpt lat="44.39887194559223" lon="11.33546312587013"><ele>153.14285714285717</ele><time>2026-04-06T14:40:52Z</time></trkpt><trkpt lat="44.398877530826965" lon="11.335360143498368"><ele>153.71428571428572</ele><time>2026-04-06T14:40:58Z</time></trkpt><trkpt lat="44.39887752535663" lon="11.335270037179821"><ele>154.28571428571428</ele><time>2026-04-06T14:41:03Z</time></trkpt><trkpt lat="44.398875261097984" lon="11.3351626370522"><ele>154.85714285714283</ele><time>2026-04-06T14:41:09Z</time></trkpt><trkpt lat="44.398853604645026" lon="11.335070001110925"><ele>155.42857142857144</ele><time>2026-04-06T14:41:14Z</time></trkpt><trkpt lat="44.39881709952259" lon="11.33499038871343"><ele>156.0</ele><time>2026-04-06T14:41:19Z</time></trkpt><trkpt lat="44.39876478724427" lon="11.33491378150218"><ele>156.0</ele><time>2026-04-06T14:41:25Z</time></trkpt><trkpt lat="44.398709808368395" lon="11.33486426920616"><ele>156.0</ele><time>2026-04-06T14:41:30Z</time></trkpt><trkpt lat="44.39865438840264" lon="11.334812772403586"><ele>156.0</ele><time>2026-04-06T14:41:35Z</time></trkpt><trkpt lat="44.39859629161825" lon="11.33476752204798"><ele>156.0</ele><time>2026-04-06T14:41:40Z</time></trkpt><trkpt lat="44.39853790447505" lon="11.334728378263145"><ele>156.0</ele><time>2026-04-06T14:41:45Z</time></trkpt><trkpt lat="44.39847870689328" lon="11.334688071338546"><ele>156.0</ele><time>2026-04-06T14:41:50Z</time></trkpt><trkpt lat="44.39841283617147" lon="11.334644124905513"><ele>156.0</ele><time>2026-04-06T14:41:56Z</time></trkpt><trkpt lat="44.398346278571395" lon="11.334602339749665"><ele>156.42857142857144</ele><time>2026-04-06T14:42:02Z</time></trkpt><trkpt lat="44.39827859170773" lon="11.334558228165164"><ele>156.85714285714283</ele><time>2026-04-06T14:42:08Z</time></trkpt><trkpt lat="44.398220652895276" lon="11.334519150308557"><ele>157.28571428571428</ele><time>2026-04-06T14:42:13Z</time></trkpt><trkpt lat="44.39815903924671" lon="11.33448103427003"><ele>157.71428571428572</ele><time>2026-04-06T14:42:18Z</time></trkpt><trkpt lat="44.3980975073473" lon="11.334443715312107"><ele>158.14285714285717</ele><time>2026-04-06T14:42:23Z</time></trkpt><trkpt lat="44.398041548653865" lon="11.334403181817823"><ele>158.57142857142856</ele><time>2026-04-06T14:42:28Z</time></trkpt><trkpt lat="44.397979168798535" lon="11.334360493470365"><ele>159.0</ele><time>2026-04-06T14:42:33Z</time></trkpt><trkpt lat="44.3979192465781" lon="11.334326892989099"><ele>159.0</ele><time>2026-04-06T14:42:38Z</time></trkpt><trkpt lat="44.39785666700751" lon="11.334284026920956"><ele>159.0</ele><time>2026-04-06T14:42:43Z</time></trkpt><trkpt lat="44.397788512434516" lon="11.334238796501928"><ele>159.0</ele><time>2026-04-06T14:42:49Z</time></trkpt><trkpt lat="44.39772800171685" lon="11.334202978252408"><ele>159.0</ele><time>2026-04-06T14:42:54Z</time></trkpt><trkpt lat="44.397667838430046" lon="11.334161999805085"><ele>159.0</ele><time>2026-04-06T14:42:59Z</time></trkpt><trkpt lat="44.39759960236926" lon="11.334120146702013"><ele>159.0</ele><time>2026-04-06T14:43:05Z</time></trkpt><trkpt lat="44.39754034690781" lon="11.334083991773527"><ele>159.0</ele><time>2026-04-06T14:43:10Z</time></trkpt><trkpt lat="44.39747740692441" lon="11.334042348748923"><ele>159.0</ele><time>2026-04-06T14:43:15Z</time></trkpt><trkpt lat="44.39740807462405" lon="11.333992641219288"><ele>159.0</ele><time>2026-04-06T14:43:21Z</time></trkpt><trkpt lat="44.39733450111742" lon="11.333944081467822"><ele>159.0</ele><time>2026-04-06T14:43:27Z</time></trkpt><trkpt lat="44.3972607770161" lon="11.333893310177153"><ele>159.0</ele><time>2026-04-06T14:43:33Z</time></trkpt><trkpt lat="44.397185317420856" lon="11.333847930297294"><ele>159.0</ele><time>2026-04-06T14:43:39Z</time></trkpt><trkpt lat="44.397114111089536" lon="11.33379929548559"><ele>159.0</ele><time>2026-04-06T14:43:45Z</time></trkpt><trkpt lat="44.39704119113166" lon="11.33375260156938"><ele>159.66666666666666</ele><time>2026-04-06T14:43:51Z</time></trkpt><trkpt lat="44.396970884271234" lon="11.333704308747235"><ele>160.33333333333334</ele><time>2026-04-06T14:43:57Z</time></trkpt><trkpt lat="44.39690113961656" lon="11.333659321607938"><ele>161.0</ele><time>2026-04-06T14:44:03Z</time></trkpt><trkpt lat="44.39682753015589" lon="11.333611335127697"><ele>161.66666666666669</ele><time>2026-04-06T14:44:09Z</time></trkpt><trkpt lat="44.39675864100115" lon="11.3335647044819"><ele>162.33333333333334</ele><time>2026-04-06T14:44:15Z</time></trkpt><trkpt lat="44.39669009382349" lon="11.333522654854521"><ele>163.0</ele><time>2026-04-06T14:44:21Z</time></trkpt><trkpt lat="44.39662655264444" lon="11.333483415577666"><ele>163.0</ele><time>2026-04-06T14:44:26Z</time></trkpt><trkpt lat="44.396558752165404" lon="11.3334382826614"><ele>163.0</ele><time>2026-04-06T14:44:32Z</time></trkpt><trkpt lat="44.39650245757433" lon="11.333378983350904"><ele>163.0</ele><time>2026-04-06T14:44:38Z</time></trkpt><trkpt lat="44.39652769399641" lon="11.33329754680437"><ele>163.0</ele><time>2026-04-06T14:44:43Z</time></trkpt><trkpt lat="44.39653544763441" lon="11.333196435597095"><ele>163.0</ele><time>2026-04-06T14:44:49Z</time></trkpt><trkpt lat="44.39649176124213" lon="11.333117801901643"><ele>163.0</ele><time>2026-04-06T14:44:55Z</time></trkpt><trkpt lat="44.396437983268484" lon="11.333053343389132"><ele>163.0</ele><time>2026-04-06T14:45:01Z</time></trkpt><trkpt lat="44.39638833429565" lon="11.33298289522903"><ele>163.42857142857144</ele><time>2026-04-06T14:45:07Z</time></trkpt><trkpt lat="44.39633721168876" lon="11.332916410421568"><ele>163.85714285714283</ele><time>2026-04-06T14:45:13Z</time></trkpt><trkpt lat="44.39628729267922" lon="11.332846475833287"><ele>164.28571428571428</ele><time>2026-04-06T14:45:19Z</time></trkpt><trkpt lat="44.3962398548547" lon="11.332769927165124"><ele>164.71428571428572</ele><time>2026-04-06T14:45:25Z</time></trkpt><trkpt lat="44.39619152576925" lon="11.332692575849721"><ele>165.14285714285717</ele><time>2026-04-06T14:45:31Z</time></trkpt><trkpt lat="44.396138659622174" lon="11.332627640292888"><ele>165.57142857142856</ele><time>2026-04-06T14:45:37Z</time></trkpt><trkpt lat="44.396093683325276" lon="11.332558380446716"><ele>166.0</ele><time>2026-04-06T14:45:43Z</time></trkpt><trkpt lat="44.39602587407246" lon="11.332507851543475"><ele>166.0</ele><time>2026-04-06T14:45:49Z</time></trkpt><trkpt lat="44.395968405659026" lon="11.332464735058991"><ele>166.0</ele><time>2026-04-06T14:45:54Z</time></trkpt><trkpt lat="44.39591293507372" lon="11.332417323267627"><ele>166.0</ele><time>2026-04-06T14:45:59Z</time></trkpt><trkpt lat="44.39589042254974" lon="11.332326494111072"><ele>166.0</ele><time>2026-04-06T14:46:05Z</time></trkpt><trkpt lat="44.39592901281849" lon="11.332250242541038"><ele>166.0</ele><time>2026-04-06T14:46:10Z</time></trkpt><trkpt lat="44.395941969046326" lon="11.332163161444075"><ele>166.0</ele><time>2026-04-06T14:46:15Z</time></trkpt><trkpt lat="44.395976248255245" lon="11.33207101761877"><ele>166.0</ele><time>2026-04-06T14:46:21Z</time></trkpt><trkpt lat="44.39600141270995" lon="11.331989797540146"><ele>166.28571428571428</ele><time>2026-04-06T14:46:26Z</time></trkpt><trkpt lat="44.396030638994375" lon="11.331901752264104"><ele>166.57142857142858</ele><time>2026-04-06T14:46:32Z</time></trkpt><trkpt lat="44.396075164566575" lon="11.331832478990394"><ele>166.85714285714286</ele><time>2026-04-06T14:46:38Z</time></trkpt><trkpt lat="44.39610029133262" lon="11.331751012928867"><ele>167.14285714285714</ele><time>2026-04-06T14:46:46Z</time></trkpt><trkpt lat="44.39608024493638" lon="11.331835582674241"><ele>167.42857142857144</ele><time>2026-04-06T14:51:58Z</time></trkpt><trkpt lat="44.39602104402491" lon="11.331781867543386"><ele>167.71428571428572</ele><time>2026-04-06T15:15:16Z</time></trkpt><trkpt lat="44.3959565141409" lon="11.331763815264745"><ele>168.0</ele><time>2026-04-06T15:15:25Z</time></trkpt><trkpt lat="44.395925788466904" lon="11.331683837319927"><ele>168.0</ele><time>2026-04-06T15:19:26Z</time></trkpt><trkpt lat="44.39599534952437" lon="11.331731755087775"><ele>168.0</ele><time>2026-04-06T15:19:35Z</time></trkpt><trkpt lat="44.3960509019984" lon="11.331797128974147"><ele>168.0</ele><time>2026-04-06T15:19:37Z</time></trkpt><trkpt lat="44.39608548509201" lon="11.331878264035122"><ele>168.0</ele><time>2026-04-06T15:19:50Z</time></trkpt><trkpt lat="44.396044780115865" lon="11.331809339143494"><ele>168.0</ele><time>2026-04-06T15:39:29Z</time></trkpt><trkpt lat="44.39597719782837" lon="11.331788628743112"><ele>168.0</ele><time>2026-04-06T15:39:41Z</time></trkpt><trkpt lat="44.395915592561344" lon="11.331750824876982"><ele>168.0</ele><time>2026-04-06T15:39:53Z</time></trkpt><trkpt lat="44.39583069913876" lon="11.331708090690505"><ele>168.0</ele><time>2026-04-06T15:40:11Z</time></trkpt><trkpt lat="44.39586607403748" lon="11.331628978375447"><ele>168.0</ele><time>2026-04-06T16:37:11Z</time></trkpt><trkpt lat="44.39597428905881" lon="11.33162857402526"><ele>168.0</ele><time>2026-04-06T16:37:20Z</time></trkpt><trkpt lat="44.39589495934843" lon="11.331653896215938"><ele>168.0</ele><time>2026-04-06T17:21:54.999Z</time></trkpt><trkpt lat="44.39597031702875" lon="11.331700637088465"><ele>168.0</ele><time>2026-04-06T17:22:00Z</time></trkpt><trkpt lat="44.39603317579872" lon="11.33175290845482"><ele>168.0</ele><time>2026-04-06T17:22:09Z</time></trkpt><trkpt lat="44.39596980836365" lon="11.331785155418515"><ele>168.0</ele><time>2026-04-06T17:26:42Z</time></trkpt><trkpt lat="44.395932238514476" lon="11.331702091081747"><ele>168.0</ele><time>2026-04-06T17:26:54Z</time></trkpt><trkpt lat="44.39583215722852" lon="11.33168557000169"><ele>168.0</ele><time>2026-04-06T17:28:09.999Z</time></trkpt><trkpt lat="44.39581995254382" lon="11.33159507092365"><ele>168.0</ele><time>2026-04-06T17:28:14.999Z</time></trkpt><trkpt lat="44.3957715737041" lon="11.331528220823566"><ele>168.0</ele><time>2026-04-06T17:28:19.999Z</time></trkpt><trkpt lat="44.395714301727445" lon="11.331488064549413"><ele>168.0</ele><time>2026-04-06T17:28:24.999Z</time></trkpt><trkpt lat="44.39564439268943" lon="11.3314724499589"><ele>168.0</ele><time>2026-04-06T17:28:30.999Z</time></trkpt><trkpt lat="44.395591391215966" lon="11.331392433057594"><ele>169.0</ele><time>2026-04-06T17:28:49.999Z</time></trkpt><trkpt lat="44.39553054835834" lon="11.33135196311839"><ele>170.0</ele><time>2026-04-06T17:28:57.999Z</time></trkpt><trkpt lat="44.39546778196751" lon="11.331303271787084"><ele>171.0</ele><time>2026-04-06T17:29:05.999Z</time></trkpt><trkpt lat="44.39540660839076" lon="11.331262373314521"><ele>172.0</ele><time>2026-04-06T17:29:12.999Z</time></trkpt><trkpt lat="44.39543342437368" lon="11.331170640888967"><ele>173.0</ele><time>2026-04-06T17:29:19.999Z</time></trkpt><trkpt lat="44.395357167182716" lon="11.331157014419361"><ele>174.0</ele><time>2026-04-06T17:29:37.999Z</time></trkpt><trkpt lat="44.39534463633465" lon="11.331258775110275"><ele>175.0</ele><time>2026-04-06T17:29:44.999Z</time></trkpt><trkpt lat="44.39528208397893" lon="11.331203403595001"><ele>175.0</ele><time>2026-04-06T17:29:49.999Z</time></trkpt><trkpt lat="44.395316542206196" lon="11.331113459308266"><ele>175.0</ele><time>2026-04-06T17:29:54.999Z</time></trkpt><trkpt lat="44.3953781995661" lon="11.331092439981552"><ele>175.0</ele><time>2026-04-06T17:30:07.999Z</time></trkpt><trkpt lat="44.39539810004579" lon="11.33118697426496"><ele>175.0</ele><time>2026-04-06T17:30:12.999Z</time></trkpt><trkpt lat="44.39542730884899" lon="11.331266295048296"><ele>175.0</ele><time>2026-04-06T17:30:21.999Z</time></trkpt><trkpt lat="44.39549151685067" lon="11.331299950921327"><ele>175.0</ele><time>2026-04-06T17:30:28.999Z</time></trkpt><trkpt lat="44.39554540088234" lon="11.331347277423419"><ele>175.0</ele><time>2026-04-06T17:30:33.999Z</time></trkpt><trkpt lat="44.39560382766407" lon="11.3313900210361"><ele>174.0</ele><time>2026-04-06T17:30:40.999Z</time></trkpt><trkpt lat="44.39565908198997" lon="11.331459697823979"><ele>173.0</ele><time>2026-04-06T17:30:56.999Z</time></trkpt><trkpt lat="44.39572902376782" lon="11.331430403047296"><ele>172.0</ele><time>2026-04-06T17:31:04.999Z</time></trkpt><trkpt lat="44.395801169032914" lon="11.33145320370254"><ele>171.0</ele><time>2026-04-06T17:31:14.999Z</time></trkpt><trkpt lat="44.39582846897711" lon="11.331549559651137"><ele>170.0</ele><time>2026-04-06T17:31:23.999Z</time></trkpt><trkpt lat="44.39584867163882" lon="11.331639030174562"><ele>169.0</ele><time>2026-04-06T17:32:21.999Z</time></trkpt><trkpt lat="44.39591206475292" lon="11.331671736622708"><ele>168.0</ele><time>2026-04-06T17:32:28.999Z</time></trkpt><trkpt lat="44.39594534789694" lon="11.33174726084295"><ele>168.0</ele><time>2026-04-06T17:33:00.999Z</time></trkpt><trkpt lat="44.3958977952163" lon="11.331667815198188"><ele>168.0</ele><time>2026-04-06T17:33:04.999Z</time></trkpt><trkpt lat="44.39589638634595" lon="11.331566197085643"><ele>168.0</ele><time>2026-04-06T17:33:16.999Z</time></trkpt><trkpt lat="44.39592258967206" lon="11.33148394345318"><ele>168.0</ele><time>2026-04-06T17:33:21.999Z</time></trkpt><trkpt lat="44.39595112760475" lon="11.331379215577279"><ele>168.0</ele><time>2026-04-06T17:33:24.999Z</time></trkpt><trkpt lat="44.39595026833484" lon="11.331278271439666"><ele>168.0</ele><time>2026-04-06T17:33:27.999Z</time></trkpt><trkpt lat="44.3958552044087" lon="11.331330735745944"><ele>168.0</ele><time>2026-04-06T17:35:18.999Z</time></trkpt><trkpt lat="44.395847770198486" lon="11.331572786161962"><ele>168.0</ele><time>2026-04-06T17:35:19.999Z</time></trkpt><trkpt lat="44.395920504101035" lon="11.331611832529434"><ele>168.0</ele><time>2026-04-06T17:37:01.999Z</time></trkpt><trkpt lat="44.395979286203804" lon="11.331664465810523"><ele>168.0</ele><time>2026-04-06T17:37:05.999Z</time></trkpt><trkpt lat="44.39602655595948" lon="11.331744621571897"><ele>168.0</ele><time>2026-04-06T17:37:10.999Z</time></trkpt><trkpt lat="44.396088924940976" lon="11.331702926025763"><ele>168.0</ele><time>2026-04-06T17:37:17.999Z</time></trkpt><trkpt lat="44.396100330641175" lon="11.331615587612891"><ele>168.0</ele><time>2026-04-06T17:37:26.999Z</time></trkpt><trkpt lat="44.39607456189885" lon="11.331703797594788"><ele>168.0</ele><time>2026-04-06T17:38:15Z</time></trkpt><trkpt lat="44.39604338887427" lon="11.331784006581719"><ele>168.0</ele><time>2026-04-06T17:38:21Z</time></trkpt><trkpt lat="44.395976432859015" lon="11.331770599024205"><ele>168.0</ele><time>2026-04-06T17:38:40Z</time></trkpt><trkpt lat="44.3959152721255" lon="11.331739370467714"><ele>168.0</ele><time>2026-04-06T17:38:50Z</time></trkpt><trkpt lat="44.39585637807874" lon="11.331660685463216"><ele>168.0</ele><time>2026-04-06T17:38:58Z</time></trkpt><trkpt lat="44.39581205223662" lon="11.331588530249384"><ele>168.0</ele><time>2026-04-06T17:39:01Z</time></trkpt><trkpt lat="44.3957535506536" lon="11.331550832776065"><ele>168.0</ele><time>2026-04-06T17:39:11Z</time></trkpt><trkpt lat="44.395695025100395" lon="11.331512282135492"><ele>168.0</ele><time>2026-04-06T17:39:19Z</time></trkpt><trkpt lat="44.39562661175672" lon="11.331515408138982"><ele>168.0</ele><time>2026-04-06T17:40:00Z</time></trkpt><trkpt lat="44.395601135675086" lon="11.331429445531183"><ele>168.0</ele><time>2026-04-06T17:40:34Z</time></trkpt><trkpt lat="44.39560137546193" lon="11.331523299325353"><ele>168.0</ele><time>2026-04-06T17:40:49Z</time></trkpt><trkpt lat="44.39559197343932" lon="11.331622008969294"><ele>168.0</ele><time>2026-04-06T17:40:55Z</time></trkpt><trkpt lat="44.395590888051146" lon="11.331711372892139"><ele>168.0</ele><time>2026-04-06T17:41:23Z</time></trkpt><trkpt lat="44.395548695927914" lon="11.331799108073398"><ele>168.0</ele><time>2026-04-06T17:41:28Z</time></trkpt><trkpt lat="44.39551875894257" lon="11.331890207267993"><ele>168.0</ele><time>2026-04-06T17:41:32Z</time></trkpt><trkpt lat="44.39547964881885" lon="11.331986328133741"><ele>168.0</ele><time>2026-04-06T17:41:36Z</time></trkpt><trkpt lat="44.39547508641034" lon="11.332097562870954"><ele>168.0</ele><time>2026-04-06T17:41:43Z</time></trkpt><trkpt lat="44.395468034277535" lon="11.332206479558598"><ele>168.0</ele><time>2026-04-06T17:41:45Z</time></trkpt><trkpt lat="44.39548610802223" lon="11.332311842353395"><ele>167.66666666666666</ele><time>2026-04-06T17:41:47Z</time></trkpt><trkpt lat="44.39550913702564" lon="11.33241685562523"><ele>167.33333333333334</ele><time>2026-04-06T17:41:49Z</time></trkpt><trkpt lat="44.39551651777327" lon="11.332519982124877"><ele>167.0</ele><time>2026-04-06T17:41:51Z</time></trkpt><trkpt lat="44.39548846774725" lon="11.332609360577182"><ele>166.66666666666669</ele><time>2026-04-06T17:41:53Z</time></trkpt><trkpt lat="44.39545303505761" lon="11.33270570233704"><ele>166.33333333333334</ele><time>2026-04-06T17:41:56Z</time></trkpt><trkpt lat="44.39550438190008" lon="11.332818722426202"><ele>166.0</ele><time>2026-04-06T17:41:58Z</time></trkpt><trkpt lat="44.39556884618072" lon="11.332850175332881"><ele>166.0</ele><time>2026-04-06T17:41:59Z</time></trkpt><trkpt lat="44.39567953564363" lon="11.33293282388098"><ele>166.0</ele><time>2026-04-06T17:42:01Z</time></trkpt><trkpt lat="44.395744823260536" lon="11.332984230131284"><ele>166.0</ele><time>2026-04-06T17:42:02Z</time></trkpt><trkpt lat="44.39581844377807" lon="11.333039912500805"><ele>166.0</ele><time>2026-04-06T17:42:03Z</time></trkpt><trkpt lat="44.39590199354635" lon="11.33309090549682"><ele>166.0</ele><time>2026-04-06T17:42:04Z</time></trkpt><trkpt lat="44.3959946039207" lon="11.333149317766683"><ele>165.25</ele><time>2026-04-06T17:42:05Z</time></trkpt><trkpt lat="44.396088235795496" lon="11.333211665659865"><ele>164.5</ele><time>2026-04-06T17:42:06Z</time></trkpt><trkpt lat="44.39618886135345" lon="11.33327790905006"><ele>163.75</ele><time>2026-04-06T17:42:07Z</time></trkpt><trkpt lat="44.39629732343504" lon="11.333344615393887"><ele>163.0</ele><time>2026-04-06T17:42:08Z</time></trkpt><trkpt lat="44.39641004671527" lon="11.333416152949624"><ele>163.0</ele><time>2026-04-06T17:42:09Z</time></trkpt><trkpt lat="44.396525276767335" lon="11.3334886116507"><ele>163.0</ele><time>2026-04-06T17:42:10Z</time></trkpt><trkpt lat="44.396633227682585" lon="11.333563928321539"><ele>163.0</ele><time>2026-04-06T17:42:11Z</time></trkpt><trkpt lat="44.39675659040244" lon="11.333641084849944"><ele>163.0</ele><time>2026-04-06T17:42:12Z</time></trkpt><trkpt lat="44.396882545806676" lon="11.33372033347695"><ele>163.0</ele><time>2026-04-06T17:42:13Z</time></trkpt><trkpt lat="44.39701090073664" lon="11.333803183684342"><ele>163.0</ele><time>2026-04-06T17:42:14Z</time></trkpt><trkpt lat="44.39713688313854" lon="11.33388530092108"><ele>163.0</ele><time>2026-04-06T17:42:15Z</time></trkpt><trkpt lat="44.39726805706104" lon="11.333968791536178"><ele>163.0</ele><time>2026-04-06T17:42:16Z</time></trkpt><trkpt lat="44.397394796346425" lon="11.334047353582385"><ele>162.0</ele><time>2026-04-06T17:42:17Z</time></trkpt><trkpt lat="44.3975171132247" lon="11.33412989061664"><ele>161.0</ele><time>2026-04-06T17:42:18Z</time></trkpt><trkpt lat="44.39764057833857" lon="11.334213239522706"><ele>160.0</ele><time>2026-04-06T17:42:19Z</time></trkpt><trkpt lat="44.397764257050056" lon="11.33429374170218"><ele>159.0</ele><time>2026-04-06T17:42:20Z</time></trkpt><trkpt lat="44.397888068077805" lon="11.33437513273596"><ele>161.25</ele><time>2026-04-06T17:42:21Z</time></trkpt><trkpt lat="44.39801236420246" lon="11.334455195344594"><ele>163.5</ele><time>2026-04-06T17:42:22Z</time></trkpt><trkpt lat="44.39813658605987" lon="11.334528284289302"><ele>165.75</ele><time>2026-04-06T17:42:23Z</time></trkpt><trkpt lat="44.398255889331146" lon="11.334609690183706"><ele>168.0</ele><time>2026-04-06T17:42:24Z</time></trkpt><trkpt lat="44.39836662578407" lon="11.33468184942492"><ele>165.6</ele><time>2026-04-06T17:42:25Z</time></trkpt><trkpt lat="44.39846572395612" lon="11.334747640335332"><ele>163.20000000000002</ele><time>2026-04-06T17:42:26Z</time></trkpt><trkpt lat="44.39856662980524" lon="11.334811834106025"><ele>160.8</ele><time>2026-04-06T17:42:27Z</time></trkpt><trkpt lat="44.398655454184386" lon="11.334899216351097"><ele>158.4</ele><time>2026-04-06T17:42:28Z</time></trkpt><trkpt lat="44.398749599411" lon="11.334956667933943"><ele>156.0</ele><time>2026-04-06T17:42:29Z</time></trkpt><trkpt lat="44.39881651323813" lon="11.335066675638089"><ele>156.0</ele><time>2026-04-06T17:42:30Z</time></trkpt><trkpt lat="44.398845337446424" lon="11.335221915631763"><ele>156.0</ele><time>2026-04-06T17:42:31Z</time></trkpt><trkpt lat="44.39882934063574" lon="11.33537171846645"><ele>156.0</ele><time>2026-04-06T17:42:32Z</time></trkpt><trkpt lat="44.39881454920372" lon="11.335516767930008"><ele>156.0</ele><time>2026-04-06T17:42:33Z</time></trkpt><trkpt lat="44.398800847811835" lon="11.3356841676891"><ele>156.0</ele><time>2026-04-06T17:42:34Z</time></trkpt><trkpt lat="44.39878588210678" lon="11.335851765103074"><ele>154.5</ele><time>2026-04-06T17:42:35Z</time></trkpt><trkpt lat="44.39877192776439" lon="11.33601813232619"><ele>153.0</ele><time>2026-04-06T17:42:36Z</time></trkpt><trkpt lat="44.39875835981013" lon="11.3361849252183"><ele>151.5</ele><time>2026-04-06T17:42:37Z</time></trkpt><trkpt lat="44.398744902207866" lon="11.336351265356587"><ele>150.0</ele><time>2026-04-06T17:42:38Z</time></trkpt><trkpt lat="44.39874701047646" lon="11.336514959869712"><ele>148.2</ele><time>2026-04-06T17:42:39Z</time></trkpt><trkpt lat="44.3987264117284" lon="11.336672993180544"><ele>146.4</ele><time>2026-04-06T17:42:40Z</time></trkpt><trkpt lat="44.3987161690436" lon="11.336821039748775"><ele>144.6</ele><time>2026-04-06T17:42:41Z</time></trkpt><trkpt lat="44.398701962976375" lon="11.33696192883425"><ele>142.8</ele><time>2026-04-06T17:42:42Z</time></trkpt><trkpt lat="44.39866820580444" lon="11.337091466713547"><ele>141.0</ele><time>2026-04-06T17:42:43Z</time></trkpt><trkpt lat="44.39860281575498" lon="11.337189637773042"><ele>140.6</ele><time>2026-04-06T17:42:44Z</time></trkpt><trkpt lat="44.39853540427321" lon="11.337285202027083"><ele>140.2</ele><time>2026-04-06T17:42:45Z</time></trkpt><trkpt lat="44.39851055069437" lon="11.337403208350993"><ele>139.8</ele><time>2026-04-06T17:42:46Z</time></trkpt><trkpt lat="44.39852753121906" lon="11.337528481496784"><ele>139.4</ele><time>2026-04-06T17:42:47Z</time></trkpt><trkpt lat="44.39857856366718" lon="11.337642047806032"><ele>139.0</ele><time>2026-04-06T17:42:48Z</time></trkpt><trkpt lat="44.39862975807632" lon="11.337742558357784"><ele>139.0</ele><time>2026-04-06T17:42:49Z</time></trkpt><trkpt lat="44.39864874186584" lon="11.337870171612966"><ele>139.0</ele><time>2026-04-06T17:42:50Z</time></trkpt><trkpt lat="44.39863135234014" lon="11.338010556412609"><ele>139.0</ele><time>2026-04-06T17:42:51Z</time></trkpt><trkpt lat="44.39860604264212" lon="11.33815488757744"><ele>139.0</ele><time>2026-04-06T17:42:52Z</time></trkpt><trkpt lat="44.398565967631065" lon="11.338300280106205"><ele>139.0</ele><time>2026-04-06T17:42:53Z</time></trkpt><trkpt lat="44.39855172779414" lon="11.33845094064214"><ele>139.2</ele><time>2026-04-06T17:42:54Z</time></trkpt><trkpt lat="44.398537866946846" lon="11.338599736067847"><ele>139.4</ele><time>2026-04-06T17:42:55Z</time></trkpt><trkpt lat="44.398525376292824" lon="11.338743455694622"><ele>139.6</ele><time>2026-04-06T17:42:56Z</time></trkpt><trkpt lat="44.398514289771605" lon="11.338890008387613"><ele>139.8</ele><time>2026-04-06T17:42:57Z</time></trkpt><trkpt lat="44.398503606676016" lon="11.339033918573662"><ele>140.0</ele><time>2026-04-06T17:42:58Z</time></trkpt><trkpt lat="44.39849231137738" lon="11.339175760822359"><ele>140.8</ele><time>2026-04-06T17:42:59Z</time></trkpt><trkpt lat="44.3984804230627" lon="11.339319852899525"><ele>141.6</ele><time>2026-04-06T17:43:00Z</time></trkpt><trkpt lat="44.39847974197533" lon="11.339459762145879"><ele>142.4</ele><time>2026-04-06T17:43:01Z</time></trkpt><trkpt lat="44.39846794479812" lon="11.339596654855995"><ele>143.2</ele><time>2026-04-06T17:43:02Z</time></trkpt><trkpt lat="44.398453819574996" lon="11.339722774375272"><ele>144.0</ele><time>2026-04-06T17:43:03Z</time></trkpt><trkpt lat="44.39844367650062" lon="11.339845883563362"><ele>144.16666666666666</ele><time>2026-04-06T17:43:04Z</time></trkpt><trkpt lat="44.39842993990928" lon="11.339958397645017"><ele>144.33333333333334</ele><time>2026-04-06T17:43:05Z</time></trkpt><trkpt lat="44.398415627562656" lon="11.340059512653152"><ele>144.5</ele><time>2026-04-06T17:43:06Z</time></trkpt><trkpt lat="44.39840562870922" lon="11.340151081497691"><ele>144.66666666666669</ele><time>2026-04-06T17:43:07Z</time></trkpt><trkpt lat="44.39847300600617" lon="11.340295234536269"><ele>144.83333333333334</ele><time>2026-04-06T17:43:09Z</time></trkpt><trkpt lat="44.398546045027366" lon="11.340312311723187"><ele>145.0</ele><time>2026-04-06T17:43:10Z</time></trkpt><trkpt lat="44.398625096592525" lon="11.34031572459344"><ele>145.0</ele><time>2026-04-06T17:43:11Z</time></trkpt><trkpt lat="44.398707758097814" lon="11.340324815660708"><ele>145.0</ele><time>2026-04-06T17:43:12Z</time></trkpt><trkpt lat="44.3987925463318" lon="11.34033469996903"><ele>145.0</ele><time>2026-04-06T17:43:13Z</time></trkpt><trkpt lat="44.39887902735092" lon="11.340347841757625"><ele>145.0</ele><time>2026-04-06T17:43:14Z</time></trkpt><trkpt lat="44.39896555879461" lon="11.340358484176646"><ele>145.0</ele><time>2026-04-06T17:43:15Z</time></trkpt><trkpt lat="44.399049689644876" lon="11.340368353321303"><ele>145.0</ele><time>2026-04-06T17:43:16Z</time></trkpt><trkpt lat="44.39913208970226" lon="11.340382566643392"><ele>144.2</ele><time>2026-04-06T17:43:17Z</time></trkpt><trkpt lat="44.39921035867619" lon="11.340394749267785"><ele>143.4</ele><time>2026-04-06T17:43:18Z</time></trkpt><trkpt lat="44.39928304546663" lon="11.340407418470038"><ele>142.6</ele><time>2026-04-06T17:43:19Z</time></trkpt><trkpt lat="44.39935377871375" lon="11.340417756090545"><ele>141.8</ele><time>2026-04-06T17:43:20Z</time></trkpt><trkpt lat="44.39945203695116" lon="11.340463173010486"><ele>141.0</ele><time>2026-04-06T17:43:22Z</time></trkpt><trkpt lat="44.3994529261585" lon="11.340640951008057"><ele>140.83333333333334</ele><time>2026-04-06T17:43:24Z</time></trkpt><trkpt lat="44.399426135671106" lon="11.340751132883454"><ele>140.66666666666666</ele><time>2026-04-06T17:43:25Z</time></trkpt><trkpt lat="44.399401861479554" lon="11.340864713036526"><ele>140.5</ele><time>2026-04-06T17:43:26Z</time></trkpt><trkpt lat="44.399383101552104" lon="11.340968271701843"><ele>140.33333333333331</ele><time>2026-04-06T17:43:27Z</time></trkpt><trkpt lat="44.39936461421048" lon="11.341076773173908"><ele>140.16666666666666</ele><time>2026-04-06T17:43:28Z</time></trkpt><trkpt lat="44.39934660784681" lon="11.34119271526456"><ele>140.0</ele><time>2026-04-06T17:43:29Z</time></trkpt><trkpt lat="44.399329619991555" lon="11.341315534200222"><ele>140.6</ele><time>2026-04-06T17:43:30Z</time></trkpt><trkpt lat="44.399312930650915" lon="11.341442756365007"><ele>141.2</ele><time>2026-04-06T17:43:31Z</time></trkpt><trkpt lat="44.399296572679745" lon="11.34157336115759"><ele>141.8</ele><time>2026-04-06T17:43:32Z</time></trkpt><trkpt lat="44.39928487935644" lon="11.341709167993711"><ele>142.4</ele><time>2026-04-06T17:43:33Z</time></trkpt><trkpt lat="44.39929442689726" lon="11.341848453619528"><ele>143.0</ele><time>2026-04-06T17:43:34Z</time></trkpt><trkpt lat="44.39932212358608" lon="11.341981968401635"><ele>143.0</ele><time>2026-04-06T17:43:35Z</time></trkpt><trkpt lat="44.39936549460822" lon="11.342104287002446"><ele>143.0</ele><time>2026-04-06T17:43:36Z</time></trkpt><trkpt lat="44.39941946046146" lon="11.342216514519015"><ele>143.0</ele><time>2026-04-06T17:43:37Z</time></trkpt><trkpt lat="44.39947600769883" lon="11.34232315352252"><ele>143.0</ele><time>2026-04-06T17:43:38Z</time></trkpt><trkpt lat="44.399530572102904" lon="11.342429148364165"><ele>143.0</ele><time>2026-04-06T17:43:39Z</time></trkpt><trkpt lat="44.39957708922383" lon="11.34253921671313"><ele>145.20000000000002</ele><time>2026-04-06T17:43:40Z</time></trkpt><trkpt lat="44.399614117489264" lon="11.342653540208346"><ele>147.4</ele><time>2026-04-06T17:43:41Z</time></trkpt><trkpt lat="44.399636258298024" lon="11.342774256537304"><ele>149.60000000000002</ele><time>2026-04-06T17:43:42Z</time></trkpt><trkpt lat="44.39963873181603" lon="11.342901467857153"><ele>151.8</ele><time>2026-04-06T17:43:43Z</time></trkpt><trkpt lat="44.399599784629125" lon="11.343023147664102"><ele>154.0</ele><time>2026-04-06T17:43:44Z</time></trkpt><trkpt lat="44.39955261179135" lon="11.343138799913238"><ele>155.6</ele><time>2026-04-06T17:43:45Z</time></trkpt><trkpt lat="44.39953525579217" lon="11.343281392838014"><ele>157.2</ele><time>2026-04-06T17:43:46Z</time></trkpt><trkpt lat="44.39954248683761" lon="11.343413157838201"><ele>158.79999999999998</ele><time>2026-04-06T17:43:47Z</time></trkpt><trkpt lat="44.39956804975194" lon="11.343553029938732"><ele>160.4</ele><time>2026-04-06T17:43:48Z</time></trkpt><trkpt lat="44.3995880618905" lon="11.343678219165444"><ele>162.0</ele><time>2026-04-06T17:43:49Z</time></trkpt><trkpt lat="44.39960024174869" lon="11.343806430488229"><ele>162.39999999999998</ele><time>2026-04-06T17:43:50Z</time></trkpt><trkpt lat="44.3996178376778" lon="11.343932964870648"><ele>162.79999999999998</ele><time>2026-04-06T17:43:51Z</time></trkpt><trkpt lat="44.399632182261975" lon="11.34406037196037"><ele>163.2</ele><time>2026-04-06T17:43:52Z</time></trkpt><trkpt lat="44.39965844855847" lon="11.344187968509026"><ele>163.6</ele><time>2026-04-06T17:43:53Z</time></trkpt><trkpt lat="44.399700137614495" lon="11.344313463255693"><ele>164.0</ele><time>2026-04-06T17:43:54Z</time></trkpt><trkpt lat="44.39975600559148" lon="11.34441700165312"><ele>163.83333333333331</ele><time>2026-04-06T17:43:55Z</time></trkpt><trkpt lat="44.3998227685027" lon="11.344513288760773"><ele>163.66666666666666</ele><time>2026-04-06T17:43:56Z</time></trkpt><trkpt lat="44.3998906892419" lon="11.344598529247277"><ele>163.5</ele><time>2026-04-06T17:43:57Z</time></trkpt><trkpt lat="44.39996449922483" lon="11.344672328782085"><ele>163.33333333333334</ele><time>2026-04-06T17:43:58Z</time></trkpt><trkpt lat="44.40003365257166" lon="11.344749550136662"><ele>163.16666666666669</ele><time>2026-04-06T17:43:59Z</time></trkpt><trkpt lat="44.40009842190082" lon="11.344821274068975"><ele>163.0</ele><time>2026-04-06T17:44:00Z</time></trkpt><trkpt lat="44.40015861417074" lon="11.344891071271444"><ele>163.0</ele><time>2026-04-06T17:44:01Z</time></trkpt><trkpt lat="44.40019446034204" lon="11.344981536600296"><ele>163.0</ele><time>2026-04-06T17:44:02Z</time></trkpt><trkpt lat="44.40020718540572" lon="11.345077594617964"><ele>163.0</ele><time>2026-04-06T17:44:03Z</time></trkpt><trkpt lat="44.40017839690086" lon="11.345181610773672"><ele>163.0</ele><time>2026-04-06T17:44:04Z</time></trkpt><trkpt lat="44.4001174906512" lon="11.345265243131912"><ele>163.0</ele><time>2026-04-06T17:44:05Z</time></trkpt><trkpt lat="44.400059959392486" lon="11.345355895092355"><ele>163.0</ele><time>2026-04-06T17:44:06Z</time></trkpt><trkpt lat="44.40001346628327" lon="11.3454396447438"><ele>163.0</ele><time>2026-04-06T17:44:07Z</time></trkpt><trkpt lat="44.39997249658665" lon="11.34551306086325"><ele>163.0</ele><time>2026-04-06T17:44:08Z</time></trkpt><trkpt lat="44.39989673983408" lon="11.345620540193723"><ele>163.0</ele><time>2026-04-06T17:44:10Z</time></trkpt><trkpt lat="44.39985809241171" lon="11.345711446919927"><ele>163.0</ele><time>2026-04-06T17:44:21Z</time></trkpt><trkpt lat="44.39973928480422" lon="11.34566761674348"><ele>163.0</ele><time>2026-04-06T17:44:23Z</time></trkpt><trkpt lat="44.39964134254608" lon="11.345578227172851"><ele>163.71428571428572</ele><time>2026-04-06T17:44:25Z</time></trkpt><trkpt lat="44.399579807752424" lon="11.345535923277925"><ele>164.42857142857142</ele><time>2026-04-06T17:44:26Z</time></trkpt><trkpt lat="44.399514332994535" lon="11.34549313506603"><ele>165.14285714285714</ele><time>2026-04-06T17:44:27Z</time></trkpt><trkpt lat="44.399446124901026" lon="11.345450738775641"><ele>165.85714285714286</ele><time>2026-04-06T17:44:28Z</time></trkpt><trkpt lat="44.399377461662034" lon="11.345408190509154"><ele>166.57142857142856</ele><time>2026-04-06T17:44:29Z</time></trkpt><trkpt lat="44.399310693838714" lon="11.345366218469376"><ele>167.28571428571428</ele><time>2026-04-06T17:44:30Z</time></trkpt><trkpt lat="44.39924512296481" lon="11.3453250356921"><ele>168.0</ele><time>2026-04-06T17:44:31Z</time></trkpt><trkpt lat="44.39918692674371" lon="11.345283611832619"><ele>168.0</ele><time>2026-04-06T17:44:32Z</time></trkpt><trkpt lat="44.399089676523516" lon="11.345221825866696"><ele>168.0</ele><time>2026-04-06T17:44:34Z</time></trkpt><trkpt lat="44.39904082843583" lon="11.345143519538215"><ele>168.0</ele><time>2026-04-06T17:44:44Z</time></trkpt><trkpt lat="44.399090168338994" lon="11.344978910630209"><ele>168.0</ele><time>2026-04-06T17:44:50Z</time></trkpt><trkpt lat="44.399103466228524" lon="11.3448489016933"><ele>168.0</ele><time>2026-04-06T17:44:53Z</time></trkpt><trkpt lat="44.39909511501414" lon="11.344757371343649"><ele>168.0</ele><time>2026-04-06T17:44:56Z</time></trkpt><trkpt lat="44.39902647704067" lon="11.34476956395872"><ele>168.0</ele><time>2026-04-06T17:45:24Z</time></trkpt><trkpt lat="44.39896121791109" lon="11.34480661428"><ele>168.0</ele><time>2026-04-06T17:45:31Z</time></trkpt><trkpt lat="44.39891056942954" lon="11.344859611205028"><ele>168.0</ele><time>2026-04-06T17:45:38Z</time></trkpt><trkpt lat="44.398929005512535" lon="11.344946779219036"><ele>168.0</ele><time>2026-04-06T17:45:49Z</time></trkpt><trkpt lat="44.398981057415" lon="11.345010281080699"><ele>168.0</ele><time>2026-04-06T17:46:18Z</time></trkpt><trkpt lat="44.39895168316181" lon="11.344923615929668"><ele>168.0</ele><time>2026-04-06T17:46:22Z</time></trkpt></trkseg></trk></gpx>